<?xml version="1.0" encoding="UTF-8" standalone="no" ?>
<gpx xmlns="http://www.topografix.com/GPX/1/1" xmlns:xsi="http://www.w3.org/2001/XMLSchema-instance" xsi:schemaLocation="http://www.topografix.com/GPX/1/1 http://www.topografix.com/GPX/1/1/gpx.xsd" version="1.1" creator="VisuGPX - https://www.visugpx.com">
  <metadata>
    <name>Rillettes de Bercé 2016</name>
    <desc><![CDATA[rando pédestre Sandrine & Hélène]]></desc>
  </metadata>
  <trk>
    <name><![CDATA[Maps3D 2016-10-09 11-08am]]></name>
    <trkseg>
      <trkpt lat="47.73696" lon="0.53641">
        <ele>52.555054</ele>
        <time>2016-10-09T07:07:36Z</time>
      </trkpt>
      <trkpt lat="47.737" lon="0.53637">
        <ele>52.527653</ele>
        <time>2016-10-09T07:07:40Z</time>
      </trkpt>
      <trkpt lat="47.73704" lon="0.53633">
        <ele>52.509872</ele>
        <time>2016-10-09T07:07:44Z</time>
      </trkpt>
      <trkpt lat="47.7371" lon="0.53629">
        <ele>52.49831</ele>
        <time>2016-10-09T07:07:49Z</time>
      </trkpt>
      <trkpt lat="47.73715" lon="0.53627">
        <ele>52.496452</ele>
        <time>2016-10-09T07:07:53Z</time>
      </trkpt>
      <trkpt lat="47.7372" lon="0.53623">
        <ele>52.507446</ele>
        <time>2016-10-09T07:07:57Z</time>
      </trkpt>
      <trkpt lat="47.73724" lon="0.53618">
        <ele>52.52948</ele>
        <time>2016-10-09T07:08:01Z</time>
      </trkpt>
      <trkpt lat="47.73727" lon="0.53613">
        <ele>52.561577</ele>
        <time>2016-10-09T07:08:05Z</time>
      </trkpt>
      <trkpt lat="47.73732" lon="0.53608">
        <ele>52.617561</ele>
        <time>2016-10-09T07:08:09Z</time>
      </trkpt>
      <trkpt lat="47.73736" lon="0.53601">
        <ele>52.690895</ele>
        <time>2016-10-09T07:08:13Z</time>
      </trkpt>
      <trkpt lat="47.73739" lon="0.53596">
        <ele>52.759605</ele>
        <time>2016-10-09T07:08:16Z</time>
      </trkpt>
      <trkpt lat="47.73744" lon="0.5359">
        <ele>52.860199</ele>
        <time>2016-10-09T07:08:22Z</time>
      </trkpt>
      <trkpt lat="47.73749" lon="0.53585">
        <ele>52.971397</ele>
        <time>2016-10-09T07:08:28Z</time>
      </trkpt>
      <trkpt lat="47.73755" lon="0.53582">
        <ele>52.981651</ele>
        <time>2016-10-09T07:08:33Z</time>
      </trkpt>
      <trkpt lat="47.73759" lon="0.53576">
        <ele>52.927094</ele>
        <time>2016-10-09T07:08:37Z</time>
      </trkpt>
      <trkpt lat="47.73762" lon="0.5357">
        <ele>52.887497</ele>
        <time>2016-10-09T07:08:41Z</time>
      </trkpt>
      <trkpt lat="47.73767" lon="0.53564">
        <ele>52.864281</ele>
        <time>2016-10-09T07:08:45Z</time>
      </trkpt>
      <trkpt lat="47.73771" lon="0.53561">
        <ele>52.862778</ele>
        <time>2016-10-09T07:08:48Z</time>
      </trkpt>
      <trkpt lat="47.73775" lon="0.53555">
        <ele>52.861465</ele>
        <time>2016-10-09T07:08:53Z</time>
      </trkpt>
      <trkpt lat="47.73779" lon="0.5355">
        <ele>52.875473</ele>
        <time>2016-10-09T07:08:57Z</time>
      </trkpt>
      <trkpt lat="47.73783" lon="0.53541">
        <ele>52.896877</ele>
        <time>2016-10-09T07:09:04Z</time>
      </trkpt>
      <trkpt lat="47.73789" lon="0.53534">
        <ele>52.954865</ele>
        <time>2016-10-09T07:09:08Z</time>
      </trkpt>
      <trkpt lat="47.73793" lon="0.5353">
        <ele>53.026798</ele>
        <time>2016-10-09T07:09:12Z</time>
      </trkpt>
      <trkpt lat="47.73797" lon="0.53525">
        <ele>53.088413</ele>
        <time>2016-10-09T07:09:18Z</time>
      </trkpt>
      <trkpt lat="47.73798" lon="0.53515">
        <ele>53.129047</ele>
        <time>2016-10-09T07:09:22Z</time>
      </trkpt>
      <trkpt lat="47.73798" lon="0.53508">
        <ele>53.137314</ele>
        <time>2016-10-09T07:09:25Z</time>
      </trkpt>
      <trkpt lat="47.73797" lon="0.53498">
        <ele>53.065987</ele>
        <time>2016-10-09T07:09:29Z</time>
      </trkpt>
      <trkpt lat="47.73796" lon="0.53488">
        <ele>52.816902</ele>
        <time>2016-10-09T07:09:33Z</time>
      </trkpt>
      <trkpt lat="47.73796" lon="0.5348">
        <ele>52.598137</ele>
        <time>2016-10-09T07:09:37Z</time>
      </trkpt>
      <trkpt lat="47.73794" lon="0.53473">
        <ele>52.380714</ele>
        <time>2016-10-09T07:09:42Z</time>
      </trkpt>
      <trkpt lat="47.73793" lon="0.53461">
        <ele>52.078995</ele>
        <time>2016-10-09T07:09:48Z</time>
      </trkpt>
      <trkpt lat="47.73791" lon="0.53452">
        <ele>51.835754</ele>
        <time>2016-10-09T07:09:53Z</time>
      </trkpt>
      <trkpt lat="47.7379" lon="0.53445">
        <ele>51.663887</ele>
        <time>2016-10-09T07:09:58Z</time>
      </trkpt>
      <trkpt lat="47.7379" lon="0.53438">
        <ele>51.498383</ele>
        <time>2016-10-09T07:10:02Z</time>
      </trkpt>
      <trkpt lat="47.7379" lon="0.5343">
        <ele>51.310951</ele>
        <time>2016-10-09T07:10:07Z</time>
      </trkpt>
      <trkpt lat="47.73788" lon="0.53421">
        <ele>51.088783</ele>
        <time>2016-10-09T07:10:12Z</time>
      </trkpt>
      <trkpt lat="47.73786" lon="0.53413">
        <ele>51.085083</ele>
        <time>2016-10-09T07:10:16Z</time>
      </trkpt>
      <trkpt lat="47.73785" lon="0.53406">
        <ele>51.248413</ele>
        <time>2016-10-09T07:10:20Z</time>
      </trkpt>
      <trkpt lat="47.73784" lon="0.534">
        <ele>51.407837</ele>
        <time>2016-10-09T07:10:24Z</time>
      </trkpt>
      <trkpt lat="47.73782" lon="0.53393">
        <ele>51.562378</ele>
        <time>2016-10-09T07:10:28Z</time>
      </trkpt>
      <trkpt lat="47.73779" lon="0.53384">
        <ele>51.794922</ele>
        <time>2016-10-09T07:10:33Z</time>
      </trkpt>
      <trkpt lat="47.73777" lon="0.53377">
        <ele>51.950806</ele>
        <time>2016-10-09T07:10:38Z</time>
      </trkpt>
      <trkpt lat="47.73775" lon="0.5337">
        <ele>52.127319</ele>
        <time>2016-10-09T07:10:43Z</time>
      </trkpt>
      <trkpt lat="47.73773" lon="0.53363">
        <ele>52.289551</ele>
        <time>2016-10-09T07:10:46Z</time>
      </trkpt>
      <trkpt lat="47.73771" lon="0.53355">
        <ele>52.470947</ele>
        <time>2016-10-09T07:10:51Z</time>
      </trkpt>
      <trkpt lat="47.7377" lon="0.53346">
        <ele>52.708496</ele>
        <time>2016-10-09T07:10:55Z</time>
      </trkpt>
      <trkpt lat="47.73769" lon="0.53338">
        <ele>52.883667</ele>
        <time>2016-10-09T07:11:00Z</time>
      </trkpt>
      <trkpt lat="47.73766" lon="0.53331">
        <ele>52.942421</ele>
        <time>2016-10-09T07:11:04Z</time>
      </trkpt>
      <trkpt lat="47.73764" lon="0.53322">
        <ele>52.757889</ele>
        <time>2016-10-09T07:11:08Z</time>
      </trkpt>
      <trkpt lat="47.73763" lon="0.53316">
        <ele>52.609264</ele>
        <time>2016-10-09T07:11:12Z</time>
      </trkpt>
      <trkpt lat="47.73761" lon="0.53309">
        <ele>52.447472</ele>
        <time>2016-10-09T07:11:16Z</time>
      </trkpt>
      <trkpt lat="47.73758" lon="0.53301">
        <ele>52.253021</ele>
        <time>2016-10-09T07:11:20Z</time>
      </trkpt>
      <trkpt lat="47.73757" lon="0.53294">
        <ele>52.086796</ele>
        <time>2016-10-09T07:11:26Z</time>
      </trkpt>
      <trkpt lat="47.73755" lon="0.53287">
        <ele>51.918301</ele>
        <time>2016-10-09T07:11:29Z</time>
      </trkpt>
      <trkpt lat="47.73753" lon="0.53279">
        <ele>51.721592</ele>
        <time>2016-10-09T07:11:32Z</time>
      </trkpt>
      <trkpt lat="47.73751" lon="0.53265">
        <ele>51.359108</ele>
        <time>2016-10-09T07:11:37Z</time>
      </trkpt>
      <trkpt lat="47.73749" lon="0.53251">
        <ele>51.013954</ele>
        <time>2016-10-09T07:11:42Z</time>
      </trkpt>
      <trkpt lat="47.73748" lon="0.53243">
        <ele>50.88575</ele>
        <time>2016-10-09T07:11:46Z</time>
      </trkpt>
      <trkpt lat="47.73746" lon="0.53233">
        <ele>50.764053</ele>
        <time>2016-10-09T07:11:52Z</time>
      </trkpt>
      <trkpt lat="47.73745" lon="0.53226">
        <ele>50.680885</ele>
        <time>2016-10-09T07:12:07Z</time>
      </trkpt>
      <trkpt lat="47.73743" lon="0.53216">
        <ele>50.576157</ele>
        <time>2016-10-09T07:12:13Z</time>
      </trkpt>
      <trkpt lat="47.73741" lon="0.53197">
        <ele>50.390228</ele>
        <time>2016-10-09T07:12:18Z</time>
      </trkpt>
      <trkpt lat="47.73738" lon="0.53189">
        <ele>50.334976</ele>
        <time>2016-10-09T07:12:23Z</time>
      </trkpt>
      <trkpt lat="47.73735" lon="0.53179">
        <ele>50.27919</ele>
        <time>2016-10-09T07:12:26Z</time>
      </trkpt>
      <trkpt lat="47.73731" lon="0.53169">
        <ele>50.236801</ele>
        <time>2016-10-09T07:12:29Z</time>
      </trkpt>
      <trkpt lat="47.73727" lon="0.53158">
        <ele>50.203472</ele>
        <time>2016-10-09T07:12:33Z</time>
      </trkpt>
      <trkpt lat="47.73725" lon="0.53151">
        <ele>50.172379</ele>
        <time>2016-10-09T07:12:37Z</time>
      </trkpt>
      <trkpt lat="47.73724" lon="0.53144">
        <ele>50.115543</ele>
        <time>2016-10-09T07:12:42Z</time>
      </trkpt>
      <trkpt lat="47.73722" lon="0.53132">
        <ele>50.06311</ele>
        <time>2016-10-09T07:12:46Z</time>
      </trkpt>
      <trkpt lat="47.73719" lon="0.53125">
        <ele>50.05928</ele>
        <time>2016-10-09T07:12:51Z</time>
      </trkpt>
      <trkpt lat="47.73718" lon="0.53117">
        <ele>50.021843</ele>
        <time>2016-10-09T07:12:55Z</time>
      </trkpt>
      <trkpt lat="47.73716" lon="0.53109">
        <ele>49.991402</ele>
        <time>2016-10-09T07:13:00Z</time>
      </trkpt>
      <trkpt lat="47.73714" lon="0.53098">
        <ele>49.963165</ele>
        <time>2016-10-09T07:13:05Z</time>
      </trkpt>
      <trkpt lat="47.73713" lon="0.53088">
        <ele>49.928131</ele>
        <time>2016-10-09T07:13:09Z</time>
      </trkpt>
      <trkpt lat="47.7371" lon="0.53079">
        <ele>50.086594</ele>
        <time>2016-10-09T07:13:13Z</time>
      </trkpt>
      <trkpt lat="47.73708" lon="0.5307">
        <ele>50.388191</ele>
        <time>2016-10-09T07:13:17Z</time>
      </trkpt>
      <trkpt lat="47.73707" lon="0.53063">
        <ele>50.645096</ele>
        <time>2016-10-09T07:13:21Z</time>
      </trkpt>
      <trkpt lat="47.73704" lon="0.53053">
        <ele>51.025742</ele>
        <time>2016-10-09T07:13:25Z</time>
      </trkpt>
      <trkpt lat="47.73701" lon="0.53047">
        <ele>51.305672</ele>
        <time>2016-10-09T07:13:29Z</time>
      </trkpt>
      <trkpt lat="47.73701" lon="0.53039">
        <ele>51.577454</ele>
        <time>2016-10-09T07:13:34Z</time>
      </trkpt>
      <trkpt lat="47.73698" lon="0.53029">
        <ele>51.946838</ele>
        <time>2016-10-09T07:13:38Z</time>
      </trkpt>
      <trkpt lat="47.73695" lon="0.53022">
        <ele>52.289459</ele>
        <time>2016-10-09T07:13:42Z</time>
      </trkpt>
      <trkpt lat="47.73692" lon="0.53012">
        <ele>52.71209</ele>
        <time>2016-10-09T07:13:49Z</time>
      </trkpt>
      <trkpt lat="47.73689" lon="0.53004">
        <ele>53.082172</ele>
        <time>2016-10-09T07:13:54Z</time>
      </trkpt>
      <trkpt lat="47.73687" lon="0.52997">
        <ele>53.329773</ele>
        <time>2016-10-09T07:13:59Z</time>
      </trkpt>
      <trkpt lat="47.73687" lon="0.52986">
        <ele>53.61438</ele>
        <time>2016-10-09T07:14:04Z</time>
      </trkpt>
      <trkpt lat="47.73687" lon="0.52978">
        <ele>53.807556</ele>
        <time>2016-10-09T07:14:09Z</time>
      </trkpt>
      <trkpt lat="47.73687" lon="0.5297">
        <ele>53.971619</ele>
        <time>2016-10-09T07:14:13Z</time>
      </trkpt>
      <trkpt lat="47.73685" lon="0.52959">
        <ele>54.33075</ele>
        <time>2016-10-09T07:14:22Z</time>
      </trkpt>
      <trkpt lat="47.73684" lon="0.52951">
        <ele>54.570984</ele>
        <time>2016-10-09T07:14:25Z</time>
      </trkpt>
      <trkpt lat="47.73679" lon="0.52938">
        <ele>55.025574</ele>
        <time>2016-10-09T07:14:35Z</time>
      </trkpt>
      <trkpt lat="47.73677" lon="0.52925">
        <ele>55.436646</ele>
        <time>2016-10-09T07:14:42Z</time>
      </trkpt>
      <trkpt lat="47.73674" lon="0.52915">
        <ele>55.801777</ele>
        <time>2016-10-09T07:14:46Z</time>
      </trkpt>
      <trkpt lat="47.73672" lon="0.529">
        <ele>56.388905</ele>
        <time>2016-10-09T07:14:53Z</time>
      </trkpt>
      <trkpt lat="47.73671" lon="0.52893">
        <ele>56.649174</ele>
        <time>2016-10-09T07:14:59Z</time>
      </trkpt>
      <trkpt lat="47.73669" lon="0.52883">
        <ele>57.118702</ele>
        <time>2016-10-09T07:15:03Z</time>
      </trkpt>
      <trkpt lat="47.73666" lon="0.52875">
        <ele>57.496571</ele>
        <time>2016-10-09T07:15:06Z</time>
      </trkpt>
      <trkpt lat="47.73662" lon="0.52867">
        <ele>57.526344</ele>
        <time>2016-10-09T07:15:11Z</time>
      </trkpt>
      <trkpt lat="47.73661" lon="0.52855">
        <ele>57.838726</ele>
        <time>2016-10-09T07:15:20Z</time>
      </trkpt>
      <trkpt lat="47.73658" lon="0.52843">
        <ele>58.054607</ele>
        <time>2016-10-09T07:15:24Z</time>
      </trkpt>
      <trkpt lat="47.73657" lon="0.52835">
        <ele>58.254375</ele>
        <time>2016-10-09T07:15:28Z</time>
      </trkpt>
      <trkpt lat="47.73657" lon="0.52824">
        <ele>58.078045</ele>
        <time>2016-10-09T07:15:32Z</time>
      </trkpt>
      <trkpt lat="47.73655" lon="0.52815">
        <ele>57.718624</ele>
        <time>2016-10-09T07:15:37Z</time>
      </trkpt>
      <trkpt lat="47.73653" lon="0.52805">
        <ele>57.393448</ele>
        <time>2016-10-09T07:15:41Z</time>
      </trkpt>
      <trkpt lat="47.7365" lon="0.52793">
        <ele>56.944107</ele>
        <time>2016-10-09T07:15:46Z</time>
      </trkpt>
      <trkpt lat="47.73649" lon="0.52782">
        <ele>56.61562</ele>
        <time>2016-10-09T07:15:50Z</time>
      </trkpt>
      <trkpt lat="47.73647" lon="0.52776">
        <ele>56.355045</ele>
        <time>2016-10-09T07:15:53Z</time>
      </trkpt>
      <trkpt lat="47.73644" lon="0.52769">
        <ele>56.031364</ele>
        <time>2016-10-09T07:15:57Z</time>
      </trkpt>
      <trkpt lat="47.73642" lon="0.52761">
        <ele>55.768764</ele>
        <time>2016-10-09T07:16:01Z</time>
      </trkpt>
      <trkpt lat="47.7364" lon="0.52753">
        <ele>55.491024</ele>
        <time>2016-10-09T07:16:05Z</time>
      </trkpt>
      <trkpt lat="47.73639" lon="0.52747">
        <ele>55.335571</ele>
        <time>2016-10-09T07:16:09Z</time>
      </trkpt>
      <trkpt lat="47.73638" lon="0.52739">
        <ele>55.270264</ele>
        <time>2016-10-09T07:16:13Z</time>
      </trkpt>
      <trkpt lat="47.73637" lon="0.52732">
        <ele>55.206482</ele>
        <time>2016-10-09T07:16:17Z</time>
      </trkpt>
      <trkpt lat="47.73635" lon="0.52725">
        <ele>55.109131</ele>
        <time>2016-10-09T07:16:21Z</time>
      </trkpt>
      <trkpt lat="47.73633" lon="0.52719">
        <ele>54.951965</ele>
        <time>2016-10-09T07:16:25Z</time>
      </trkpt>
      <trkpt lat="47.7363" lon="0.52712">
        <ele>54.806396</ele>
        <time>2016-10-09T07:16:29Z</time>
      </trkpt>
      <trkpt lat="47.73629" lon="0.52705">
        <ele>54.732239</ele>
        <time>2016-10-09T07:16:33Z</time>
      </trkpt>
      <trkpt lat="47.73628" lon="0.52697">
        <ele>54.658997</ele>
        <time>2016-10-09T07:16:37Z</time>
      </trkpt>
      <trkpt lat="47.73626" lon="0.5269">
        <ele>54.557373</ele>
        <time>2016-10-09T07:16:41Z</time>
      </trkpt>
      <trkpt lat="47.73624" lon="0.52683">
        <ele>54.445984</ele>
        <time>2016-10-09T07:16:45Z</time>
      </trkpt>
      <trkpt lat="47.73622" lon="0.52674">
        <ele>54.346802</ele>
        <time>2016-10-09T07:16:49Z</time>
      </trkpt>
      <trkpt lat="47.73621" lon="0.52667">
        <ele>54.286682</ele>
        <time>2016-10-09T07:16:53Z</time>
      </trkpt>
      <trkpt lat="47.7362" lon="0.5266">
        <ele>54.111931</ele>
        <time>2016-10-09T07:16:57Z</time>
      </trkpt>
      <trkpt lat="47.73619" lon="0.52653">
        <ele>53.951996</ele>
        <time>2016-10-09T07:17:00Z</time>
      </trkpt>
      <trkpt lat="47.73618" lon="0.52645">
        <ele>53.737839</ele>
        <time>2016-10-09T07:17:05Z</time>
      </trkpt>
      <trkpt lat="47.73617" lon="0.52637">
        <ele>53.566921</ele>
        <time>2016-10-09T07:17:09Z</time>
      </trkpt>
      <trkpt lat="47.73615" lon="0.52631">
        <ele>53.391312</ele>
        <time>2016-10-09T07:17:13Z</time>
      </trkpt>
      <trkpt lat="47.73613" lon="0.52623">
        <ele>53.206215</ele>
        <time>2016-10-09T07:17:17Z</time>
      </trkpt>
      <trkpt lat="47.73612" lon="0.52615">
        <ele>53.07933</ele>
        <time>2016-10-09T07:17:21Z</time>
      </trkpt>
      <trkpt lat="47.7361" lon="0.52607">
        <ele>52.921997</ele>
        <time>2016-10-09T07:17:26Z</time>
      </trkpt>
      <trkpt lat="47.73607" lon="0.526">
        <ele>52.746597</ele>
        <time>2016-10-09T07:17:30Z</time>
      </trkpt>
      <trkpt lat="47.73605" lon="0.52592">
        <ele>52.614254</ele>
        <time>2016-10-09T07:17:34Z</time>
      </trkpt>
      <trkpt lat="47.73604" lon="0.52584">
        <ele>52.488831</ele>
        <time>2016-10-09T07:17:38Z</time>
      </trkpt>
      <trkpt lat="47.73602" lon="0.52577">
        <ele>52.649719</ele>
        <time>2016-10-09T07:17:43Z</time>
      </trkpt>
      <trkpt lat="47.73599" lon="0.52567">
        <ele>52.881565</ele>
        <time>2016-10-09T07:17:48Z</time>
      </trkpt>
      <trkpt lat="47.73598" lon="0.52559">
        <ele>53.114273</ele>
        <time>2016-10-09T07:17:54Z</time>
      </trkpt>
      <trkpt lat="47.73595" lon="0.52551">
        <ele>53.332638</ele>
        <time>2016-10-09T07:17:58Z</time>
      </trkpt>
      <trkpt lat="47.73593" lon="0.52544">
        <ele>53.531998</ele>
        <time>2016-10-09T07:18:01Z</time>
      </trkpt>
      <trkpt lat="47.73592" lon="0.52535">
        <ele>53.818924</ele>
        <time>2016-10-09T07:18:05Z</time>
      </trkpt>
      <trkpt lat="47.73592" lon="0.52526">
        <ele>54.121246</ele>
        <time>2016-10-09T07:18:09Z</time>
      </trkpt>
      <trkpt lat="47.7359" lon="0.52516">
        <ele>54.466293</ele>
        <time>2016-10-09T07:18:14Z</time>
      </trkpt>
      <trkpt lat="47.73588" lon="0.52507">
        <ele>54.766247</ele>
        <time>2016-10-09T07:18:18Z</time>
      </trkpt>
      <trkpt lat="47.73587" lon="0.52496">
        <ele>55.049744</ele>
        <time>2016-10-09T07:18:25Z</time>
      </trkpt>
      <trkpt lat="47.73583" lon="0.52487">
        <ele>55.151917</ele>
        <time>2016-10-09T07:18:29Z</time>
      </trkpt>
      <trkpt lat="47.73582" lon="0.52479">
        <ele>55.172852</ele>
        <time>2016-10-09T07:18:33Z</time>
      </trkpt>
      <trkpt lat="47.73581" lon="0.52471">
        <ele>55.23877</ele>
        <time>2016-10-09T07:18:38Z</time>
      </trkpt>
      <trkpt lat="47.73579" lon="0.52464">
        <ele>55.209106</ele>
        <time>2016-10-09T07:18:42Z</time>
      </trkpt>
      <trkpt lat="47.73576" lon="0.52456">
        <ele>55.179504</ele>
        <time>2016-10-09T07:18:46Z</time>
      </trkpt>
      <trkpt lat="47.73575" lon="0.5245">
        <ele>55.200195</ele>
        <time>2016-10-09T07:18:51Z</time>
      </trkpt>
      <trkpt lat="47.73574" lon="0.52441">
        <ele>55.235046</ele>
        <time>2016-10-09T07:18:56Z</time>
      </trkpt>
      <trkpt lat="47.73573" lon="0.52434">
        <ele>55.275757</ele>
        <time>2016-10-09T07:18:59Z</time>
      </trkpt>
      <trkpt lat="47.73572" lon="0.52425">
        <ele>55.333862</ele>
        <time>2016-10-09T07:19:03Z</time>
      </trkpt>
      <trkpt lat="47.73569" lon="0.52416">
        <ele>55.311863</ele>
        <time>2016-10-09T07:19:08Z</time>
      </trkpt>
      <trkpt lat="47.73567" lon="0.52405">
        <ele>54.790108</ele>
        <time>2016-10-09T07:19:20Z</time>
      </trkpt>
      <trkpt lat="47.73564" lon="0.52397">
        <ele>54.405689</ele>
        <time>2016-10-09T07:19:25Z</time>
      </trkpt>
      <trkpt lat="47.73562" lon="0.5239">
        <ele>54.089813</ele>
        <time>2016-10-09T07:19:28Z</time>
      </trkpt>
      <trkpt lat="47.73559" lon="0.52383">
        <ele>53.818291</ele>
        <time>2016-10-09T07:19:31Z</time>
      </trkpt>
      <trkpt lat="47.73557" lon="0.52371">
        <ele>53.422218</ele>
        <time>2016-10-09T07:19:35Z</time>
      </trkpt>
      <trkpt lat="47.73555" lon="0.52362">
        <ele>53.129097</ele>
        <time>2016-10-09T07:19:39Z</time>
      </trkpt>
      <trkpt lat="47.73552" lon="0.52353">
        <ele>52.86454</ele>
        <time>2016-10-09T07:19:45Z</time>
      </trkpt>
      <trkpt lat="47.73552" lon="0.52346">
        <ele>52.689026</ele>
        <time>2016-10-09T07:19:50Z</time>
      </trkpt>
      <trkpt lat="47.73551" lon="0.52339">
        <ele>52.513687</ele>
        <time>2016-10-09T07:19:55Z</time>
      </trkpt>
      <trkpt lat="47.73549" lon="0.52331">
        <ele>52.417999</ele>
        <time>2016-10-09T07:20:01Z</time>
      </trkpt>
      <trkpt lat="47.73546" lon="0.52324">
        <ele>52.496506</ele>
        <time>2016-10-09T07:20:07Z</time>
      </trkpt>
      <trkpt lat="47.73541" lon="0.52311">
        <ele>52.64502</ele>
        <time>2016-10-09T07:20:12Z</time>
      </trkpt>
      <trkpt lat="47.73536" lon="0.52304">
        <ele>52.767868</ele>
        <time>2016-10-09T07:20:15Z</time>
      </trkpt>
      <trkpt lat="47.73532" lon="0.52298">
        <ele>52.882427</ele>
        <time>2016-10-09T07:20:19Z</time>
      </trkpt>
      <trkpt lat="47.73529" lon="0.5229">
        <ele>52.985725</ele>
        <time>2016-10-09T07:20:24Z</time>
      </trkpt>
      <trkpt lat="47.73528" lon="0.52281">
        <ele>53.076862</ele>
        <time>2016-10-09T07:20:27Z</time>
      </trkpt>
      <trkpt lat="47.73531" lon="0.52263">
        <ele>53.156872</ele>
        <time>2016-10-09T07:20:35Z</time>
      </trkpt>
      <trkpt lat="47.7353" lon="0.52253">
        <ele>53.24715</ele>
        <time>2016-10-09T07:20:41Z</time>
      </trkpt>
      <trkpt lat="47.7353" lon="0.52245">
        <ele>53.37001</ele>
        <time>2016-10-09T07:20:47Z</time>
      </trkpt>
      <trkpt lat="47.73528" lon="0.52235">
        <ele>53.568047</ele>
        <time>2016-10-09T07:20:50Z</time>
      </trkpt>
      <trkpt lat="47.73522" lon="0.52218">
        <ele>53.881245</ele>
        <time>2016-10-09T07:20:54Z</time>
      </trkpt>
      <trkpt lat="47.73518" lon="0.5221">
        <ele>53.981468</ele>
        <time>2016-10-09T07:20:57Z</time>
      </trkpt>
      <trkpt lat="47.73516" lon="0.522">
        <ele>54.07476</ele>
        <time>2016-10-09T07:21:01Z</time>
      </trkpt>
      <trkpt lat="47.73515" lon="0.52194">
        <ele>54.125008</ele>
        <time>2016-10-09T07:21:04Z</time>
      </trkpt>
      <trkpt lat="47.73513" lon="0.52185">
        <ele>54.181236</ele>
        <time>2016-10-09T07:21:10Z</time>
      </trkpt>
      <trkpt lat="47.73512" lon="0.52177">
        <ele>54.221767</ele>
        <time>2016-10-09T07:21:14Z</time>
      </trkpt>
      <trkpt lat="47.73511" lon="0.52164">
        <ele>54.257595</ele>
        <time>2016-10-09T07:21:19Z</time>
      </trkpt>
      <trkpt lat="47.73509" lon="0.52156">
        <ele>54.233692</ele>
        <time>2016-10-09T07:21:23Z</time>
      </trkpt>
      <trkpt lat="47.73508" lon="0.52149">
        <ele>54.20266</ele>
        <time>2016-10-09T07:21:27Z</time>
      </trkpt>
      <trkpt lat="47.73506" lon="0.52137">
        <ele>54.174511</ele>
        <time>2016-10-09T07:21:34Z</time>
      </trkpt>
      <trkpt lat="47.73506" lon="0.52129">
        <ele>54.162968</ele>
        <time>2016-10-09T07:21:37Z</time>
      </trkpt>
      <trkpt lat="47.73505" lon="0.52121">
        <ele>54.155453</ele>
        <time>2016-10-09T07:21:41Z</time>
      </trkpt>
      <trkpt lat="47.73504" lon="0.52112">
        <ele>54.126839</ele>
        <time>2016-10-09T07:21:45Z</time>
      </trkpt>
      <trkpt lat="47.73502" lon="0.52105">
        <ele>54.060455</ele>
        <time>2016-10-09T07:21:49Z</time>
      </trkpt>
      <trkpt lat="47.735" lon="0.52096">
        <ele>53.999718</ele>
        <time>2016-10-09T07:21:53Z</time>
      </trkpt>
      <trkpt lat="47.73499" lon="0.52088">
        <ele>53.963238</ele>
        <time>2016-10-09T07:21:56Z</time>
      </trkpt>
      <trkpt lat="47.73498" lon="0.5208">
        <ele>53.868511</ele>
        <time>2016-10-09T07:22:00Z</time>
      </trkpt>
      <trkpt lat="47.73496" lon="0.5207">
        <ele>53.587597</ele>
        <time>2016-10-09T07:22:04Z</time>
      </trkpt>
      <trkpt lat="47.73494" lon="0.52062">
        <ele>53.371166</ele>
        <time>2016-10-09T07:22:08Z</time>
      </trkpt>
      <trkpt lat="47.73492" lon="0.52056">
        <ele>53.175404</ele>
        <time>2016-10-09T07:22:12Z</time>
      </trkpt>
      <trkpt lat="47.73492" lon="0.52047">
        <ele>52.978226</ele>
        <time>2016-10-09T07:22:16Z</time>
      </trkpt>
      <trkpt lat="47.7349" lon="0.52039">
        <ele>52.753151</ele>
        <time>2016-10-09T07:22:20Z</time>
      </trkpt>
      <trkpt lat="47.73487" lon="0.52031">
        <ele>52.534328</ele>
        <time>2016-10-09T07:22:24Z</time>
      </trkpt>
      <trkpt lat="47.73485" lon="0.52025">
        <ele>52.366013</ele>
        <time>2016-10-09T07:22:28Z</time>
      </trkpt>
      <trkpt lat="47.73484" lon="0.52018">
        <ele>52.200935</ele>
        <time>2016-10-09T07:22:32Z</time>
      </trkpt>
      <trkpt lat="47.73482" lon="0.5201">
        <ele>52.000534</ele>
        <time>2016-10-09T07:22:36Z</time>
      </trkpt>
      <trkpt lat="47.73479" lon="0.52003">
        <ele>51.807804</ele>
        <time>2016-10-09T07:22:40Z</time>
      </trkpt>
      <trkpt lat="47.73478" lon="0.51996">
        <ele>51.691708</ele>
        <time>2016-10-09T07:22:44Z</time>
      </trkpt>
      <trkpt lat="47.73476" lon="0.51988">
        <ele>51.607159</ele>
        <time>2016-10-09T07:22:48Z</time>
      </trkpt>
      <trkpt lat="47.73475" lon="0.5198">
        <ele>51.534267</ele>
        <time>2016-10-09T07:22:52Z</time>
      </trkpt>
      <trkpt lat="47.73472" lon="0.51969">
        <ele>51.422329</ele>
        <time>2016-10-09T07:22:57Z</time>
      </trkpt>
      <trkpt lat="47.73471" lon="0.51963">
        <ele>51.360203</ele>
        <time>2016-10-09T07:23:00Z</time>
      </trkpt>
      <trkpt lat="47.73469" lon="0.51956">
        <ele>51.29195</ele>
        <time>2016-10-09T07:23:04Z</time>
      </trkpt>
      <trkpt lat="47.73467" lon="0.51947">
        <ele>51.218906</ele>
        <time>2016-10-09T07:23:08Z</time>
      </trkpt>
      <trkpt lat="47.73465" lon="0.51939">
        <ele>51.154587</ele>
        <time>2016-10-09T07:23:12Z</time>
      </trkpt>
      <trkpt lat="47.73464" lon="0.51932">
        <ele>51.102852</ele>
        <time>2016-10-09T07:23:15Z</time>
      </trkpt>
      <trkpt lat="47.73461" lon="0.51925">
        <ele>51.052689</ele>
        <time>2016-10-09T07:23:19Z</time>
      </trkpt>
      <trkpt lat="47.73458" lon="0.51917">
        <ele>51.001896</ele>
        <time>2016-10-09T07:23:25Z</time>
      </trkpt>
      <trkpt lat="47.73456" lon="0.5191">
        <ele>51.086304</ele>
        <time>2016-10-09T07:23:30Z</time>
      </trkpt>
      <trkpt lat="47.73454" lon="0.51901">
        <ele>51.183838</ele>
        <time>2016-10-09T07:23:34Z</time>
      </trkpt>
      <trkpt lat="47.73453" lon="0.51893">
        <ele>51.286011</ele>
        <time>2016-10-09T07:23:38Z</time>
      </trkpt>
      <trkpt lat="47.73452" lon="0.51886">
        <ele>51.363403</ele>
        <time>2016-10-09T07:23:42Z</time>
      </trkpt>
      <trkpt lat="47.7345" lon="0.5188">
        <ele>51.442505</ele>
        <time>2016-10-09T07:23:46Z</time>
      </trkpt>
      <trkpt lat="47.73448" lon="0.51871">
        <ele>51.551941</ele>
        <time>2016-10-09T07:23:50Z</time>
      </trkpt>
      <trkpt lat="47.73447" lon="0.51864">
        <ele>51.634644</ele>
        <time>2016-10-09T07:23:54Z</time>
      </trkpt>
      <trkpt lat="47.73445" lon="0.51855">
        <ele>51.743713</ele>
        <time>2016-10-09T07:23:58Z</time>
      </trkpt>
      <trkpt lat="47.73445" lon="0.51847">
        <ele>51.840393</ele>
        <time>2016-10-09T07:24:02Z</time>
      </trkpt>
      <trkpt lat="47.73443" lon="0.51839">
        <ele>51.932617</ele>
        <time>2016-10-09T07:24:07Z</time>
      </trkpt>
      <trkpt lat="47.73441" lon="0.51833">
        <ele>51.991482</ele>
        <time>2016-10-09T07:24:10Z</time>
      </trkpt>
      <trkpt lat="47.7344" lon="0.51824">
        <ele>51.910461</ele>
        <time>2016-10-09T07:24:14Z</time>
      </trkpt>
      <trkpt lat="47.73438" lon="0.51817">
        <ele>51.851151</ele>
        <time>2016-10-09T07:24:18Z</time>
      </trkpt>
      <trkpt lat="47.73436" lon="0.51809">
        <ele>51.788784</ele>
        <time>2016-10-09T07:24:21Z</time>
      </trkpt>
      <trkpt lat="47.73436" lon="0.518">
        <ele>51.731056</ele>
        <time>2016-10-09T07:24:25Z</time>
      </trkpt>
      <trkpt lat="47.73434" lon="0.51794">
        <ele>51.698425</ele>
        <time>2016-10-09T07:24:28Z</time>
      </trkpt>
      <trkpt lat="47.73433" lon="0.51786">
        <ele>51.666561</ele>
        <time>2016-10-09T07:24:32Z</time>
      </trkpt>
      <trkpt lat="47.73431" lon="0.51779">
        <ele>51.660255</ele>
        <time>2016-10-09T07:24:36Z</time>
      </trkpt>
      <trkpt lat="47.73429" lon="0.51771">
        <ele>51.660137</ele>
        <time>2016-10-09T07:24:41Z</time>
      </trkpt>
      <trkpt lat="47.73427" lon="0.51763">
        <ele>51.696793</ele>
        <time>2016-10-09T07:24:45Z</time>
      </trkpt>
      <trkpt lat="47.73425" lon="0.51753">
        <ele>51.704704</ele>
        <time>2016-10-09T07:24:49Z</time>
      </trkpt>
      <trkpt lat="47.73424" lon="0.51746">
        <ele>51.928909</ele>
        <time>2016-10-09T07:24:53Z</time>
      </trkpt>
      <trkpt lat="47.73423" lon="0.51738">
        <ele>52.327408</ele>
        <time>2016-10-09T07:24:57Z</time>
      </trkpt>
      <trkpt lat="47.73421" lon="0.51731">
        <ele>52.694145</ele>
        <time>2016-10-09T07:25:01Z</time>
      </trkpt>
      <trkpt lat="47.7342" lon="0.51725">
        <ele>53.072983</ele>
        <time>2016-10-09T07:25:05Z</time>
      </trkpt>
      <trkpt lat="47.73418" lon="0.51718">
        <ele>53.456333</ele>
        <time>2016-10-09T07:25:09Z</time>
      </trkpt>
      <trkpt lat="47.73417" lon="0.51711">
        <ele>53.86758</ele>
        <time>2016-10-09T07:25:14Z</time>
      </trkpt>
      <trkpt lat="47.73416" lon="0.51703">
        <ele>54.173443</ele>
        <time>2016-10-09T07:25:18Z</time>
      </trkpt>
      <trkpt lat="47.73413" lon="0.51693">
        <ele>54.438072</ele>
        <time>2016-10-09T07:25:26Z</time>
      </trkpt>
      <trkpt lat="47.73412" lon="0.51686">
        <ele>54.717953</ele>
        <time>2016-10-09T07:25:30Z</time>
      </trkpt>
      <trkpt lat="47.7341" lon="0.51674">
        <ele>55.040668</ele>
        <time>2016-10-09T07:25:34Z</time>
      </trkpt>
      <trkpt lat="47.73408" lon="0.51666">
        <ele>55.165966</ele>
        <time>2016-10-09T07:25:38Z</time>
      </trkpt>
      <trkpt lat="47.73406" lon="0.5166">
        <ele>54.667042</ele>
        <time>2016-10-09T07:25:42Z</time>
      </trkpt>
      <trkpt lat="47.73405" lon="0.51653">
        <ele>54.140869</ele>
        <time>2016-10-09T07:25:46Z</time>
      </trkpt>
      <trkpt lat="47.73403" lon="0.51644">
        <ele>53.535248</ele>
        <time>2016-10-09T07:25:50Z</time>
      </trkpt>
      <trkpt lat="47.73401" lon="0.51638">
        <ele>53.09156</ele>
        <time>2016-10-09T07:25:54Z</time>
      </trkpt>
      <trkpt lat="47.734" lon="0.5163">
        <ele>52.632736</ele>
        <time>2016-10-09T07:25:58Z</time>
      </trkpt>
      <trkpt lat="47.73398" lon="0.51623">
        <ele>52.153774</ele>
        <time>2016-10-09T07:26:03Z</time>
      </trkpt>
      <trkpt lat="47.73396" lon="0.51615">
        <ele>51.682549</ele>
        <time>2016-10-09T07:26:07Z</time>
      </trkpt>
      <trkpt lat="47.73395" lon="0.51607">
        <ele>51.252022</ele>
        <time>2016-10-09T07:26:11Z</time>
      </trkpt>
      <trkpt lat="47.73393" lon="0.51598">
        <ele>50.788574</ele>
        <time>2016-10-09T07:26:15Z</time>
      </trkpt>
      <trkpt lat="47.73392" lon="0.51591">
        <ele>50.399559</ele>
        <time>2016-10-09T07:26:19Z</time>
      </trkpt>
      <trkpt lat="47.73389" lon="0.51584">
        <ele>50.022358</ele>
        <time>2016-10-09T07:26:23Z</time>
      </trkpt>
      <trkpt lat="47.73387" lon="0.51577">
        <ele>50.004028</ele>
        <time>2016-10-09T07:26:27Z</time>
      </trkpt>
      <trkpt lat="47.73385" lon="0.5157">
        <ele>50.037666</ele>
        <time>2016-10-09T07:26:31Z</time>
      </trkpt>
      <trkpt lat="47.73383" lon="0.51561">
        <ele>50.114288</ele>
        <time>2016-10-09T07:26:35Z</time>
      </trkpt>
      <trkpt lat="47.73382" lon="0.51553">
        <ele>50.21563</ele>
        <time>2016-10-09T07:26:39Z</time>
      </trkpt>
      <trkpt lat="47.7338" lon="0.51543">
        <ele>50.317734</ele>
        <time>2016-10-09T07:26:43Z</time>
      </trkpt>
      <trkpt lat="47.73379" lon="0.51536">
        <ele>50.410244</ele>
        <time>2016-10-09T07:26:48Z</time>
      </trkpt>
      <trkpt lat="47.73376" lon="0.51527">
        <ele>50.536392</ele>
        <time>2016-10-09T07:26:55Z</time>
      </trkpt>
      <trkpt lat="47.73373" lon="0.51517">
        <ele>50.676712</ele>
        <time>2016-10-09T07:26:59Z</time>
      </trkpt>
      <trkpt lat="47.73372" lon="0.51508">
        <ele>50.83989</ele>
        <time>2016-10-09T07:27:03Z</time>
      </trkpt>
      <trkpt lat="47.7337" lon="0.51501">
        <ele>50.982826</ele>
        <time>2016-10-09T07:27:07Z</time>
      </trkpt>
      <trkpt lat="47.73368" lon="0.51492">
        <ele>51.100586</ele>
        <time>2016-10-09T07:27:11Z</time>
      </trkpt>
      <trkpt lat="47.73366" lon="0.51483">
        <ele>51.200012</ele>
        <time>2016-10-09T07:27:15Z</time>
      </trkpt>
      <trkpt lat="47.73364" lon="0.51475">
        <ele>51.298523</ele>
        <time>2016-10-09T07:27:19Z</time>
      </trkpt>
      <trkpt lat="47.73363" lon="0.51467">
        <ele>51.392334</ele>
        <time>2016-10-09T07:27:23Z</time>
      </trkpt>
      <trkpt lat="47.73361" lon="0.5146">
        <ele>51.481018</ele>
        <time>2016-10-09T07:27:27Z</time>
      </trkpt>
      <trkpt lat="47.7336" lon="0.51453">
        <ele>51.560608</ele>
        <time>2016-10-09T07:27:30Z</time>
      </trkpt>
      <trkpt lat="47.73358" lon="0.51444">
        <ele>51.67688</ele>
        <time>2016-10-09T07:27:34Z</time>
      </trkpt>
      <trkpt lat="47.73357" lon="0.51436">
        <ele>51.766418</ele>
        <time>2016-10-09T07:27:38Z</time>
      </trkpt>
      <trkpt lat="47.73356" lon="0.51429">
        <ele>51.849548</ele>
        <time>2016-10-09T07:27:42Z</time>
      </trkpt>
      <trkpt lat="47.73356" lon="0.51422">
        <ele>51.940491</ele>
        <time>2016-10-09T07:27:46Z</time>
      </trkpt>
      <trkpt lat="47.73358" lon="0.51415">
        <ele>52.016052</ele>
        <time>2016-10-09T07:27:50Z</time>
      </trkpt>
      <trkpt lat="47.73362" lon="0.51411">
        <ele>52.06366</ele>
        <time>2016-10-09T07:27:54Z</time>
      </trkpt>
      <trkpt lat="47.73366" lon="0.51408">
        <ele>52.104065</ele>
        <time>2016-10-09T07:27:58Z</time>
      </trkpt>
      <trkpt lat="47.73371" lon="0.51404">
        <ele>52.152222</ele>
        <time>2016-10-09T07:28:02Z</time>
      </trkpt>
      <trkpt lat="47.73376" lon="0.51399">
        <ele>52.207642</ele>
        <time>2016-10-09T07:28:06Z</time>
      </trkpt>
      <trkpt lat="47.73382" lon="0.51395">
        <ele>52.265686</ele>
        <time>2016-10-09T07:28:11Z</time>
      </trkpt>
      <trkpt lat="47.73387" lon="0.51392">
        <ele>52.293396</ele>
        <time>2016-10-09T07:28:16Z</time>
      </trkpt>
      <trkpt lat="47.73392" lon="0.51391">
        <ele>52.304504</ele>
        <time>2016-10-09T07:28:21Z</time>
      </trkpt>
      <trkpt lat="47.73398" lon="0.5139">
        <ele>52.320251</ele>
        <time>2016-10-09T07:28:28Z</time>
      </trkpt>
      <trkpt lat="47.73403" lon="0.51388">
        <ele>52.344238</ele>
        <time>2016-10-09T07:28:32Z</time>
      </trkpt>
      <trkpt lat="47.7341" lon="0.51387">
        <ele>52.353577</ele>
        <time>2016-10-09T07:28:36Z</time>
      </trkpt>
      <trkpt lat="47.73415" lon="0.51387">
        <ele>52.362427</ele>
        <time>2016-10-09T07:28:40Z</time>
      </trkpt>
      <trkpt lat="47.7342" lon="0.51387">
        <ele>52.370609</ele>
        <time>2016-10-09T07:28:44Z</time>
      </trkpt>
      <trkpt lat="47.73427" lon="0.5139">
        <ele>52.363102</ele>
        <time>2016-10-09T07:28:49Z</time>
      </trkpt>
      <trkpt lat="47.73434" lon="0.51391">
        <ele>52.372551</ele>
        <time>2016-10-09T07:28:52Z</time>
      </trkpt>
      <trkpt lat="47.7344" lon="0.51392">
        <ele>52.376625</ele>
        <time>2016-10-09T07:28:58Z</time>
      </trkpt>
      <trkpt lat="47.73446" lon="0.51392">
        <ele>52.395336</ele>
        <time>2016-10-09T07:29:01Z</time>
      </trkpt>
      <trkpt lat="47.73451" lon="0.51393">
        <ele>52.403046</ele>
        <time>2016-10-09T07:29:05Z</time>
      </trkpt>
      <trkpt lat="47.73456" lon="0.51396">
        <ele>52.372261</ele>
        <time>2016-10-09T07:29:10Z</time>
      </trkpt>
      <trkpt lat="47.73462" lon="0.51398">
        <ele>52.355007</ele>
        <time>2016-10-09T07:29:15Z</time>
      </trkpt>
      <trkpt lat="47.73468" lon="0.51398">
        <ele>52.370422</ele>
        <time>2016-10-09T07:29:19Z</time>
      </trkpt>
      <trkpt lat="47.73472" lon="0.51396">
        <ele>52.409252</ele>
        <time>2016-10-09T07:29:22Z</time>
      </trkpt>
      <trkpt lat="47.73479" lon="0.51394">
        <ele>52.474171</ele>
        <time>2016-10-09T07:29:26Z</time>
      </trkpt>
      <trkpt lat="47.73486" lon="0.51394">
        <ele>52.491455</ele>
        <time>2016-10-09T07:29:31Z</time>
      </trkpt>
      <trkpt lat="47.73492" lon="0.51395">
        <ele>52.487766</ele>
        <time>2016-10-09T07:29:35Z</time>
      </trkpt>
      <trkpt lat="47.73498" lon="0.51396">
        <ele>52.482887</ele>
        <time>2016-10-09T07:29:39Z</time>
      </trkpt>
      <trkpt lat="47.73503" lon="0.51397">
        <ele>52.467285</ele>
        <time>2016-10-09T07:29:43Z</time>
      </trkpt>
      <trkpt lat="47.73508" lon="0.51397">
        <ele>52.461548</ele>
        <time>2016-10-09T07:29:46Z</time>
      </trkpt>
      <trkpt lat="47.73514" lon="0.51398">
        <ele>52.454102</ele>
        <time>2016-10-09T07:29:50Z</time>
      </trkpt>
      <trkpt lat="47.73518" lon="0.51398">
        <ele>52.458862</ele>
        <time>2016-10-09T07:29:54Z</time>
      </trkpt>
      <trkpt lat="47.73523" lon="0.51398">
        <ele>52.452148</ele>
        <time>2016-10-09T07:29:58Z</time>
      </trkpt>
      <trkpt lat="47.73529" lon="0.51398">
        <ele>52.444336</ele>
        <time>2016-10-09T07:30:02Z</time>
      </trkpt>
      <trkpt lat="47.73534" lon="0.51397">
        <ele>52.468262</ele>
        <time>2016-10-09T07:30:06Z</time>
      </trkpt>
      <trkpt lat="47.7354" lon="0.51398">
        <ele>52.441162</ele>
        <time>2016-10-09T07:30:10Z</time>
      </trkpt>
      <trkpt lat="47.73546" lon="0.514">
        <ele>52.401733</ele>
        <time>2016-10-09T07:30:14Z</time>
      </trkpt>
      <trkpt lat="47.73551" lon="0.51402">
        <ele>52.362427</ele>
        <time>2016-10-09T07:30:18Z</time>
      </trkpt>
      <trkpt lat="47.73556" lon="0.51401">
        <ele>52.370728</ele>
        <time>2016-10-09T07:30:22Z</time>
      </trkpt>
      <trkpt lat="47.73561" lon="0.51401">
        <ele>52.37085</ele>
        <time>2016-10-09T07:30:26Z</time>
      </trkpt>
      <trkpt lat="47.73566" lon="0.51401">
        <ele>52.369019</ele>
        <time>2016-10-09T07:30:30Z</time>
      </trkpt>
      <trkpt lat="47.73571" lon="0.51402">
        <ele>52.345947</ele>
        <time>2016-10-09T07:30:34Z</time>
      </trkpt>
      <trkpt lat="47.73575" lon="0.51401">
        <ele>52.365845</ele>
        <time>2016-10-09T07:30:38Z</time>
      </trkpt>
      <trkpt lat="47.73581" lon="0.51401">
        <ele>52.378418</ele>
        <time>2016-10-09T07:30:42Z</time>
      </trkpt>
      <trkpt lat="47.73586" lon="0.51401">
        <ele>52.440498</ele>
        <time>2016-10-09T07:30:46Z</time>
      </trkpt>
      <trkpt lat="47.73595" lon="0.51401">
        <ele>52.596951</ele>
        <time>2016-10-09T07:30:51Z</time>
      </trkpt>
      <trkpt lat="47.73601" lon="0.514">
        <ele>52.724464</ele>
        <time>2016-10-09T07:30:56Z</time>
      </trkpt>
      <trkpt lat="47.73608" lon="0.51401">
        <ele>52.856228</ele>
        <time>2016-10-09T07:31:00Z</time>
      </trkpt>
      <trkpt lat="47.73613" lon="0.514">
        <ele>52.963749</ele>
        <time>2016-10-09T07:31:05Z</time>
      </trkpt>
      <trkpt lat="47.73619" lon="0.514">
        <ele>53.086246</ele>
        <time>2016-10-09T07:31:09Z</time>
      </trkpt>
      <trkpt lat="47.73624" lon="0.514">
        <ele>53.18972</ele>
        <time>2016-10-09T07:31:13Z</time>
      </trkpt>
      <trkpt lat="47.73631" lon="0.514">
        <ele>53.304543</ele>
        <time>2016-10-09T07:31:18Z</time>
      </trkpt>
      <trkpt lat="47.73637" lon="0.51402">
        <ele>53.410088</ele>
        <time>2016-10-09T07:31:22Z</time>
      </trkpt>
      <trkpt lat="47.73643" lon="0.51403">
        <ele>53.528027</ele>
        <time>2016-10-09T07:31:26Z</time>
      </trkpt>
      <trkpt lat="47.73649" lon="0.51403">
        <ele>53.641933</ele>
        <time>2016-10-09T07:31:30Z</time>
      </trkpt>
      <trkpt lat="47.73654" lon="0.51404">
        <ele>53.742184</ele>
        <time>2016-10-09T07:31:33Z</time>
      </trkpt>
      <trkpt lat="47.73659" lon="0.51404">
        <ele>53.836792</ele>
        <time>2016-10-09T07:31:36Z</time>
      </trkpt>
      <trkpt lat="47.73664" lon="0.51405">
        <ele>53.945427</ele>
        <time>2016-10-09T07:31:40Z</time>
      </trkpt>
      <trkpt lat="47.7367" lon="0.51406">
        <ele>54</ele>
        <time>2016-10-09T07:31:46Z</time>
      </trkpt>
      <trkpt lat="47.73675" lon="0.51406">
        <ele>54</ele>
        <time>2016-10-09T07:31:52Z</time>
      </trkpt>
      <trkpt lat="47.73681" lon="0.51407">
        <ele>54</ele>
        <time>2016-10-09T07:31:56Z</time>
      </trkpt>
      <trkpt lat="47.73688" lon="0.5141">
        <ele>54</ele>
        <time>2016-10-09T07:32:00Z</time>
      </trkpt>
      <trkpt lat="47.73693" lon="0.5141">
        <ele>54</ele>
        <time>2016-10-09T07:32:03Z</time>
      </trkpt>
      <trkpt lat="47.73698" lon="0.51412">
        <ele>54</ele>
        <time>2016-10-09T07:32:07Z</time>
      </trkpt>
      <trkpt lat="47.73706" lon="0.51412">
        <ele>54</ele>
        <time>2016-10-09T07:32:12Z</time>
      </trkpt>
      <trkpt lat="47.7371" lon="0.51412">
        <ele>54</ele>
        <time>2016-10-09T07:32:15Z</time>
      </trkpt>
      <trkpt lat="47.73717" lon="0.51412">
        <ele>54</ele>
        <time>2016-10-09T07:32:19Z</time>
      </trkpt>
      <trkpt lat="47.73722" lon="0.51411">
        <ele>54</ele>
        <time>2016-10-09T07:32:22Z</time>
      </trkpt>
      <trkpt lat="47.73727" lon="0.51412">
        <ele>54</ele>
        <time>2016-10-09T07:32:26Z</time>
      </trkpt>
      <trkpt lat="47.73733" lon="0.51413">
        <ele>54</ele>
        <time>2016-10-09T07:32:30Z</time>
      </trkpt>
      <trkpt lat="47.73739" lon="0.51413">
        <ele>54</ele>
        <time>2016-10-09T07:32:35Z</time>
      </trkpt>
      <trkpt lat="47.73744" lon="0.51412">
        <ele>54</ele>
        <time>2016-10-09T07:32:38Z</time>
      </trkpt>
      <trkpt lat="47.7375" lon="0.51413">
        <ele>54</ele>
        <time>2016-10-09T07:32:42Z</time>
      </trkpt>
      <trkpt lat="47.73755" lon="0.51413">
        <ele>53.948544</ele>
        <time>2016-10-09T07:32:46Z</time>
      </trkpt>
      <trkpt lat="47.7376" lon="0.51413">
        <ele>53.884682</ele>
        <time>2016-10-09T07:32:51Z</time>
      </trkpt>
      <trkpt lat="47.73766" lon="0.51413">
        <ele>53.818626</ele>
        <time>2016-10-09T07:32:55Z</time>
      </trkpt>
      <trkpt lat="47.7377" lon="0.51413">
        <ele>53.764961</ele>
        <time>2016-10-09T07:32:58Z</time>
      </trkpt>
      <trkpt lat="47.73777" lon="0.51414">
        <ele>53.691517</ele>
        <time>2016-10-09T07:33:02Z</time>
      </trkpt>
      <trkpt lat="47.73784" lon="0.51413">
        <ele>53.611092</ele>
        <time>2016-10-09T07:33:07Z</time>
      </trkpt>
      <trkpt lat="47.73789" lon="0.51412">
        <ele>53.558529</ele>
        <time>2016-10-09T07:33:10Z</time>
      </trkpt>
      <trkpt lat="47.73795" lon="0.51414">
        <ele>53.479652</ele>
        <time>2016-10-09T07:33:16Z</time>
      </trkpt>
      <trkpt lat="47.73801" lon="0.51413">
        <ele>53.41573</ele>
        <time>2016-10-09T07:33:21Z</time>
      </trkpt>
      <trkpt lat="47.73805" lon="0.51412">
        <ele>53.370762</ele>
        <time>2016-10-09T07:33:24Z</time>
      </trkpt>
      <trkpt lat="47.73811" lon="0.51412">
        <ele>53.306351</ele>
        <time>2016-10-09T07:33:30Z</time>
      </trkpt>
      <trkpt lat="47.73817" lon="0.51413">
        <ele>53.238636</ele>
        <time>2016-10-09T07:33:36Z</time>
      </trkpt>
      <trkpt lat="47.73824" lon="0.51412">
        <ele>53.165543</ele>
        <time>2016-10-09T07:33:39Z</time>
      </trkpt>
      <trkpt lat="47.73833" lon="0.51412">
        <ele>53.054672</ele>
        <time>2016-10-09T07:33:43Z</time>
      </trkpt>
      <trkpt lat="47.73839" lon="0.51412">
        <ele>53.24662</ele>
        <time>2016-10-09T07:33:47Z</time>
      </trkpt>
      <trkpt lat="47.73845" lon="0.51413">
        <ele>53.440838</ele>
        <time>2016-10-09T07:33:51Z</time>
      </trkpt>
      <trkpt lat="47.73851" lon="0.51413">
        <ele>53.663521</ele>
        <time>2016-10-09T07:33:56Z</time>
      </trkpt>
      <trkpt lat="47.73857" lon="0.51414">
        <ele>53.870777</ele>
        <time>2016-10-09T07:33:59Z</time>
      </trkpt>
      <trkpt lat="47.73864" lon="0.51414">
        <ele>54.12785</ele>
        <time>2016-10-09T07:34:03Z</time>
      </trkpt>
      <trkpt lat="47.73869" lon="0.51415">
        <ele>54.302696</ele>
        <time>2016-10-09T07:34:07Z</time>
      </trkpt>
      <trkpt lat="47.73876" lon="0.51417">
        <ele>54.538151</ele>
        <time>2016-10-09T07:34:13Z</time>
      </trkpt>
      <trkpt lat="47.73881" lon="0.51418">
        <ele>54.728798</ele>
        <time>2016-10-09T07:34:18Z</time>
      </trkpt>
      <trkpt lat="47.73886" lon="0.51418">
        <ele>54.890457</ele>
        <time>2016-10-09T07:34:21Z</time>
      </trkpt>
      <trkpt lat="47.73892" lon="0.51418">
        <ele>55.112541</ele>
        <time>2016-10-09T07:34:25Z</time>
      </trkpt>
      <trkpt lat="47.73897" lon="0.51419">
        <ele>55.275032</ele>
        <time>2016-10-09T07:34:28Z</time>
      </trkpt>
      <trkpt lat="47.73903" lon="0.51419">
        <ele>55.48439</ele>
        <time>2016-10-09T07:34:32Z</time>
      </trkpt>
      <trkpt lat="47.73909" lon="0.5142">
        <ele>55.686485</ele>
        <time>2016-10-09T07:34:39Z</time>
      </trkpt>
      <trkpt lat="47.73914" lon="0.51421">
        <ele>55.845711</ele>
        <time>2016-10-09T07:34:45Z</time>
      </trkpt>
      <trkpt lat="47.73919" lon="0.51421">
        <ele>56.099976</ele>
        <time>2016-10-09T07:34:49Z</time>
      </trkpt>
      <trkpt lat="47.73924" lon="0.5142">
        <ele>56.404671</ele>
        <time>2016-10-09T07:34:53Z</time>
      </trkpt>
      <trkpt lat="47.7393" lon="0.51418">
        <ele>56.7966</ele>
        <time>2016-10-09T07:34:57Z</time>
      </trkpt>
      <trkpt lat="47.73936" lon="0.51418">
        <ele>57.146732</ele>
        <time>2016-10-09T07:35:02Z</time>
      </trkpt>
      <trkpt lat="47.73943" lon="0.51418">
        <ele>57.528786</ele>
        <time>2016-10-09T07:35:06Z</time>
      </trkpt>
      <trkpt lat="47.73947" lon="0.51418">
        <ele>57.808311</ele>
        <time>2016-10-09T07:35:09Z</time>
      </trkpt>
      <trkpt lat="47.73952" lon="0.51419">
        <ele>58.08931</ele>
        <time>2016-10-09T07:35:13Z</time>
      </trkpt>
      <trkpt lat="47.73958" lon="0.51419">
        <ele>58.434406</ele>
        <time>2016-10-09T07:35:19Z</time>
      </trkpt>
      <trkpt lat="47.73963" lon="0.5142">
        <ele>58.714989</ele>
        <time>2016-10-09T07:35:25Z</time>
      </trkpt>
      <trkpt lat="47.73969" lon="0.5142">
        <ele>59.047813</ele>
        <time>2016-10-09T07:35:30Z</time>
      </trkpt>
      <trkpt lat="47.73975" lon="0.51421">
        <ele>59.381508</ele>
        <time>2016-10-09T07:35:36Z</time>
      </trkpt>
      <trkpt lat="47.73979" lon="0.51422">
        <ele>59.626976</ele>
        <time>2016-10-09T07:35:40Z</time>
      </trkpt>
      <trkpt lat="47.73987" lon="0.51422">
        <ele>60.076347</ele>
        <time>2016-10-09T07:35:44Z</time>
      </trkpt>
      <trkpt lat="47.73993" lon="0.51421">
        <ele>60.475986</ele>
        <time>2016-10-09T07:35:50Z</time>
      </trkpt>
      <trkpt lat="47.73999" lon="0.51419">
        <ele>60.889645</ele>
        <time>2016-10-09T07:35:53Z</time>
      </trkpt>
      <trkpt lat="47.74004" lon="0.51419">
        <ele>61.08794</ele>
        <time>2016-10-09T07:35:56Z</time>
      </trkpt>
      <trkpt lat="47.74013" lon="0.51419">
        <ele>61.402466</ele>
        <time>2016-10-09T07:36:00Z</time>
      </trkpt>
      <trkpt lat="47.74018" lon="0.51419">
        <ele>61.577755</ele>
        <time>2016-10-09T07:36:04Z</time>
      </trkpt>
      <trkpt lat="47.74023" lon="0.5142">
        <ele>61.746414</ele>
        <time>2016-10-09T07:36:08Z</time>
      </trkpt>
      <trkpt lat="47.74028" lon="0.51421">
        <ele>61.920956</ele>
        <time>2016-10-09T07:36:12Z</time>
      </trkpt>
      <trkpt lat="47.74033" lon="0.51423">
        <ele>62.084545</ele>
        <time>2016-10-09T07:36:16Z</time>
      </trkpt>
      <trkpt lat="47.74039" lon="0.51425">
        <ele>62.24942</ele>
        <time>2016-10-09T07:36:20Z</time>
      </trkpt>
      <trkpt lat="47.74044" lon="0.51426">
        <ele>62.401337</ele>
        <time>2016-10-09T07:36:23Z</time>
      </trkpt>
      <trkpt lat="47.74049" lon="0.51426">
        <ele>62.615273</ele>
        <time>2016-10-09T07:36:26Z</time>
      </trkpt>
      <trkpt lat="47.74057" lon="0.51425">
        <ele>62.927338</ele>
        <time>2016-10-09T07:36:30Z</time>
      </trkpt>
      <trkpt lat="47.74062" lon="0.51424">
        <ele>63.129078</ele>
        <time>2016-10-09T07:36:33Z</time>
      </trkpt>
      <trkpt lat="47.74068" lon="0.51423">
        <ele>63.378716</ele>
        <time>2016-10-09T07:36:37Z</time>
      </trkpt>
      <trkpt lat="47.74074" lon="0.51423">
        <ele>63.564041</ele>
        <time>2016-10-09T07:36:41Z</time>
      </trkpt>
      <trkpt lat="47.7408" lon="0.51422">
        <ele>63.806557</ele>
        <time>2016-10-09T07:36:45Z</time>
      </trkpt>
      <trkpt lat="47.74084" lon="0.51426">
        <ele>63.941406</ele>
        <time>2016-10-09T07:36:52Z</time>
      </trkpt>
      <trkpt lat="47.74092" lon="0.51426">
        <ele>64.42749</ele>
        <time>2016-10-09T07:36:56Z</time>
      </trkpt>
      <trkpt lat="47.74098" lon="0.51427">
        <ele>64.773926</ele>
        <time>2016-10-09T07:36:59Z</time>
      </trkpt>
      <trkpt lat="47.74105" lon="0.51428">
        <ele>65.17981</ele>
        <time>2016-10-09T07:37:03Z</time>
      </trkpt>
      <trkpt lat="47.74111" lon="0.51427">
        <ele>65.53009</ele>
        <time>2016-10-09T07:37:07Z</time>
      </trkpt>
      <trkpt lat="47.74116" lon="0.51426">
        <ele>65.824097</ele>
        <time>2016-10-09T07:37:12Z</time>
      </trkpt>
      <trkpt lat="47.74122" lon="0.51424">
        <ele>66.203552</ele>
        <time>2016-10-09T07:37:17Z</time>
      </trkpt>
      <trkpt lat="47.74127" lon="0.51425">
        <ele>66.497925</ele>
        <time>2016-10-09T07:37:21Z</time>
      </trkpt>
      <trkpt lat="47.74132" lon="0.51426">
        <ele>66.810425</ele>
        <time>2016-10-09T07:37:25Z</time>
      </trkpt>
      <trkpt lat="47.74138" lon="0.51426">
        <ele>67.168457</ele>
        <time>2016-10-09T07:37:29Z</time>
      </trkpt>
      <trkpt lat="47.74145" lon="0.51424">
        <ele>67.593384</ele>
        <time>2016-10-09T07:37:33Z</time>
      </trkpt>
      <trkpt lat="47.7415" lon="0.51423">
        <ele>67.948608</ele>
        <time>2016-10-09T07:37:39Z</time>
      </trkpt>
      <trkpt lat="47.74156" lon="0.51427">
        <ele>68.229553</ele>
        <time>2016-10-09T07:37:43Z</time>
      </trkpt>
      <trkpt lat="47.74161" lon="0.51432">
        <ele>68.468811</ele>
        <time>2016-10-09T07:37:46Z</time>
      </trkpt>
      <trkpt lat="47.74165" lon="0.51438">
        <ele>68.612793</ele>
        <time>2016-10-09T07:37:50Z</time>
      </trkpt>
      <trkpt lat="47.74164" lon="0.51445">
        <ele>68.503845</ele>
        <time>2016-10-09T07:37:55Z</time>
      </trkpt>
      <trkpt lat="47.74169" lon="0.51444">
        <ele>68.753647</ele>
        <time>2016-10-09T07:38:04Z</time>
      </trkpt>
      <trkpt lat="47.74183" lon="0.51445">
        <ele>69.172699</ele>
        <time>2016-10-09T07:38:08Z</time>
      </trkpt>
      <trkpt lat="47.74188" lon="0.51445">
        <ele>69.340622</ele>
        <time>2016-10-09T07:38:11Z</time>
      </trkpt>
      <trkpt lat="47.74193" lon="0.51442">
        <ele>69.534012</ele>
        <time>2016-10-09T07:38:14Z</time>
      </trkpt>
      <trkpt lat="47.74198" lon="0.51438">
        <ele>69.776352</ele>
        <time>2016-10-09T07:38:18Z</time>
      </trkpt>
      <trkpt lat="47.74203" lon="0.51434">
        <ele>70.002045</ele>
        <time>2016-10-09T07:38:22Z</time>
      </trkpt>
      <trkpt lat="47.74207" lon="0.51431">
        <ele>70.194176</ele>
        <time>2016-10-09T07:38:25Z</time>
      </trkpt>
      <trkpt lat="47.74212" lon="0.51429">
        <ele>70.384308</ele>
        <time>2016-10-09T07:38:28Z</time>
      </trkpt>
      <trkpt lat="47.74217" lon="0.51426">
        <ele>70.636581</ele>
        <time>2016-10-09T07:38:31Z</time>
      </trkpt>
      <trkpt lat="47.7422" lon="0.51419">
        <ele>70.893051</ele>
        <time>2016-10-09T07:38:36Z</time>
      </trkpt>
      <trkpt lat="47.74225" lon="0.51416">
        <ele>71.107491</ele>
        <time>2016-10-09T07:38:40Z</time>
      </trkpt>
      <trkpt lat="47.74229" lon="0.51411">
        <ele>71.365669</ele>
        <time>2016-10-09T07:38:44Z</time>
      </trkpt>
      <trkpt lat="47.74235" lon="0.51408">
        <ele>71.636932</ele>
        <time>2016-10-09T07:38:48Z</time>
      </trkpt>
      <trkpt lat="47.74239" lon="0.51401">
        <ele>71.938782</ele>
        <time>2016-10-09T07:38:52Z</time>
      </trkpt>
      <trkpt lat="47.74243" lon="0.51396">
        <ele>72.226891</ele>
        <time>2016-10-09T07:38:56Z</time>
      </trkpt>
      <trkpt lat="47.74248" lon="0.51394">
        <ele>72.453041</ele>
        <time>2016-10-09T07:39:07Z</time>
      </trkpt>
      <trkpt lat="47.74255" lon="0.51392">
        <ele>72.602295</ele>
        <time>2016-10-09T07:39:11Z</time>
      </trkpt>
      <trkpt lat="47.74261" lon="0.51388">
        <ele>72.697021</ele>
        <time>2016-10-09T07:39:15Z</time>
      </trkpt>
      <trkpt lat="47.74268" lon="0.51384">
        <ele>72.77478</ele>
        <time>2016-10-09T07:39:20Z</time>
      </trkpt>
      <trkpt lat="47.74273" lon="0.5138">
        <ele>72.882935</ele>
        <time>2016-10-09T07:39:24Z</time>
      </trkpt>
      <trkpt lat="47.74276" lon="0.51375">
        <ele>72.989258</ele>
        <time>2016-10-09T07:39:28Z</time>
      </trkpt>
      <trkpt lat="47.7428" lon="0.51369">
        <ele>73.153198</ele>
        <time>2016-10-09T07:39:33Z</time>
      </trkpt>
      <trkpt lat="47.74285" lon="0.51365">
        <ele>73.243164</ele>
        <time>2016-10-09T07:39:36Z</time>
      </trkpt>
      <trkpt lat="47.74289" lon="0.5136">
        <ele>73.358398</ele>
        <time>2016-10-09T07:39:41Z</time>
      </trkpt>
      <trkpt lat="47.74294" lon="0.51356">
        <ele>73.463989</ele>
        <time>2016-10-09T07:39:45Z</time>
      </trkpt>
      <trkpt lat="47.74299" lon="0.5135">
        <ele>73.592651</ele>
        <time>2016-10-09T07:39:50Z</time>
      </trkpt>
      <trkpt lat="47.74304" lon="0.51343">
        <ele>73.768799</ele>
        <time>2016-10-09T07:39:56Z</time>
      </trkpt>
      <trkpt lat="47.74308" lon="0.51337">
        <ele>73.922119</ele>
        <time>2016-10-09T07:40:00Z</time>
      </trkpt>
      <trkpt lat="47.74311" lon="0.51332">
        <ele>74.023315</ele>
        <time>2016-10-09T07:40:03Z</time>
      </trkpt>
      <trkpt lat="47.74316" lon="0.51326">
        <ele>74.165894</ele>
        <time>2016-10-09T07:40:07Z</time>
      </trkpt>
      <trkpt lat="47.7432" lon="0.51321">
        <ele>74.30188</ele>
        <time>2016-10-09T07:40:12Z</time>
      </trkpt>
      <trkpt lat="47.74326" lon="0.51317">
        <ele>74.38208</ele>
        <time>2016-10-09T07:40:16Z</time>
      </trkpt>
      <trkpt lat="47.74329" lon="0.51313">
        <ele>74.490112</ele>
        <time>2016-10-09T07:40:20Z</time>
      </trkpt>
      <trkpt lat="47.74333" lon="0.51305">
        <ele>74.670166</ele>
        <time>2016-10-09T07:40:25Z</time>
      </trkpt>
      <trkpt lat="47.74336" lon="0.51301">
        <ele>74.653831</ele>
        <time>2016-10-09T07:40:30Z</time>
      </trkpt>
      <trkpt lat="47.74339" lon="0.51295">
        <ele>74.656364</ele>
        <time>2016-10-09T07:40:35Z</time>
      </trkpt>
      <trkpt lat="47.74344" lon="0.5129">
        <ele>74.572983</ele>
        <time>2016-10-09T07:40:39Z</time>
      </trkpt>
      <trkpt lat="47.74348" lon="0.51287">
        <ele>74.504807</ele>
        <time>2016-10-09T07:40:42Z</time>
      </trkpt>
      <trkpt lat="47.74353" lon="0.51283">
        <ele>74.396324</ele>
        <time>2016-10-09T07:40:47Z</time>
      </trkpt>
      <trkpt lat="47.74357" lon="0.51279">
        <ele>74.328766</ele>
        <time>2016-10-09T07:40:51Z</time>
      </trkpt>
      <trkpt lat="47.74361" lon="0.51273">
        <ele>74.34787</ele>
        <time>2016-10-09T07:40:57Z</time>
      </trkpt>
      <trkpt lat="47.74366" lon="0.5127">
        <ele>74.267815</ele>
        <time>2016-10-09T07:41:01Z</time>
      </trkpt>
      <trkpt lat="47.74372" lon="0.51267">
        <ele>74.114761</ele>
        <time>2016-10-09T07:41:05Z</time>
      </trkpt>
      <trkpt lat="47.74376" lon="0.51264">
        <ele>74.044754</ele>
        <time>2016-10-09T07:41:09Z</time>
      </trkpt>
      <trkpt lat="47.74383" lon="0.51264">
        <ele>73.77858</ele>
        <time>2016-10-09T07:41:13Z</time>
      </trkpt>
      <trkpt lat="47.74388" lon="0.51262">
        <ele>73.642899</ele>
        <time>2016-10-09T07:41:17Z</time>
      </trkpt>
      <trkpt lat="47.74394" lon="0.5126">
        <ele>73.493729</ele>
        <time>2016-10-09T07:41:25Z</time>
      </trkpt>
      <trkpt lat="47.744" lon="0.51256">
        <ele>73.409714</ele>
        <time>2016-10-09T07:41:28Z</time>
      </trkpt>
      <trkpt lat="47.74406" lon="0.51254">
        <ele>73.251808</ele>
        <time>2016-10-09T07:41:32Z</time>
      </trkpt>
      <trkpt lat="47.74413" lon="0.51252">
        <ele>73.051414</ele>
        <time>2016-10-09T07:41:36Z</time>
      </trkpt>
      <trkpt lat="47.74421" lon="0.51256">
        <ele>72.636765</ele>
        <time>2016-10-09T07:41:39Z</time>
      </trkpt>
      <trkpt lat="47.74427" lon="0.51263">
        <ele>72.181656</ele>
        <time>2016-10-09T07:41:43Z</time>
      </trkpt>
      <trkpt lat="47.7443" lon="0.51269">
        <ele>71.887871</ele>
        <time>2016-10-09T07:41:47Z</time>
      </trkpt>
      <trkpt lat="47.74431" lon="0.51276">
        <ele>71.629921</ele>
        <time>2016-10-09T07:41:51Z</time>
      </trkpt>
      <trkpt lat="47.74432" lon="0.51283">
        <ele>71.363342</ele>
        <time>2016-10-09T07:41:54Z</time>
      </trkpt>
      <trkpt lat="47.74435" lon="0.51292">
        <ele>70.965103</ele>
        <time>2016-10-09T07:41:59Z</time>
      </trkpt>
      <trkpt lat="47.74437" lon="0.51299">
        <ele>70.65007</ele>
        <time>2016-10-09T07:42:04Z</time>
      </trkpt>
      <trkpt lat="47.7444" lon="0.51306">
        <ele>70.343933</ele>
        <time>2016-10-09T07:42:08Z</time>
      </trkpt>
      <trkpt lat="47.74443" lon="0.51312">
        <ele>70.032883</ele>
        <time>2016-10-09T07:42:12Z</time>
      </trkpt>
      <trkpt lat="47.74446" lon="0.51319">
        <ele>69.734741</ele>
        <time>2016-10-09T07:42:16Z</time>
      </trkpt>
      <trkpt lat="47.74449" lon="0.51327">
        <ele>69.414848</ele>
        <time>2016-10-09T07:42:20Z</time>
      </trkpt>
      <trkpt lat="47.7445" lon="0.51335">
        <ele>69.250023</ele>
        <time>2016-10-09T07:42:24Z</time>
      </trkpt>
      <trkpt lat="47.74453" lon="0.51343">
        <ele>69.509575</ele>
        <time>2016-10-09T07:42:29Z</time>
      </trkpt>
      <trkpt lat="47.74455" lon="0.5135">
        <ele>69.747284</ele>
        <time>2016-10-09T07:42:36Z</time>
      </trkpt>
      <trkpt lat="47.74457" lon="0.51356">
        <ele>69.961594</ele>
        <time>2016-10-09T07:42:40Z</time>
      </trkpt>
      <trkpt lat="47.74456" lon="0.51367">
        <ele>70.457031</ele>
        <time>2016-10-09T07:42:48Z</time>
      </trkpt>
      <trkpt lat="47.74458" lon="0.51374">
        <ele>70.711899</ele>
        <time>2016-10-09T07:42:51Z</time>
      </trkpt>
      <trkpt lat="47.74457" lon="0.51382">
        <ele>71.029205</ele>
        <time>2016-10-09T07:42:55Z</time>
      </trkpt>
      <trkpt lat="47.74462" lon="0.51391">
        <ele>71.407364</ele>
        <time>2016-10-09T07:43:01Z</time>
      </trkpt>
      <trkpt lat="47.74462" lon="0.51402">
        <ele>71.893898</ele>
        <time>2016-10-09T07:43:09Z</time>
      </trkpt>
      <trkpt lat="47.74463" lon="0.51411">
        <ele>72.303619</ele>
        <time>2016-10-09T07:43:13Z</time>
      </trkpt>
      <trkpt lat="47.74467" lon="0.51421">
        <ele>72.840332</ele>
        <time>2016-10-09T07:43:17Z</time>
      </trkpt>
      <trkpt lat="47.74468" lon="0.51429">
        <ele>73.317276</ele>
        <time>2016-10-09T07:43:21Z</time>
      </trkpt>
      <trkpt lat="47.7447" lon="0.51436">
        <ele>73.775269</ele>
        <time>2016-10-09T07:43:25Z</time>
      </trkpt>
      <trkpt lat="47.74474" lon="0.51441">
        <ele>74.178665</ele>
        <time>2016-10-09T07:43:29Z</time>
      </trkpt>
      <trkpt lat="47.74482" lon="0.51443">
        <ele>74.580559</ele>
        <time>2016-10-09T07:43:35Z</time>
      </trkpt>
      <trkpt lat="47.74489" lon="0.51445">
        <ele>75.013794</ele>
        <time>2016-10-09T07:43:38Z</time>
      </trkpt>
      <trkpt lat="47.74493" lon="0.51448">
        <ele>75.372505</ele>
        <time>2016-10-09T07:43:41Z</time>
      </trkpt>
      <trkpt lat="47.74501" lon="0.51452">
        <ele>75.995255</ele>
        <time>2016-10-09T07:43:46Z</time>
      </trkpt>
      <trkpt lat="47.74509" lon="0.51453">
        <ele>76.131065</ele>
        <time>2016-10-09T07:43:50Z</time>
      </trkpt>
      <trkpt lat="47.74516" lon="0.51452">
        <ele>76.02742</ele>
        <time>2016-10-09T07:43:55Z</time>
      </trkpt>
      <trkpt lat="47.74524" lon="0.5145">
        <ele>75.846512</ele>
        <time>2016-10-09T07:44:02Z</time>
      </trkpt>
      <trkpt lat="47.74528" lon="0.51447">
        <ele>75.453827</ele>
        <time>2016-10-09T07:44:06Z</time>
      </trkpt>
      <trkpt lat="47.74536" lon="0.51446">
        <ele>75.241112</ele>
        <time>2016-10-09T07:44:10Z</time>
      </trkpt>
      <trkpt lat="47.74545" lon="0.51445">
        <ele>75.099106</ele>
        <time>2016-10-09T07:44:14Z</time>
      </trkpt>
      <trkpt lat="47.74553" lon="0.51444">
        <ele>74.755295</ele>
        <time>2016-10-09T07:44:19Z</time>
      </trkpt>
      <trkpt lat="47.74559" lon="0.51443">
        <ele>74.629974</ele>
        <time>2016-10-09T07:44:23Z</time>
      </trkpt>
      <trkpt lat="47.74564" lon="0.51446">
        <ele>75.020027</ele>
        <time>2016-10-09T07:44:27Z</time>
      </trkpt>
      <trkpt lat="47.74571" lon="0.51446">
        <ele>75.128822</ele>
        <time>2016-10-09T07:44:33Z</time>
      </trkpt>
      <trkpt lat="47.7458" lon="0.51448">
        <ele>75.486214</ele>
        <time>2016-10-09T07:44:38Z</time>
      </trkpt>
      <trkpt lat="47.74585" lon="0.51447">
        <ele>75.145668</ele>
        <time>2016-10-09T07:44:44Z</time>
      </trkpt>
      <trkpt lat="47.74594" lon="0.51442">
        <ele>74.40155</ele>
        <time>2016-10-09T07:44:48Z</time>
      </trkpt>
      <trkpt lat="47.74604" lon="0.51446">
        <ele>75.382675</ele>
        <time>2016-10-09T07:44:56Z</time>
      </trkpt>
      <trkpt lat="47.74612" lon="0.51444">
        <ele>75.320335</ele>
        <time>2016-10-09T07:44:59Z</time>
      </trkpt>
      <trkpt lat="47.74622" lon="0.5144">
        <ele>74.679955</ele>
        <time>2016-10-09T07:45:04Z</time>
      </trkpt>
      <trkpt lat="47.74627" lon="0.51437">
        <ele>74.075516</ele>
        <time>2016-10-09T07:45:07Z</time>
      </trkpt>
      <trkpt lat="47.74632" lon="0.51436">
        <ele>73.963028</ele>
        <time>2016-10-09T07:45:12Z</time>
      </trkpt>
      <trkpt lat="47.74637" lon="0.5144">
        <ele>74.91404</ele>
        <time>2016-10-09T07:45:16Z</time>
      </trkpt>
      <trkpt lat="47.74644" lon="0.51442">
        <ele>75.568863</ele>
        <time>2016-10-09T07:45:21Z</time>
      </trkpt>
      <trkpt lat="47.74651" lon="0.51438">
        <ele>74.807343</ele>
        <time>2016-10-09T07:45:25Z</time>
      </trkpt>
      <trkpt lat="47.74657" lon="0.51436">
        <ele>74.460541</ele>
        <time>2016-10-09T07:45:29Z</time>
      </trkpt>
      <trkpt lat="47.74666" lon="0.51434">
        <ele>74.13195</ele>
        <time>2016-10-09T07:45:33Z</time>
      </trkpt>
      <trkpt lat="47.74672" lon="0.51433">
        <ele>74.655014</ele>
        <time>2016-10-09T07:45:36Z</time>
      </trkpt>
      <trkpt lat="47.74677" lon="0.51429">
        <ele>74.224792</ele>
        <time>2016-10-09T07:45:40Z</time>
      </trkpt>
      <trkpt lat="47.74681" lon="0.51421">
        <ele>72.959023</ele>
        <time>2016-10-09T07:45:45Z</time>
      </trkpt>
      <trkpt lat="47.74685" lon="0.51416">
        <ele>72.428955</ele>
        <time>2016-10-09T07:45:49Z</time>
      </trkpt>
      <trkpt lat="47.74688" lon="0.51407">
        <ele>72.459305</ele>
        <time>2016-10-09T07:45:54Z</time>
      </trkpt>
      <trkpt lat="47.74691" lon="0.51402">
        <ele>72.580925</ele>
        <time>2016-10-09T07:45:59Z</time>
      </trkpt>
      <trkpt lat="47.74693" lon="0.51395">
        <ele>72.542</ele>
        <time>2016-10-09T07:46:03Z</time>
      </trkpt>
      <trkpt lat="47.74695" lon="0.51389">
        <ele>72.536224</ele>
        <time>2016-10-09T07:46:07Z</time>
      </trkpt>
      <trkpt lat="47.74696" lon="0.51382">
        <ele>72.317017</ele>
        <time>2016-10-09T07:46:11Z</time>
      </trkpt>
      <trkpt lat="47.74698" lon="0.51375">
        <ele>72.183357</ele>
        <time>2016-10-09T07:46:14Z</time>
      </trkpt>
      <trkpt lat="47.74701" lon="0.51368">
        <ele>72.130096</ele>
        <time>2016-10-09T07:46:18Z</time>
      </trkpt>
      <trkpt lat="47.74704" lon="0.51363">
        <ele>72.223679</ele>
        <time>2016-10-09T07:46:22Z</time>
      </trkpt>
      <trkpt lat="47.74706" lon="0.51357">
        <ele>72.035812</ele>
        <time>2016-10-09T07:46:26Z</time>
      </trkpt>
      <trkpt lat="47.74711" lon="0.51348">
        <ele>71.945625</ele>
        <time>2016-10-09T07:46:30Z</time>
      </trkpt>
      <trkpt lat="47.74714" lon="0.51343">
        <ele>71.997505</ele>
        <time>2016-10-09T07:46:35Z</time>
      </trkpt>
      <trkpt lat="47.74718" lon="0.51338">
        <ele>71.930984</ele>
        <time>2016-10-09T07:46:41Z</time>
      </trkpt>
      <trkpt lat="47.7472" lon="0.5133">
        <ele>71.79512</ele>
        <time>2016-10-09T07:46:45Z</time>
      </trkpt>
      <trkpt lat="47.74723" lon="0.51323">
        <ele>71.80378</ele>
        <time>2016-10-09T07:46:49Z</time>
      </trkpt>
      <trkpt lat="47.74725" lon="0.51315">
        <ele>71.710426</ele>
        <time>2016-10-09T07:46:53Z</time>
      </trkpt>
      <trkpt lat="47.7473" lon="0.51305">
        <ele>71.670456</ele>
        <time>2016-10-09T07:46:58Z</time>
      </trkpt>
      <trkpt lat="47.74736" lon="0.51301">
        <ele>71.854202</ele>
        <time>2016-10-09T07:47:02Z</time>
      </trkpt>
      <trkpt lat="47.7474" lon="0.51297">
        <ele>71.853386</ele>
        <time>2016-10-09T07:47:06Z</time>
      </trkpt>
      <trkpt lat="47.74744" lon="0.51291">
        <ele>71.74231</ele>
        <time>2016-10-09T07:47:10Z</time>
      </trkpt>
      <trkpt lat="47.74748" lon="0.51285">
        <ele>71.608818</ele>
        <time>2016-10-09T07:47:13Z</time>
      </trkpt>
      <trkpt lat="47.74751" lon="0.51279">
        <ele>71.478004</ele>
        <time>2016-10-09T07:47:17Z</time>
      </trkpt>
      <trkpt lat="47.74754" lon="0.51271">
        <ele>71.453278</ele>
        <time>2016-10-09T07:47:22Z</time>
      </trkpt>
      <trkpt lat="47.74756" lon="0.51264">
        <ele>71.251129</ele>
        <time>2016-10-09T07:47:26Z</time>
      </trkpt>
      <trkpt lat="47.74757" lon="0.51257">
        <ele>70.955231</ele>
        <time>2016-10-09T07:47:30Z</time>
      </trkpt>
      <trkpt lat="47.74759" lon="0.5125">
        <ele>70.681793</ele>
        <time>2016-10-09T07:47:34Z</time>
      </trkpt>
      <trkpt lat="47.74761" lon="0.51243">
        <ele>70.854721</ele>
        <time>2016-10-09T07:47:38Z</time>
      </trkpt>
      <trkpt lat="47.74761" lon="0.51237">
        <ele>70.853439</ele>
        <time>2016-10-09T07:47:45Z</time>
      </trkpt>
      <trkpt lat="47.74758" lon="0.51231">
        <ele>70.730927</ele>
        <time>2016-10-09T07:47:50Z</time>
      </trkpt>
      <trkpt lat="47.7476" lon="0.51223">
        <ele>70.88002</ele>
        <time>2016-10-09T07:47:56Z</time>
      </trkpt>
      <trkpt lat="47.7476" lon="0.51216">
        <ele>70.935242</ele>
        <time>2016-10-09T07:48:00Z</time>
      </trkpt>
      <trkpt lat="47.74761" lon="0.51208">
        <ele>71.048889</ele>
        <time>2016-10-09T07:48:04Z</time>
      </trkpt>
      <trkpt lat="47.74764" lon="0.512">
        <ele>71.220108</ele>
        <time>2016-10-09T07:48:09Z</time>
      </trkpt>
      <trkpt lat="47.74768" lon="0.51194">
        <ele>71.369125</ele>
        <time>2016-10-09T07:48:12Z</time>
      </trkpt>
      <trkpt lat="47.74771" lon="0.51188">
        <ele>71.488754</ele>
        <time>2016-10-09T07:48:16Z</time>
      </trkpt>
      <trkpt lat="47.74775" lon="0.51181">
        <ele>71.631149</ele>
        <time>2016-10-09T07:48:22Z</time>
      </trkpt>
      <trkpt lat="47.74779" lon="0.51172">
        <ele>71.727409</ele>
        <time>2016-10-09T07:48:29Z</time>
      </trkpt>
      <trkpt lat="47.74783" lon="0.51167">
        <ele>71.781525</ele>
        <time>2016-10-09T07:48:32Z</time>
      </trkpt>
      <trkpt lat="47.74785" lon="0.51159">
        <ele>71.837891</ele>
        <time>2016-10-09T07:48:36Z</time>
      </trkpt>
      <trkpt lat="47.74787" lon="0.51148">
        <ele>71.885254</ele>
        <time>2016-10-09T07:48:43Z</time>
      </trkpt>
      <trkpt lat="47.74787" lon="0.51141">
        <ele>71.894409</ele>
        <time>2016-10-09T07:48:46Z</time>
      </trkpt>
      <trkpt lat="47.74789" lon="0.51132">
        <ele>71.927246</ele>
        <time>2016-10-09T07:48:50Z</time>
      </trkpt>
      <trkpt lat="47.74792" lon="0.5112">
        <ele>71.999146</ele>
        <time>2016-10-09T07:48:56Z</time>
      </trkpt>
      <trkpt lat="47.74793" lon="0.51113">
        <ele>72.022583</ele>
        <time>2016-10-09T07:49:00Z</time>
      </trkpt>
      <trkpt lat="47.74796" lon="0.51105">
        <ele>72.102417</ele>
        <time>2016-10-09T07:49:05Z</time>
      </trkpt>
      <trkpt lat="47.74798" lon="0.51099">
        <ele>72.151855</ele>
        <time>2016-10-09T07:49:08Z</time>
      </trkpt>
      <trkpt lat="47.74803" lon="0.51092">
        <ele>72.26001</ele>
        <time>2016-10-09T07:49:12Z</time>
      </trkpt>
      <trkpt lat="47.74807" lon="0.51086">
        <ele>72.367554</ele>
        <time>2016-10-09T07:49:16Z</time>
      </trkpt>
      <trkpt lat="47.74811" lon="0.5108">
        <ele>72.532028</ele>
        <time>2016-10-09T07:49:20Z</time>
      </trkpt>
      <trkpt lat="47.74814" lon="0.51074">
        <ele>72.701141</ele>
        <time>2016-10-09T07:49:24Z</time>
      </trkpt>
      <trkpt lat="47.74818" lon="0.51069">
        <ele>72.866837</ele>
        <time>2016-10-09T07:49:28Z</time>
      </trkpt>
      <trkpt lat="47.74822" lon="0.51063">
        <ele>73.033226</ele>
        <time>2016-10-09T07:49:32Z</time>
      </trkpt>
      <trkpt lat="47.74824" lon="0.51056">
        <ele>73.177971</ele>
        <time>2016-10-09T07:49:35Z</time>
      </trkpt>
      <trkpt lat="47.74826" lon="0.5105">
        <ele>73.296684</ele>
        <time>2016-10-09T07:49:38Z</time>
      </trkpt>
      <trkpt lat="47.7483" lon="0.51042">
        <ele>73.444382</ele>
        <time>2016-10-09T07:49:43Z</time>
      </trkpt>
      <trkpt lat="47.74835" lon="0.51033">
        <ele>73.794014</ele>
        <time>2016-10-09T07:49:50Z</time>
      </trkpt>
      <trkpt lat="47.74838" lon="0.51024">
        <ele>74.417023</ele>
        <time>2016-10-09T07:49:54Z</time>
      </trkpt>
      <trkpt lat="47.74838" lon="0.51017">
        <ele>74.613701</ele>
        <time>2016-10-09T07:49:57Z</time>
      </trkpt>
      <trkpt lat="47.7484" lon="0.51007">
        <ele>75.095818</ele>
        <time>2016-10-09T07:50:02Z</time>
      </trkpt>
      <trkpt lat="47.74841" lon="0.50999">
        <ele>75.297569</ele>
        <time>2016-10-09T07:50:06Z</time>
      </trkpt>
      <trkpt lat="47.74844" lon="0.50992">
        <ele>75.905518</ele>
        <time>2016-10-09T07:50:10Z</time>
      </trkpt>
      <trkpt lat="47.74848" lon="0.50984">
        <ele>76.523659</ele>
        <time>2016-10-09T07:50:15Z</time>
      </trkpt>
      <trkpt lat="47.74848" lon="0.50976">
        <ele>76.648651</ele>
        <time>2016-10-09T07:50:19Z</time>
      </trkpt>
      <trkpt lat="47.74847" lon="0.50966">
        <ele>76.509422</ele>
        <time>2016-10-09T07:50:24Z</time>
      </trkpt>
      <trkpt lat="47.74846" lon="0.50957">
        <ele>76.369492</ele>
        <time>2016-10-09T07:50:29Z</time>
      </trkpt>
      <trkpt lat="47.74844" lon="0.50948">
        <ele>76.222992</ele>
        <time>2016-10-09T07:50:35Z</time>
      </trkpt>
      <trkpt lat="47.74841" lon="0.5094">
        <ele>75.854073</ele>
        <time>2016-10-09T07:50:39Z</time>
      </trkpt>
      <trkpt lat="47.7484" lon="0.50929">
        <ele>75.782249</ele>
        <time>2016-10-09T07:50:44Z</time>
      </trkpt>
      <trkpt lat="47.7484" lon="0.50923">
        <ele>75.832191</ele>
        <time>2016-10-09T07:50:48Z</time>
      </trkpt>
      <trkpt lat="47.74841" lon="0.50916">
        <ele>76.05912</ele>
        <time>2016-10-09T07:51:08Z</time>
      </trkpt>
      <trkpt lat="47.74839" lon="0.5091">
        <ele>75.881126</ele>
        <time>2016-10-09T07:51:11Z</time>
      </trkpt>
      <trkpt lat="47.74835" lon="0.50901">
        <ele>75.564491</ele>
        <time>2016-10-09T07:51:15Z</time>
      </trkpt>
      <trkpt lat="47.74836" lon="0.50894">
        <ele>75.91198</ele>
        <time>2016-10-09T07:51:19Z</time>
      </trkpt>
      <trkpt lat="47.74838" lon="0.50884">
        <ele>76.336243</ele>
        <time>2016-10-09T07:51:24Z</time>
      </trkpt>
      <trkpt lat="47.74838" lon="0.50877">
        <ele>76.551712</ele>
        <time>2016-10-09T07:51:27Z</time>
      </trkpt>
      <trkpt lat="47.74839" lon="0.50869">
        <ele>76.859344</ele>
        <time>2016-10-09T07:51:31Z</time>
      </trkpt>
      <trkpt lat="47.74839" lon="0.50862">
        <ele>77.026291</ele>
        <time>2016-10-09T07:51:35Z</time>
      </trkpt>
      <trkpt lat="47.74837" lon="0.50853">
        <ele>77.026733</ele>
        <time>2016-10-09T07:51:40Z</time>
      </trkpt>
      <trkpt lat="47.74835" lon="0.50843">
        <ele>76.956055</ele>
        <time>2016-10-09T07:51:46Z</time>
      </trkpt>
      <trkpt lat="47.74834" lon="0.50835">
        <ele>77.005226</ele>
        <time>2016-10-09T07:51:50Z</time>
      </trkpt>
      <trkpt lat="47.74833" lon="0.50827">
        <ele>77.158981</ele>
        <time>2016-10-09T07:51:54Z</time>
      </trkpt>
      <trkpt lat="47.74833" lon="0.50819">
        <ele>77.357224</ele>
        <time>2016-10-09T07:51:59Z</time>
      </trkpt>
      <trkpt lat="47.74832" lon="0.50811">
        <ele>77.571701</ele>
        <time>2016-10-09T07:52:02Z</time>
      </trkpt>
      <trkpt lat="47.74832" lon="0.50803">
        <ele>77.76239</ele>
        <time>2016-10-09T07:52:06Z</time>
      </trkpt>
      <trkpt lat="47.74832" lon="0.50796">
        <ele>77.93528</ele>
        <time>2016-10-09T07:52:10Z</time>
      </trkpt>
      <trkpt lat="47.74833" lon="0.50787">
        <ele>78.149094</ele>
        <time>2016-10-09T07:52:14Z</time>
      </trkpt>
      <trkpt lat="47.74831" lon="0.50779">
        <ele>78.382317</ele>
        <time>2016-10-09T07:52:18Z</time>
      </trkpt>
      <trkpt lat="47.7483" lon="0.50772">
        <ele>78.613251</ele>
        <time>2016-10-09T07:52:21Z</time>
      </trkpt>
      <trkpt lat="47.7483" lon="0.50763">
        <ele>78.823647</ele>
        <time>2016-10-09T07:52:25Z</time>
      </trkpt>
      <trkpt lat="47.7483" lon="0.50756">
        <ele>79.010468</ele>
        <time>2016-10-09T07:52:29Z</time>
      </trkpt>
      <trkpt lat="47.74831" lon="0.50749">
        <ele>79.168961</ele>
        <time>2016-10-09T07:52:34Z</time>
      </trkpt>
      <trkpt lat="47.74831" lon="0.5074">
        <ele>79.470703</ele>
        <time>2016-10-09T07:52:43Z</time>
      </trkpt>
      <trkpt lat="47.74832" lon="0.50733">
        <ele>79.706909</ele>
        <time>2016-10-09T07:52:46Z</time>
      </trkpt>
      <trkpt lat="47.74832" lon="0.50725">
        <ele>79.958641</ele>
        <time>2016-10-09T07:52:50Z</time>
      </trkpt>
      <trkpt lat="47.74834" lon="0.50718">
        <ele>80.209976</ele>
        <time>2016-10-09T07:52:54Z</time>
      </trkpt>
      <trkpt lat="47.74834" lon="0.5071">
        <ele>80.487946</ele>
        <time>2016-10-09T07:52:58Z</time>
      </trkpt>
      <trkpt lat="47.74836" lon="0.50704">
        <ele>80.865128</ele>
        <time>2016-10-09T07:53:02Z</time>
      </trkpt>
      <trkpt lat="47.74838" lon="0.50695">
        <ele>81.238083</ele>
        <time>2016-10-09T07:53:06Z</time>
      </trkpt>
      <trkpt lat="47.74838" lon="0.50687">
        <ele>81.536621</ele>
        <time>2016-10-09T07:53:10Z</time>
      </trkpt>
      <trkpt lat="47.74839" lon="0.50679">
        <ele>81.813126</ele>
        <time>2016-10-09T07:53:14Z</time>
      </trkpt>
      <trkpt lat="47.7484" lon="0.50672">
        <ele>82.106812</ele>
        <time>2016-10-09T07:53:19Z</time>
      </trkpt>
      <trkpt lat="47.74842" lon="0.50665">
        <ele>82.388901</ele>
        <time>2016-10-09T07:53:23Z</time>
      </trkpt>
      <trkpt lat="47.74844" lon="0.50658">
        <ele>82.748528</ele>
        <time>2016-10-09T07:53:27Z</time>
      </trkpt>
      <trkpt lat="47.74846" lon="0.50651">
        <ele>83.054947</ele>
        <time>2016-10-09T07:53:31Z</time>
      </trkpt>
      <trkpt lat="47.74849" lon="0.50644">
        <ele>83.375778</ele>
        <time>2016-10-09T07:53:35Z</time>
      </trkpt>
      <trkpt lat="47.74852" lon="0.50637">
        <ele>83.685448</ele>
        <time>2016-10-09T07:53:39Z</time>
      </trkpt>
      <trkpt lat="47.74854" lon="0.50631">
        <ele>83.921219</ele>
        <time>2016-10-09T07:53:42Z</time>
      </trkpt>
      <trkpt lat="47.74857" lon="0.50624">
        <ele>84.179634</ele>
        <time>2016-10-09T07:53:47Z</time>
      </trkpt>
      <trkpt lat="47.74861" lon="0.50619">
        <ele>84.348885</ele>
        <time>2016-10-09T07:53:51Z</time>
      </trkpt>
      <trkpt lat="47.74865" lon="0.50612">
        <ele>84.525223</ele>
        <time>2016-10-09T07:53:55Z</time>
      </trkpt>
      <trkpt lat="47.74867" lon="0.50606">
        <ele>84.658974</ele>
        <time>2016-10-09T07:53:58Z</time>
      </trkpt>
      <trkpt lat="47.74873" lon="0.50599">
        <ele>84.743111</ele>
        <time>2016-10-09T07:54:02Z</time>
      </trkpt>
      <trkpt lat="47.74876" lon="0.50594">
        <ele>84.798302</ele>
        <time>2016-10-09T07:54:05Z</time>
      </trkpt>
      <trkpt lat="47.7488" lon="0.50586">
        <ele>84.835609</ele>
        <time>2016-10-09T07:54:09Z</time>
      </trkpt>
      <trkpt lat="47.74882" lon="0.50579">
        <ele>84.957497</ele>
        <time>2016-10-09T07:54:13Z</time>
      </trkpt>
      <trkpt lat="47.74888" lon="0.50575">
        <ele>84.85463</ele>
        <time>2016-10-09T07:54:17Z</time>
      </trkpt>
      <trkpt lat="47.7489" lon="0.50567">
        <ele>84.945786</ele>
        <time>2016-10-09T07:54:21Z</time>
      </trkpt>
      <trkpt lat="47.74887" lon="0.50559">
        <ele>85.227287</ele>
        <time>2016-10-09T07:54:26Z</time>
      </trkpt>
      <trkpt lat="47.74885" lon="0.50548">
        <ele>85.537033</ele>
        <time>2016-10-09T07:54:30Z</time>
      </trkpt>
      <trkpt lat="47.74886" lon="0.50541">
        <ele>85.685966</ele>
        <time>2016-10-09T07:54:34Z</time>
      </trkpt>
      <trkpt lat="47.74886" lon="0.50533">
        <ele>85.857437</ele>
        <time>2016-10-09T07:54:38Z</time>
      </trkpt>
      <trkpt lat="47.74887" lon="0.50525">
        <ele>85.973907</ele>
        <time>2016-10-09T07:54:42Z</time>
      </trkpt>
      <trkpt lat="47.74889" lon="0.50518">
        <ele>85.990097</ele>
        <time>2016-10-09T07:54:46Z</time>
      </trkpt>
      <trkpt lat="47.7489" lon="0.50511">
        <ele>86.001541</ele>
        <time>2016-10-09T07:54:50Z</time>
      </trkpt>
      <trkpt lat="47.74892" lon="0.50504">
        <ele>85.984505</ele>
        <time>2016-10-09T07:54:55Z</time>
      </trkpt>
      <trkpt lat="47.74897" lon="0.50495">
        <ele>85.820312</ele>
        <time>2016-10-09T07:55:00Z</time>
      </trkpt>
      <trkpt lat="47.74899" lon="0.50488">
        <ele>85.780067</ele>
        <time>2016-10-09T07:55:04Z</time>
      </trkpt>
      <trkpt lat="47.74898" lon="0.5048">
        <ele>86.089981</ele>
        <time>2016-10-09T07:55:08Z</time>
      </trkpt>
      <trkpt lat="47.749" lon="0.50474">
        <ele>86.05304</ele>
        <time>2016-10-09T07:55:12Z</time>
      </trkpt>
      <trkpt lat="47.74904" lon="0.50466">
        <ele>85.806107</ele>
        <time>2016-10-09T07:55:16Z</time>
      </trkpt>
      <trkpt lat="47.74903" lon="0.50459">
        <ele>86.043541</ele>
        <time>2016-10-09T07:55:19Z</time>
      </trkpt>
      <trkpt lat="47.74904" lon="0.50449">
        <ele>86.168228</ele>
        <time>2016-10-09T07:55:23Z</time>
      </trkpt>
      <trkpt lat="47.74904" lon="0.5044">
        <ele>86.362419</ele>
        <time>2016-10-09T07:55:27Z</time>
      </trkpt>
      <trkpt lat="47.74905" lon="0.50431">
        <ele>86.415848</ele>
        <time>2016-10-09T07:55:31Z</time>
      </trkpt>
      <trkpt lat="47.74905" lon="0.50423">
        <ele>86.494804</ele>
        <time>2016-10-09T07:55:35Z</time>
      </trkpt>
      <trkpt lat="47.74906" lon="0.50415">
        <ele>86.613892</ele>
        <time>2016-10-09T07:55:40Z</time>
      </trkpt>
      <trkpt lat="47.74907" lon="0.50407">
        <ele>86.754219</ele>
        <time>2016-10-09T07:55:44Z</time>
      </trkpt>
      <trkpt lat="47.74909" lon="0.504">
        <ele>86.759232</ele>
        <time>2016-10-09T07:55:47Z</time>
      </trkpt>
      <trkpt lat="47.7491" lon="0.50391">
        <ele>86.990135</ele>
        <time>2016-10-09T07:55:52Z</time>
      </trkpt>
      <trkpt lat="47.74911" lon="0.50384">
        <ele>87.03437</ele>
        <time>2016-10-09T07:55:56Z</time>
      </trkpt>
      <trkpt lat="47.74914" lon="0.50375">
        <ele>86.96241</ele>
        <time>2016-10-09T07:56:01Z</time>
      </trkpt>
      <trkpt lat="47.74915" lon="0.50367">
        <ele>87.06913</ele>
        <time>2016-10-09T07:56:05Z</time>
      </trkpt>
      <trkpt lat="47.74918" lon="0.50359">
        <ele>87.120399</ele>
        <time>2016-10-09T07:56:09Z</time>
      </trkpt>
      <trkpt lat="47.74919" lon="0.50351">
        <ele>87.43895</ele>
        <time>2016-10-09T07:56:13Z</time>
      </trkpt>
      <trkpt lat="47.74922" lon="0.50344">
        <ele>87.782646</ele>
        <time>2016-10-09T07:56:18Z</time>
      </trkpt>
      <trkpt lat="47.74922" lon="0.50336">
        <ele>88.06562</ele>
        <time>2016-10-09T07:56:22Z</time>
      </trkpt>
      <trkpt lat="47.74922" lon="0.50329">
        <ele>88.274818</ele>
        <time>2016-10-09T07:56:25Z</time>
      </trkpt>
      <trkpt lat="47.74923" lon="0.5032">
        <ele>88.566727</ele>
        <time>2016-10-09T07:56:29Z</time>
      </trkpt>
      <trkpt lat="47.74924" lon="0.50312">
        <ele>88.823235</ele>
        <time>2016-10-09T07:56:33Z</time>
      </trkpt>
      <trkpt lat="47.74929" lon="0.50306">
        <ele>89.032005</ele>
        <time>2016-10-09T07:56:38Z</time>
      </trkpt>
      <trkpt lat="47.74932" lon="0.50301">
        <ele>89.186317</ele>
        <time>2016-10-09T07:56:42Z</time>
      </trkpt>
      <trkpt lat="47.74935" lon="0.50292">
        <ele>89.37487</ele>
        <time>2016-10-09T07:56:47Z</time>
      </trkpt>
      <trkpt lat="47.7494" lon="0.50289">
        <ele>89.416626</ele>
        <time>2016-10-09T07:56:51Z</time>
      </trkpt>
      <trkpt lat="47.74944" lon="0.5028">
        <ele>89.533348</ele>
        <time>2016-10-09T07:56:59Z</time>
      </trkpt>
      <trkpt lat="47.74946" lon="0.50273">
        <ele>89.60437</ele>
        <time>2016-10-09T07:57:03Z</time>
      </trkpt>
      <trkpt lat="47.74948" lon="0.50264">
        <ele>89.668839</ele>
        <time>2016-10-09T07:57:07Z</time>
      </trkpt>
      <trkpt lat="47.74952" lon="0.50257">
        <ele>89.655777</ele>
        <time>2016-10-09T07:57:11Z</time>
      </trkpt>
      <trkpt lat="47.74955" lon="0.5025">
        <ele>89.637451</ele>
        <time>2016-10-09T07:57:16Z</time>
      </trkpt>
      <trkpt lat="47.74959" lon="0.50244">
        <ele>89.624931</ele>
        <time>2016-10-09T07:57:21Z</time>
      </trkpt>
      <trkpt lat="47.74962" lon="0.50238">
        <ele>89.637543</ele>
        <time>2016-10-09T07:57:25Z</time>
      </trkpt>
      <trkpt lat="47.74965" lon="0.50232">
        <ele>89.672615</ele>
        <time>2016-10-09T07:57:29Z</time>
      </trkpt>
      <trkpt lat="47.74971" lon="0.50227">
        <ele>89.529427</ele>
        <time>2016-10-09T07:57:32Z</time>
      </trkpt>
      <trkpt lat="47.74976" lon="0.50222">
        <ele>89.412315</ele>
        <time>2016-10-09T07:57:36Z</time>
      </trkpt>
      <trkpt lat="47.7498" lon="0.5022">
        <ele>89.26046</ele>
        <time>2016-10-09T07:57:40Z</time>
      </trkpt>
      <trkpt lat="47.74986" lon="0.50217">
        <ele>89.042282</ele>
        <time>2016-10-09T07:57:44Z</time>
      </trkpt>
      <trkpt lat="47.7499" lon="0.50216">
        <ele>88.851807</ele>
        <time>2016-10-09T07:57:47Z</time>
      </trkpt>
      <trkpt lat="47.74996" lon="0.50213">
        <ele>88.625328</ele>
        <time>2016-10-09T07:57:51Z</time>
      </trkpt>
      <trkpt lat="47.75001" lon="0.50211">
        <ele>88.513336</ele>
        <time>2016-10-09T07:57:55Z</time>
      </trkpt>
      <trkpt lat="47.75005" lon="0.50208">
        <ele>88.791412</ele>
        <time>2016-10-09T07:57:58Z</time>
      </trkpt>
      <trkpt lat="47.75011" lon="0.50204">
        <ele>89.156731</ele>
        <time>2016-10-09T07:58:02Z</time>
      </trkpt>
      <trkpt lat="47.75016" lon="0.50202">
        <ele>89.441185</ele>
        <time>2016-10-09T07:58:06Z</time>
      </trkpt>
      <trkpt lat="47.75021" lon="0.50199">
        <ele>89.680435</ele>
        <time>2016-10-09T07:58:10Z</time>
      </trkpt>
      <trkpt lat="47.75025" lon="0.50196">
        <ele>89.89579</ele>
        <time>2016-10-09T07:58:14Z</time>
      </trkpt>
      <trkpt lat="47.7503" lon="0.50192">
        <ele>90.091583</ele>
        <time>2016-10-09T07:58:19Z</time>
      </trkpt>
      <trkpt lat="47.75035" lon="0.50189">
        <ele>90.219406</ele>
        <time>2016-10-09T07:58:22Z</time>
      </trkpt>
      <trkpt lat="47.7504" lon="0.50184">
        <ele>90.342102</ele>
        <time>2016-10-09T07:58:26Z</time>
      </trkpt>
      <trkpt lat="47.75045" lon="0.50181">
        <ele>90.457657</ele>
        <time>2016-10-09T07:58:30Z</time>
      </trkpt>
      <trkpt lat="47.75051" lon="0.50178">
        <ele>90.578979</ele>
        <time>2016-10-09T07:58:34Z</time>
      </trkpt>
      <trkpt lat="47.75056" lon="0.50175">
        <ele>90.642258</ele>
        <time>2016-10-09T07:58:38Z</time>
      </trkpt>
      <trkpt lat="47.75061" lon="0.5017">
        <ele>90.616508</ele>
        <time>2016-10-09T07:58:43Z</time>
      </trkpt>
      <trkpt lat="47.75065" lon="0.50166">
        <ele>90.5755</ele>
        <time>2016-10-09T07:58:47Z</time>
      </trkpt>
      <trkpt lat="47.75071" lon="0.5016">
        <ele>90.738907</ele>
        <time>2016-10-09T07:58:51Z</time>
      </trkpt>
      <trkpt lat="47.75075" lon="0.50157">
        <ele>90.841888</ele>
        <time>2016-10-09T07:58:57Z</time>
      </trkpt>
      <trkpt lat="47.75079" lon="0.50152">
        <ele>90.936653</ele>
        <time>2016-10-09T07:59:05Z</time>
      </trkpt>
      <trkpt lat="47.75084" lon="0.50148">
        <ele>91.051834</ele>
        <time>2016-10-09T07:59:08Z</time>
      </trkpt>
      <trkpt lat="47.75089" lon="0.50146">
        <ele>91.372375</ele>
        <time>2016-10-09T07:59:12Z</time>
      </trkpt>
      <trkpt lat="47.75093" lon="0.50143">
        <ele>91.603363</ele>
        <time>2016-10-09T07:59:15Z</time>
      </trkpt>
      <trkpt lat="47.75098" lon="0.50141">
        <ele>91.851036</ele>
        <time>2016-10-09T07:59:19Z</time>
      </trkpt>
      <trkpt lat="47.75104" lon="0.50136">
        <ele>92.090866</ele>
        <time>2016-10-09T07:59:23Z</time>
      </trkpt>
      <trkpt lat="47.7511" lon="0.50134">
        <ele>92.326347</ele>
        <time>2016-10-09T07:59:27Z</time>
      </trkpt>
      <trkpt lat="47.75114" lon="0.50129">
        <ele>92.412155</ele>
        <time>2016-10-09T07:59:31Z</time>
      </trkpt>
      <trkpt lat="47.75118" lon="0.50126">
        <ele>92.473915</ele>
        <time>2016-10-09T07:59:34Z</time>
      </trkpt>
      <trkpt lat="47.75121" lon="0.50121">
        <ele>92.438766</ele>
        <time>2016-10-09T07:59:38Z</time>
      </trkpt>
      <trkpt lat="47.75125" lon="0.50117">
        <ele>92.400665</ele>
        <time>2016-10-09T07:59:42Z</time>
      </trkpt>
      <trkpt lat="47.7513" lon="0.50111">
        <ele>92.308701</ele>
        <time>2016-10-09T07:59:46Z</time>
      </trkpt>
      <trkpt lat="47.75133" lon="0.50107">
        <ele>92.167145</ele>
        <time>2016-10-09T07:59:50Z</time>
      </trkpt>
      <trkpt lat="47.75137" lon="0.50102">
        <ele>91.977608</ele>
        <time>2016-10-09T07:59:57Z</time>
      </trkpt>
      <trkpt lat="47.75139" lon="0.50096">
        <ele>91.69487</ele>
        <time>2016-10-09T08:00:01Z</time>
      </trkpt>
      <trkpt lat="47.75141" lon="0.50089">
        <ele>91.328796</ele>
        <time>2016-10-09T08:00:05Z</time>
      </trkpt>
      <trkpt lat="47.75145" lon="0.50083">
        <ele>91.000168</ele>
        <time>2016-10-09T08:00:09Z</time>
      </trkpt>
      <trkpt lat="47.7515" lon="0.50076">
        <ele>91.227249</ele>
        <time>2016-10-09T08:00:15Z</time>
      </trkpt>
      <trkpt lat="47.75154" lon="0.50069">
        <ele>91.430214</ele>
        <time>2016-10-09T08:00:21Z</time>
      </trkpt>
      <trkpt lat="47.75158" lon="0.50064">
        <ele>91.532593</ele>
        <time>2016-10-09T08:00:25Z</time>
      </trkpt>
      <trkpt lat="47.75163" lon="0.50057">
        <ele>91.681358</ele>
        <time>2016-10-09T08:00:29Z</time>
      </trkpt>
      <trkpt lat="47.75166" lon="0.50051">
        <ele>91.784805</ele>
        <time>2016-10-09T08:00:33Z</time>
      </trkpt>
      <trkpt lat="47.75169" lon="0.50044">
        <ele>92.052917</ele>
        <time>2016-10-09T08:00:38Z</time>
      </trkpt>
      <trkpt lat="47.75173" lon="0.50039">
        <ele>92.273041</ele>
        <time>2016-10-09T08:00:41Z</time>
      </trkpt>
      <trkpt lat="47.75177" lon="0.50035">
        <ele>92.499527</ele>
        <time>2016-10-09T08:00:45Z</time>
      </trkpt>
      <trkpt lat="47.75181" lon="0.5003">
        <ele>92.690826</ele>
        <time>2016-10-09T08:00:49Z</time>
      </trkpt>
      <trkpt lat="47.75187" lon="0.50026">
        <ele>92.919067</ele>
        <time>2016-10-09T08:00:53Z</time>
      </trkpt>
      <trkpt lat="47.75192" lon="0.50025">
        <ele>93.058487</ele>
        <time>2016-10-09T08:00:56Z</time>
      </trkpt>
      <trkpt lat="47.75197" lon="0.50024">
        <ele>93.21447</ele>
        <time>2016-10-09T08:00:59Z</time>
      </trkpt>
      <trkpt lat="47.75203" lon="0.50023">
        <ele>93.360954</ele>
        <time>2016-10-09T08:01:03Z</time>
      </trkpt>
      <trkpt lat="47.75209" lon="0.50024">
        <ele>93.520004</ele>
        <time>2016-10-09T08:01:07Z</time>
      </trkpt>
      <trkpt lat="47.75215" lon="0.50024">
        <ele>93.663872</ele>
        <time>2016-10-09T08:01:11Z</time>
      </trkpt>
      <trkpt lat="47.7522" lon="0.50023">
        <ele>93.784821</ele>
        <time>2016-10-09T08:01:14Z</time>
      </trkpt>
      <trkpt lat="47.75226" lon="0.50024">
        <ele>93.946518</ele>
        <time>2016-10-09T08:01:18Z</time>
      </trkpt>
      <trkpt lat="47.7523" lon="0.50025">
        <ele>94.088333</ele>
        <time>2016-10-09T08:01:22Z</time>
      </trkpt>
      <trkpt lat="47.75236" lon="0.50025">
        <ele>94.228226</ele>
        <time>2016-10-09T08:01:26Z</time>
      </trkpt>
      <trkpt lat="47.75242" lon="0.50025">
        <ele>94.388138</ele>
        <time>2016-10-09T08:01:30Z</time>
      </trkpt>
      <trkpt lat="47.75247" lon="0.50025">
        <ele>94.520126</ele>
        <time>2016-10-09T08:01:34Z</time>
      </trkpt>
      <trkpt lat="47.75255" lon="0.50024">
        <ele>94.833267</ele>
        <time>2016-10-09T08:01:38Z</time>
      </trkpt>
      <trkpt lat="47.7526" lon="0.50022">
        <ele>95.094208</ele>
        <time>2016-10-09T08:01:41Z</time>
      </trkpt>
      <trkpt lat="47.75267" lon="0.50023">
        <ele>95.462639</ele>
        <time>2016-10-09T08:01:46Z</time>
      </trkpt>
      <trkpt lat="47.75272" lon="0.50023">
        <ele>95.750664</ele>
        <time>2016-10-09T08:01:51Z</time>
      </trkpt>
      <trkpt lat="47.75278" lon="0.50023">
        <ele>96.058563</ele>
        <time>2016-10-09T08:01:55Z</time>
      </trkpt>
      <trkpt lat="47.75282" lon="0.50023">
        <ele>96.306961</ele>
        <time>2016-10-09T08:01:58Z</time>
      </trkpt>
      <trkpt lat="47.75288" lon="0.50022">
        <ele>96.565536</ele>
        <time>2016-10-09T08:02:03Z</time>
      </trkpt>
      <trkpt lat="47.75294" lon="0.50021">
        <ele>96.847267</ele>
        <time>2016-10-09T08:02:07Z</time>
      </trkpt>
      <trkpt lat="47.753" lon="0.50019">
        <ele>97.124199</ele>
        <time>2016-10-09T08:02:11Z</time>
      </trkpt>
      <trkpt lat="47.75305" lon="0.50017">
        <ele>97.330284</ele>
        <time>2016-10-09T08:02:15Z</time>
      </trkpt>
      <trkpt lat="47.75311" lon="0.50017">
        <ele>97.587158</ele>
        <time>2016-10-09T08:02:19Z</time>
      </trkpt>
      <trkpt lat="47.75316" lon="0.50017">
        <ele>97.873421</ele>
        <time>2016-10-09T08:02:23Z</time>
      </trkpt>
      <trkpt lat="47.75321" lon="0.50017">
        <ele>98.175522</ele>
        <time>2016-10-09T08:02:27Z</time>
      </trkpt>
      <trkpt lat="47.75326" lon="0.50018">
        <ele>98.500504</ele>
        <time>2016-10-09T08:02:33Z</time>
      </trkpt>
      <trkpt lat="47.7533" lon="0.50025">
        <ele>99.023605</ele>
        <time>2016-10-09T08:02:37Z</time>
      </trkpt>
      <trkpt lat="47.75331" lon="0.50032">
        <ele>99.410934</ele>
        <time>2016-10-09T08:02:41Z</time>
      </trkpt>
      <trkpt lat="47.75331" lon="0.5004">
        <ele>99.731384</ele>
        <time>2016-10-09T08:02:48Z</time>
      </trkpt>
      <trkpt lat="47.75328" lon="0.50045">
        <ele>99.863403</ele>
        <time>2016-10-09T08:02:59Z</time>
      </trkpt>
      <trkpt lat="47.75328" lon="0.50055">
        <ele>100.331436</ele>
        <time>2016-10-09T08:03:04Z</time>
      </trkpt>
      <trkpt lat="47.75327" lon="0.50062">
        <ele>100.540611</ele>
        <time>2016-10-09T08:03:09Z</time>
      </trkpt>
      <trkpt lat="47.75323" lon="0.50069">
        <ele>100.628265</ele>
        <time>2016-10-09T08:03:16Z</time>
      </trkpt>
      <trkpt lat="47.75322" lon="0.50076">
        <ele>100.835754</ele>
        <time>2016-10-09T08:03:22Z</time>
      </trkpt>
      <trkpt lat="47.7532" lon="0.50082">
        <ele>100.970657</ele>
        <time>2016-10-09T08:03:27Z</time>
      </trkpt>
      <trkpt lat="47.75318" lon="0.5009">
        <ele>101.471985</ele>
        <time>2016-10-09T08:03:33Z</time>
      </trkpt>
      <trkpt lat="47.75316" lon="0.50096">
        <ele>101.937637</ele>
        <time>2016-10-09T08:03:41Z</time>
      </trkpt>
      <trkpt lat="47.75314" lon="0.50103">
        <ele>102.345016</ele>
        <time>2016-10-09T08:03:47Z</time>
      </trkpt>
      <trkpt lat="47.75319" lon="0.50105">
        <ele>102.839355</ele>
        <time>2016-10-09T08:05:01Z</time>
      </trkpt>
      <trkpt lat="47.75326" lon="0.50109">
        <ele>103.685883</ele>
        <time>2016-10-09T08:05:07Z</time>
      </trkpt>
      <trkpt lat="47.75321" lon="0.50108">
        <ele>103.232346</ele>
        <time>2016-10-09T08:05:41Z</time>
      </trkpt>
      <trkpt lat="47.75316" lon="0.5011">
        <ele>103.084435</ele>
        <time>2016-10-09T08:05:45Z</time>
      </trkpt>
      <trkpt lat="47.7531" lon="0.50115">
        <ele>103.230743</ele>
        <time>2016-10-09T08:05:49Z</time>
      </trkpt>
      <trkpt lat="47.75307" lon="0.5012">
        <ele>103.510895</ele>
        <time>2016-10-09T08:05:52Z</time>
      </trkpt>
      <trkpt lat="47.75304" lon="0.50126">
        <ele>103.827209</ele>
        <time>2016-10-09T08:05:56Z</time>
      </trkpt>
      <trkpt lat="47.753" lon="0.50132">
        <ele>104.202576</ele>
        <time>2016-10-09T08:06:00Z</time>
      </trkpt>
      <trkpt lat="47.75299" lon="0.5014">
        <ele>104.906143</ele>
        <time>2016-10-09T08:06:04Z</time>
      </trkpt>
      <trkpt lat="47.75298" lon="0.50148">
        <ele>105.546837</ele>
        <time>2016-10-09T08:06:08Z</time>
      </trkpt>
      <trkpt lat="47.75297" lon="0.50155">
        <ele>106.159424</ele>
        <time>2016-10-09T08:06:12Z</time>
      </trkpt>
      <trkpt lat="47.75297" lon="0.50162">
        <ele>106.762703</ele>
        <time>2016-10-09T08:06:17Z</time>
      </trkpt>
      <trkpt lat="47.75295" lon="0.5017">
        <ele>107.256104</ele>
        <time>2016-10-09T08:06:22Z</time>
      </trkpt>
      <trkpt lat="47.75293" lon="0.50177">
        <ele>107.440857</ele>
        <time>2016-10-09T08:06:26Z</time>
      </trkpt>
      <trkpt lat="47.75292" lon="0.50185">
        <ele>107.666565</ele>
        <time>2016-10-09T08:06:30Z</time>
      </trkpt>
      <trkpt lat="47.7529" lon="0.50191">
        <ele>107.808472</ele>
        <time>2016-10-09T08:06:34Z</time>
      </trkpt>
      <trkpt lat="47.75288" lon="0.50197">
        <ele>107.897766</ele>
        <time>2016-10-09T08:06:38Z</time>
      </trkpt>
      <trkpt lat="47.75284" lon="0.50204">
        <ele>107.973633</ele>
        <time>2016-10-09T08:06:42Z</time>
      </trkpt>
      <trkpt lat="47.75281" lon="0.50212">
        <ele>108.125916</ele>
        <time>2016-10-09T08:06:47Z</time>
      </trkpt>
      <trkpt lat="47.75278" lon="0.50218">
        <ele>108.196167</ele>
        <time>2016-10-09T08:06:51Z</time>
      </trkpt>
      <trkpt lat="47.75275" lon="0.50225">
        <ele>108.27301</ele>
        <time>2016-10-09T08:06:55Z</time>
      </trkpt>
      <trkpt lat="47.75272" lon="0.50231">
        <ele>108.357056</ele>
        <time>2016-10-09T08:06:59Z</time>
      </trkpt>
      <trkpt lat="47.75269" lon="0.50238">
        <ele>108.449463</ele>
        <time>2016-10-09T08:07:03Z</time>
      </trkpt>
      <trkpt lat="47.75267" lon="0.50245">
        <ele>108.628235</ele>
        <time>2016-10-09T08:07:06Z</time>
      </trkpt>
      <trkpt lat="47.75266" lon="0.50253">
        <ele>108.756165</ele>
        <time>2016-10-09T08:07:10Z</time>
      </trkpt>
      <trkpt lat="47.75266" lon="0.5026">
        <ele>108.637512</ele>
        <time>2016-10-09T08:07:14Z</time>
      </trkpt>
      <trkpt lat="47.75266" lon="0.50267">
        <ele>108.53894</ele>
        <time>2016-10-09T08:07:18Z</time>
      </trkpt>
      <trkpt lat="47.75268" lon="0.50275">
        <ele>108.563416</ele>
        <time>2016-10-09T08:07:22Z</time>
      </trkpt>
      <trkpt lat="47.75271" lon="0.50282">
        <ele>108.648987</ele>
        <time>2016-10-09T08:07:26Z</time>
      </trkpt>
      <trkpt lat="47.75275" lon="0.50287">
        <ele>108.731567</ele>
        <time>2016-10-09T08:07:29Z</time>
      </trkpt>
      <trkpt lat="47.75279" lon="0.50294">
        <ele>108.861267</ele>
        <time>2016-10-09T08:07:34Z</time>
      </trkpt>
      <trkpt lat="47.75285" lon="0.50301">
        <ele>109.055115</ele>
        <time>2016-10-09T08:07:39Z</time>
      </trkpt>
      <trkpt lat="47.75291" lon="0.50305">
        <ele>109.325623</ele>
        <time>2016-10-09T08:07:44Z</time>
      </trkpt>
      <trkpt lat="47.75298" lon="0.50311">
        <ele>109.566284</ele>
        <time>2016-10-09T08:07:52Z</time>
      </trkpt>
      <trkpt lat="47.75302" lon="0.50314">
        <ele>109.740234</ele>
        <time>2016-10-09T08:07:56Z</time>
      </trkpt>
      <trkpt lat="47.75307" lon="0.5032">
        <ele>109.899597</ele>
        <time>2016-10-09T08:08:00Z</time>
      </trkpt>
      <trkpt lat="47.7531" lon="0.50325">
        <ele>109.983887</ele>
        <time>2016-10-09T08:08:04Z</time>
      </trkpt>
      <trkpt lat="47.75315" lon="0.50328">
        <ele>110.195496</ele>
        <time>2016-10-09T08:08:10Z</time>
      </trkpt>
      <trkpt lat="47.75321" lon="0.5033">
        <ele>110.434082</ele>
        <time>2016-10-09T08:08:14Z</time>
      </trkpt>
      <trkpt lat="47.75324" lon="0.50336">
        <ele>110.636353</ele>
        <time>2016-10-09T08:08:21Z</time>
      </trkpt>
      <trkpt lat="47.75327" lon="0.50342">
        <ele>110.89563</ele>
        <time>2016-10-09T08:08:25Z</time>
      </trkpt>
      <trkpt lat="47.75327" lon="0.5035">
        <ele>111.113647</ele>
        <time>2016-10-09T08:08:28Z</time>
      </trkpt>
      <trkpt lat="47.75327" lon="0.5036">
        <ele>111.360474</ele>
        <time>2016-10-09T08:08:32Z</time>
      </trkpt>
      <trkpt lat="47.75329" lon="0.50367">
        <ele>111.60144</ele>
        <time>2016-10-09T08:08:36Z</time>
      </trkpt>
      <trkpt lat="47.75331" lon="0.50373">
        <ele>111.837769</ele>
        <time>2016-10-09T08:08:40Z</time>
      </trkpt>
      <trkpt lat="47.7533" lon="0.5038">
        <ele>111.940796</ele>
        <time>2016-10-09T08:08:43Z</time>
      </trkpt>
      <trkpt lat="47.75332" lon="0.5039">
        <ele>112.276489</ele>
        <time>2016-10-09T08:08:48Z</time>
      </trkpt>
      <trkpt lat="47.75331" lon="0.50397">
        <ele>112.425781</ele>
        <time>2016-10-09T08:08:52Z</time>
      </trkpt>
      <trkpt lat="47.75332" lon="0.50405">
        <ele>112.661011</ele>
        <time>2016-10-09T08:08:56Z</time>
      </trkpt>
      <trkpt lat="47.75331" lon="0.50413">
        <ele>112.799194</ele>
        <time>2016-10-09T08:09:01Z</time>
      </trkpt>
      <trkpt lat="47.75331" lon="0.5042">
        <ele>113.016159</ele>
        <time>2016-10-09T08:09:05Z</time>
      </trkpt>
      <trkpt lat="47.75333" lon="0.50428">
        <ele>113.354218</ele>
        <time>2016-10-09T08:09:09Z</time>
      </trkpt>
      <trkpt lat="47.75333" lon="0.50435">
        <ele>113.646027</ele>
        <time>2016-10-09T08:09:13Z</time>
      </trkpt>
      <trkpt lat="47.75331" lon="0.50444">
        <ele>113.863708</ele>
        <time>2016-10-09T08:09:17Z</time>
      </trkpt>
      <trkpt lat="47.75332" lon="0.50452">
        <ele>114.171051</ele>
        <time>2016-10-09T08:09:21Z</time>
      </trkpt>
      <trkpt lat="47.75331" lon="0.50458">
        <ele>114.38868</ele>
        <time>2016-10-09T08:09:26Z</time>
      </trkpt>
      <trkpt lat="47.75331" lon="0.50465">
        <ele>114.588753</ele>
        <time>2016-10-09T08:09:31Z</time>
      </trkpt>
      <trkpt lat="47.75331" lon="0.50472">
        <ele>114.881935</ele>
        <time>2016-10-09T08:09:36Z</time>
      </trkpt>
      <trkpt lat="47.75332" lon="0.5048">
        <ele>115.206108</ele>
        <time>2016-10-09T08:09:41Z</time>
      </trkpt>
      <trkpt lat="47.75332" lon="0.50487">
        <ele>115.435783</ele>
        <time>2016-10-09T08:09:44Z</time>
      </trkpt>
      <trkpt lat="47.75331" lon="0.50495">
        <ele>115.692345</ele>
        <time>2016-10-09T08:09:49Z</time>
      </trkpt>
      <trkpt lat="47.75331" lon="0.50503">
        <ele>115.885567</ele>
        <time>2016-10-09T08:09:55Z</time>
      </trkpt>
      <trkpt lat="47.75331" lon="0.5051">
        <ele>115.961388</ele>
        <time>2016-10-09T08:09:59Z</time>
      </trkpt>
      <trkpt lat="47.75331" lon="0.50519">
        <ele>116.092506</ele>
        <time>2016-10-09T08:10:03Z</time>
      </trkpt>
      <trkpt lat="47.7533" lon="0.50527">
        <ele>116.123077</ele>
        <time>2016-10-09T08:10:07Z</time>
      </trkpt>
      <trkpt lat="47.75328" lon="0.50535">
        <ele>116.097961</ele>
        <time>2016-10-09T08:10:11Z</time>
      </trkpt>
      <trkpt lat="47.75327" lon="0.50544">
        <ele>116.154884</ele>
        <time>2016-10-09T08:10:15Z</time>
      </trkpt>
      <trkpt lat="47.75326" lon="0.50552">
        <ele>116.254456</ele>
        <time>2016-10-09T08:10:19Z</time>
      </trkpt>
      <trkpt lat="47.75326" lon="0.50559">
        <ele>116.342918</ele>
        <time>2016-10-09T08:10:22Z</time>
      </trkpt>
      <trkpt lat="47.75327" lon="0.50568">
        <ele>116.472244</ele>
        <time>2016-10-09T08:10:26Z</time>
      </trkpt>
      <trkpt lat="47.75327" lon="0.50575">
        <ele>116.561287</ele>
        <time>2016-10-09T08:10:29Z</time>
      </trkpt>
      <trkpt lat="47.75327" lon="0.50582">
        <ele>116.657501</ele>
        <time>2016-10-09T08:10:32Z</time>
      </trkpt>
      <trkpt lat="47.75327" lon="0.5059">
        <ele>116.714836</ele>
        <time>2016-10-09T08:10:36Z</time>
      </trkpt>
      <trkpt lat="47.75327" lon="0.50598">
        <ele>116.703178</ele>
        <time>2016-10-09T08:10:40Z</time>
      </trkpt>
      <trkpt lat="47.75327" lon="0.50606">
        <ele>116.709839</ele>
        <time>2016-10-09T08:10:44Z</time>
      </trkpt>
      <trkpt lat="47.75327" lon="0.50614">
        <ele>116.724052</ele>
        <time>2016-10-09T08:10:48Z</time>
      </trkpt>
      <trkpt lat="47.75327" lon="0.50622">
        <ele>116.738304</ele>
        <time>2016-10-09T08:10:52Z</time>
      </trkpt>
      <trkpt lat="47.75327" lon="0.50629">
        <ele>116.729538</ele>
        <time>2016-10-09T08:10:55Z</time>
      </trkpt>
      <trkpt lat="47.75327" lon="0.50638">
        <ele>116.733009</ele>
        <time>2016-10-09T08:11:00Z</time>
      </trkpt>
      <trkpt lat="47.75326" lon="0.50645">
        <ele>116.696533</ele>
        <time>2016-10-09T08:11:04Z</time>
      </trkpt>
      <trkpt lat="47.75325" lon="0.50653">
        <ele>116.697937</ele>
        <time>2016-10-09T08:11:08Z</time>
      </trkpt>
      <trkpt lat="47.75326" lon="0.5066">
        <ele>116.721336</ele>
        <time>2016-10-09T08:11:12Z</time>
      </trkpt>
      <trkpt lat="47.75327" lon="0.50668">
        <ele>116.73468</ele>
        <time>2016-10-09T08:11:17Z</time>
      </trkpt>
      <trkpt lat="47.75326" lon="0.50674">
        <ele>116.552734</ele>
        <time>2016-10-09T08:11:21Z</time>
      </trkpt>
      <trkpt lat="47.75327" lon="0.50682">
        <ele>116.390625</ele>
        <time>2016-10-09T08:11:25Z</time>
      </trkpt>
      <trkpt lat="47.75325" lon="0.50689">
        <ele>116.158691</ele>
        <time>2016-10-09T08:11:38Z</time>
      </trkpt>
      <trkpt lat="47.75329" lon="0.50691">
        <ele>116.281311</ele>
        <time>2016-10-09T08:11:50Z</time>
      </trkpt>
      <trkpt lat="47.75325" lon="0.50693">
        <ele>116.064941</ele>
        <time>2016-10-09T08:12:20Z</time>
      </trkpt>
      <trkpt lat="47.75322" lon="0.507">
        <ele>115.809631</ele>
        <time>2016-10-09T08:12:25Z</time>
      </trkpt>
      <trkpt lat="47.75319" lon="0.50707">
        <ele>115.529907</ele>
        <time>2016-10-09T08:12:30Z</time>
      </trkpt>
      <trkpt lat="47.75317" lon="0.50715">
        <ele>115.259705</ele>
        <time>2016-10-09T08:12:35Z</time>
      </trkpt>
      <trkpt lat="47.75315" lon="0.50722">
        <ele>115.007141</ele>
        <time>2016-10-09T08:12:39Z</time>
      </trkpt>
      <trkpt lat="47.75313" lon="0.5073">
        <ele>114.738647</ele>
        <time>2016-10-09T08:12:44Z</time>
      </trkpt>
      <trkpt lat="47.7531" lon="0.50739">
        <ele>114.403564</ele>
        <time>2016-10-09T08:12:49Z</time>
      </trkpt>
      <trkpt lat="47.75306" lon="0.50745">
        <ele>114.122437</ele>
        <time>2016-10-09T08:12:53Z</time>
      </trkpt>
      <trkpt lat="47.75303" lon="0.50751">
        <ele>113.878883</ele>
        <time>2016-10-09T08:12:57Z</time>
      </trkpt>
      <trkpt lat="47.753" lon="0.50757">
        <ele>113.593208</ele>
        <time>2016-10-09T08:13:01Z</time>
      </trkpt>
      <trkpt lat="47.75298" lon="0.50764">
        <ele>113.315193</ele>
        <time>2016-10-09T08:13:06Z</time>
      </trkpt>
      <trkpt lat="47.75294" lon="0.50771">
        <ele>112.971909</ele>
        <time>2016-10-09T08:13:10Z</time>
      </trkpt>
      <trkpt lat="47.7529" lon="0.50779">
        <ele>112.571274</ele>
        <time>2016-10-09T08:13:14Z</time>
      </trkpt>
      <trkpt lat="47.75287" lon="0.50785">
        <ele>112.28009</ele>
        <time>2016-10-09T08:13:18Z</time>
      </trkpt>
      <trkpt lat="47.75285" lon="0.50791">
        <ele>111.974686</ele>
        <time>2016-10-09T08:13:22Z</time>
      </trkpt>
      <trkpt lat="47.75283" lon="0.50798">
        <ele>111.683441</ele>
        <time>2016-10-09T08:13:26Z</time>
      </trkpt>
      <trkpt lat="47.75279" lon="0.50802">
        <ele>111.381073</ele>
        <time>2016-10-09T08:13:30Z</time>
      </trkpt>
      <trkpt lat="47.75277" lon="0.50809">
        <ele>111.098679</ele>
        <time>2016-10-09T08:13:35Z</time>
      </trkpt>
      <trkpt lat="47.75275" lon="0.50815">
        <ele>110.788277</ele>
        <time>2016-10-09T08:13:41Z</time>
      </trkpt>
      <trkpt lat="47.75272" lon="0.5082">
        <ele>110.477295</ele>
        <time>2016-10-09T08:13:45Z</time>
      </trkpt>
      <trkpt lat="47.7527" lon="0.50827">
        <ele>110.189705</ele>
        <time>2016-10-09T08:13:49Z</time>
      </trkpt>
      <trkpt lat="47.75268" lon="0.50834">
        <ele>109.837044</ele>
        <time>2016-10-09T08:13:53Z</time>
      </trkpt>
      <trkpt lat="47.75265" lon="0.50841">
        <ele>109.560638</ele>
        <time>2016-10-09T08:13:58Z</time>
      </trkpt>
      <trkpt lat="47.7526" lon="0.50846">
        <ele>109.183151</ele>
        <time>2016-10-09T08:14:04Z</time>
      </trkpt>
      <trkpt lat="47.75257" lon="0.50852">
        <ele>108.91864</ele>
        <time>2016-10-09T08:14:08Z</time>
      </trkpt>
      <trkpt lat="47.75249" lon="0.50862">
        <ele>108.317261</ele>
        <time>2016-10-09T08:14:18Z</time>
      </trkpt>
      <trkpt lat="47.75247" lon="0.50869">
        <ele>108.175896</ele>
        <time>2016-10-09T08:14:25Z</time>
      </trkpt>
      <trkpt lat="47.75244" lon="0.50877">
        <ele>107.99556</ele>
        <time>2016-10-09T08:14:32Z</time>
      </trkpt>
      <trkpt lat="47.7524" lon="0.50884">
        <ele>107.827087</ele>
        <time>2016-10-09T08:14:35Z</time>
      </trkpt>
      <trkpt lat="47.75237" lon="0.5089">
        <ele>107.69059</ele>
        <time>2016-10-09T08:14:40Z</time>
      </trkpt>
      <trkpt lat="47.75236" lon="0.50897">
        <ele>107.510078</ele>
        <time>2016-10-09T08:14:46Z</time>
      </trkpt>
      <trkpt lat="47.75233" lon="0.50904">
        <ele>107.338356</ele>
        <time>2016-10-09T08:14:50Z</time>
      </trkpt>
      <trkpt lat="47.7523" lon="0.50909">
        <ele>107.201302</ele>
        <time>2016-10-09T08:14:53Z</time>
      </trkpt>
      <trkpt lat="47.75226" lon="0.50916">
        <ele>107.022583</ele>
        <time>2016-10-09T08:14:57Z</time>
      </trkpt>
      <trkpt lat="47.75223" lon="0.50924">
        <ele>106.644928</ele>
        <time>2016-10-09T08:15:02Z</time>
      </trkpt>
      <trkpt lat="47.75221" lon="0.50931">
        <ele>106.242729</ele>
        <time>2016-10-09T08:15:06Z</time>
      </trkpt>
      <trkpt lat="47.75217" lon="0.50943">
        <ele>105.587936</ele>
        <time>2016-10-09T08:15:10Z</time>
      </trkpt>
      <trkpt lat="47.75213" lon="0.5095">
        <ele>105.237823</ele>
        <time>2016-10-09T08:15:15Z</time>
      </trkpt>
      <trkpt lat="47.75207" lon="0.50956">
        <ele>104.88736</ele>
        <time>2016-10-09T08:15:24Z</time>
      </trkpt>
      <trkpt lat="47.75204" lon="0.50962">
        <ele>104.550766</ele>
        <time>2016-10-09T08:15:27Z</time>
      </trkpt>
      <trkpt lat="47.752" lon="0.50975">
        <ele>103.813721</ele>
        <time>2016-10-09T08:15:31Z</time>
      </trkpt>
      <trkpt lat="47.75199" lon="0.50982">
        <ele>103.405594</ele>
        <time>2016-10-09T08:15:35Z</time>
      </trkpt>
      <trkpt lat="47.75197" lon="0.50988">
        <ele>103.033257</ele>
        <time>2016-10-09T08:15:39Z</time>
      </trkpt>
      <trkpt lat="47.75194" lon="0.50994">
        <ele>102.678864</ele>
        <time>2016-10-09T08:15:44Z</time>
      </trkpt>
      <trkpt lat="47.7519" lon="0.51">
        <ele>102.24054</ele>
        <time>2016-10-09T08:15:52Z</time>
      </trkpt>
      <trkpt lat="47.75187" lon="0.51008">
        <ele>101.602386</ele>
        <time>2016-10-09T08:15:56Z</time>
      </trkpt>
      <trkpt lat="47.75184" lon="0.51018">
        <ele>100.66169</ele>
        <time>2016-10-09T08:16:00Z</time>
      </trkpt>
      <trkpt lat="47.75183" lon="0.51027">
        <ele>99.78212</ele>
        <time>2016-10-09T08:16:05Z</time>
      </trkpt>
      <trkpt lat="47.75182" lon="0.51034">
        <ele>99.047394</ele>
        <time>2016-10-09T08:16:09Z</time>
      </trkpt>
      <trkpt lat="47.75179" lon="0.51041">
        <ele>98.282921</ele>
        <time>2016-10-09T08:16:14Z</time>
      </trkpt>
      <trkpt lat="47.75177" lon="0.51052">
        <ele>97.142769</ele>
        <time>2016-10-09T08:16:20Z</time>
      </trkpt>
      <trkpt lat="47.75179" lon="0.51063">
        <ele>96.224289</ele>
        <time>2016-10-09T08:16:31Z</time>
      </trkpt>
      <trkpt lat="47.75176" lon="0.51073">
        <ele>95.014908</ele>
        <time>2016-10-09T08:16:47Z</time>
      </trkpt>
      <trkpt lat="47.7517" lon="0.51084">
        <ele>93.243904</ele>
        <time>2016-10-09T08:16:53Z</time>
      </trkpt>
      <trkpt lat="47.75167" lon="0.51099">
        <ele>91.92791</ele>
        <time>2016-10-09T08:16:58Z</time>
      </trkpt>
      <trkpt lat="47.75166" lon="0.51108">
        <ele>91.172859</ele>
        <time>2016-10-09T08:17:03Z</time>
      </trkpt>
      <trkpt lat="47.75164" lon="0.51119">
        <ele>90.310776</ele>
        <time>2016-10-09T08:17:07Z</time>
      </trkpt>
      <trkpt lat="47.75162" lon="0.5113">
        <ele>89.398712</ele>
        <time>2016-10-09T08:17:12Z</time>
      </trkpt>
      <trkpt lat="47.75163" lon="0.51138">
        <ele>88.844925</ele>
        <time>2016-10-09T08:17:15Z</time>
      </trkpt>
      <trkpt lat="47.75162" lon="0.51145">
        <ele>88.310112</ele>
        <time>2016-10-09T08:17:19Z</time>
      </trkpt>
      <trkpt lat="47.75163" lon="0.51155">
        <ele>87.651924</ele>
        <time>2016-10-09T08:17:29Z</time>
      </trkpt>
      <trkpt lat="47.75168" lon="0.51158">
        <ele>87.708626</ele>
        <time>2016-10-09T08:17:35Z</time>
      </trkpt>
      <trkpt lat="47.75171" lon="0.51164">
        <ele>87.811035</ele>
        <time>2016-10-09T08:17:45Z</time>
      </trkpt>
      <trkpt lat="47.75173" lon="0.51171">
        <ele>87.585922</ele>
        <time>2016-10-09T08:17:51Z</time>
      </trkpt>
      <trkpt lat="47.75174" lon="0.5118">
        <ele>86.986</ele>
        <time>2016-10-09T08:17:55Z</time>
      </trkpt>
      <trkpt lat="47.75173" lon="0.51194">
        <ele>85.856361</ele>
        <time>2016-10-09T08:18:00Z</time>
      </trkpt>
      <trkpt lat="47.75172" lon="0.51204">
        <ele>84.997475</ele>
        <time>2016-10-09T08:18:06Z</time>
      </trkpt>
      <trkpt lat="47.7517" lon="0.5122">
        <ele>83.573395</ele>
        <time>2016-10-09T08:18:11Z</time>
      </trkpt>
      <trkpt lat="47.7517" lon="0.5123">
        <ele>82.781448</ele>
        <time>2016-10-09T08:18:14Z</time>
      </trkpt>
      <trkpt lat="47.75169" lon="0.51242">
        <ele>81.746368</ele>
        <time>2016-10-09T08:18:18Z</time>
      </trkpt>
      <trkpt lat="47.75168" lon="0.51249">
        <ele>81.183731</ele>
        <time>2016-10-09T08:18:21Z</time>
      </trkpt>
      <trkpt lat="47.75166" lon="0.51257">
        <ele>81.01976</ele>
        <time>2016-10-09T08:18:26Z</time>
      </trkpt>
      <trkpt lat="47.75163" lon="0.51268">
        <ele>81.043564</ele>
        <time>2016-10-09T08:18:30Z</time>
      </trkpt>
      <trkpt lat="47.75162" lon="0.51278">
        <ele>81.145027</ele>
        <time>2016-10-09T08:18:34Z</time>
      </trkpt>
      <trkpt lat="47.75161" lon="0.5129">
        <ele>81.352303</ele>
        <time>2016-10-09T08:18:38Z</time>
      </trkpt>
      <trkpt lat="47.7516" lon="0.51298">
        <ele>81.517288</ele>
        <time>2016-10-09T08:18:42Z</time>
      </trkpt>
      <trkpt lat="47.7516" lon="0.51308">
        <ele>81.720535</ele>
        <time>2016-10-09T08:18:58Z</time>
      </trkpt>
      <trkpt lat="47.75165" lon="0.51306">
        <ele>81.672264</ele>
        <time>2016-10-09T08:19:25Z</time>
      </trkpt>
      <trkpt lat="47.75168" lon="0.51301">
        <ele>81.642807</ele>
        <time>2016-10-09T08:19:31Z</time>
      </trkpt>
      <trkpt lat="47.75165" lon="0.51307">
        <ele>81.690941</ele>
        <time>2016-10-09T08:20:06Z</time>
      </trkpt>
      <trkpt lat="47.75164" lon="0.513">
        <ele>81.583038</ele>
        <time>2016-10-09T08:20:42Z</time>
      </trkpt>
      <trkpt lat="47.75166" lon="0.51307">
        <ele>81.687622</ele>
        <time>2016-10-09T08:20:58Z</time>
      </trkpt>
      <trkpt lat="47.75173" lon="0.51312">
        <ele>81.876396</ele>
        <time>2016-10-09T08:21:08Z</time>
      </trkpt>
      <trkpt lat="47.75177" lon="0.51314">
        <ele>81.977448</ele>
        <time>2016-10-09T08:21:12Z</time>
      </trkpt>
      <trkpt lat="47.75185" lon="0.51319">
        <ele>82.085045</ele>
        <time>2016-10-09T08:21:24Z</time>
      </trkpt>
      <trkpt lat="47.75189" lon="0.51321">
        <ele>82.136841</ele>
        <time>2016-10-09T08:21:29Z</time>
      </trkpt>
      <trkpt lat="47.75195" lon="0.51326">
        <ele>82.129272</ele>
        <time>2016-10-09T08:21:32Z</time>
      </trkpt>
      <trkpt lat="47.75199" lon="0.51329">
        <ele>82.084084</ele>
        <time>2016-10-09T08:21:36Z</time>
      </trkpt>
      <trkpt lat="47.75204" lon="0.51333">
        <ele>82.013893</ele>
        <time>2016-10-09T08:21:40Z</time>
      </trkpt>
      <trkpt lat="47.75209" lon="0.51337">
        <ele>82.419403</ele>
        <time>2016-10-09T08:21:44Z</time>
      </trkpt>
      <trkpt lat="47.75212" lon="0.51342">
        <ele>82.979309</ele>
        <time>2016-10-09T08:21:48Z</time>
      </trkpt>
      <trkpt lat="47.75217" lon="0.51347">
        <ele>83.457581</ele>
        <time>2016-10-09T08:21:52Z</time>
      </trkpt>
      <trkpt lat="47.75224" lon="0.51352">
        <ele>83.750069</ele>
        <time>2016-10-09T08:21:56Z</time>
      </trkpt>
      <trkpt lat="47.75228" lon="0.51356">
        <ele>83.91748</ele>
        <time>2016-10-09T08:22:01Z</time>
      </trkpt>
      <trkpt lat="47.75232" lon="0.51359">
        <ele>84.005547</ele>
        <time>2016-10-09T08:22:04Z</time>
      </trkpt>
      <trkpt lat="47.75237" lon="0.51361">
        <ele>83.939323</ele>
        <time>2016-10-09T08:22:08Z</time>
      </trkpt>
      <trkpt lat="47.75244" lon="0.51365">
        <ele>83.853348</ele>
        <time>2016-10-09T08:22:13Z</time>
      </trkpt>
      <trkpt lat="47.7525" lon="0.51369">
        <ele>83.729103</ele>
        <time>2016-10-09T08:22:17Z</time>
      </trkpt>
      <trkpt lat="47.75255" lon="0.51374">
        <ele>83.916138</ele>
        <time>2016-10-09T08:22:21Z</time>
      </trkpt>
      <trkpt lat="47.7526" lon="0.51374">
        <ele>83.903442</ele>
        <time>2016-10-09T08:22:27Z</time>
      </trkpt>
      <trkpt lat="47.75265" lon="0.51375">
        <ele>83.924026</ele>
        <time>2016-10-09T08:22:33Z</time>
      </trkpt>
      <trkpt lat="47.7527" lon="0.51377">
        <ele>83.956604</ele>
        <time>2016-10-09T08:22:38Z</time>
      </trkpt>
      <trkpt lat="47.75274" lon="0.51381">
        <ele>84.061142</ele>
        <time>2016-10-09T08:22:43Z</time>
      </trkpt>
      <trkpt lat="47.75278" lon="0.51387">
        <ele>84.263855</ele>
        <time>2016-10-09T08:22:53Z</time>
      </trkpt>
      <trkpt lat="47.75283" lon="0.51389">
        <ele>84.283615</ele>
        <time>2016-10-09T08:22:57Z</time>
      </trkpt>
      <trkpt lat="47.75288" lon="0.5139">
        <ele>84.24942</ele>
        <time>2016-10-09T08:23:01Z</time>
      </trkpt>
      <trkpt lat="47.75293" lon="0.51392">
        <ele>84.260338</ele>
        <time>2016-10-09T08:23:05Z</time>
      </trkpt>
      <trkpt lat="47.75297" lon="0.51395">
        <ele>84.262962</ele>
        <time>2016-10-09T08:23:08Z</time>
      </trkpt>
      <trkpt lat="47.75302" lon="0.51399">
        <ele>84.285706</ele>
        <time>2016-10-09T08:23:12Z</time>
      </trkpt>
      <trkpt lat="47.75307" lon="0.51401">
        <ele>84.272217</ele>
        <time>2016-10-09T08:23:15Z</time>
      </trkpt>
      <trkpt lat="47.75313" lon="0.51406">
        <ele>84.283607</ele>
        <time>2016-10-09T08:23:19Z</time>
      </trkpt>
      <trkpt lat="47.75318" lon="0.51408">
        <ele>84.210457</ele>
        <time>2016-10-09T08:23:24Z</time>
      </trkpt>
      <trkpt lat="47.75323" lon="0.51409">
        <ele>84.12352</ele>
        <time>2016-10-09T08:23:28Z</time>
      </trkpt>
      <trkpt lat="47.75328" lon="0.51412">
        <ele>84.04966</ele>
        <time>2016-10-09T08:23:33Z</time>
      </trkpt>
      <trkpt lat="47.75333" lon="0.51416">
        <ele>83.99704</ele>
        <time>2016-10-09T08:23:37Z</time>
      </trkpt>
      <trkpt lat="47.75338" lon="0.51419">
        <ele>84.271187</ele>
        <time>2016-10-09T08:23:42Z</time>
      </trkpt>
      <trkpt lat="47.75344" lon="0.51422">
        <ele>84.547798</ele>
        <time>2016-10-09T08:23:47Z</time>
      </trkpt>
      <trkpt lat="47.75349" lon="0.51424">
        <ele>84.69944</ele>
        <time>2016-10-09T08:23:52Z</time>
      </trkpt>
      <trkpt lat="47.75353" lon="0.51425">
        <ele>84.869797</ele>
        <time>2016-10-09T08:23:56Z</time>
      </trkpt>
      <trkpt lat="47.75359" lon="0.51427">
        <ele>84.994125</ele>
        <time>2016-10-09T08:24:01Z</time>
      </trkpt>
      <trkpt lat="47.75364" lon="0.51426">
        <ele>84.843056</ele>
        <time>2016-10-09T08:24:06Z</time>
      </trkpt>
      <trkpt lat="47.75369" lon="0.51427">
        <ele>84.930473</ele>
        <time>2016-10-09T08:24:10Z</time>
      </trkpt>
      <trkpt lat="47.75375" lon="0.51426">
        <ele>84.873177</ele>
        <time>2016-10-09T08:24:15Z</time>
      </trkpt>
      <trkpt lat="47.75379" lon="0.51428">
        <ele>84.970856</ele>
        <time>2016-10-09T08:24:18Z</time>
      </trkpt>
      <trkpt lat="47.75384" lon="0.5143">
        <ele>85.104279</ele>
        <time>2016-10-09T08:24:22Z</time>
      </trkpt>
      <trkpt lat="47.7539" lon="0.51432">
        <ele>85.241249</ele>
        <time>2016-10-09T08:24:26Z</time>
      </trkpt>
      <trkpt lat="47.75395" lon="0.51437">
        <ele>85.611351</ele>
        <time>2016-10-09T08:24:30Z</time>
      </trkpt>
      <trkpt lat="47.754" lon="0.51442">
        <ele>85.974823</ele>
        <time>2016-10-09T08:24:33Z</time>
      </trkpt>
      <trkpt lat="47.75403" lon="0.51451">
        <ele>86.645287</ele>
        <time>2016-10-09T08:24:37Z</time>
      </trkpt>
      <trkpt lat="47.75404" lon="0.51459">
        <ele>87.264885</ele>
        <time>2016-10-09T08:24:42Z</time>
      </trkpt>
      <trkpt lat="47.75402" lon="0.51466">
        <ele>87.824066</ele>
        <time>2016-10-09T08:24:45Z</time>
      </trkpt>
      <trkpt lat="47.75401" lon="0.51473">
        <ele>88.461746</ele>
        <time>2016-10-09T08:24:50Z</time>
      </trkpt>
      <trkpt lat="47.75399" lon="0.51481">
        <ele>89.074562</ele>
        <time>2016-10-09T08:24:55Z</time>
      </trkpt>
      <trkpt lat="47.754" lon="0.51488">
        <ele>89.640251</ele>
        <time>2016-10-09T08:24:59Z</time>
      </trkpt>
      <trkpt lat="47.75399" lon="0.51495">
        <ele>90.23851</ele>
        <time>2016-10-09T08:25:03Z</time>
      </trkpt>
      <trkpt lat="47.75398" lon="0.51502">
        <ele>91.032166</ele>
        <time>2016-10-09T08:25:07Z</time>
      </trkpt>
      <trkpt lat="47.75397" lon="0.51511">
        <ele>92.356842</ele>
        <time>2016-10-09T08:25:12Z</time>
      </trkpt>
      <trkpt lat="47.75395" lon="0.51519">
        <ele>93.604469</ele>
        <time>2016-10-09T08:25:16Z</time>
      </trkpt>
      <trkpt lat="47.75391" lon="0.51524">
        <ele>94.439911</ele>
        <time>2016-10-09T08:25:20Z</time>
      </trkpt>
      <trkpt lat="47.75389" lon="0.51531">
        <ele>95.385223</ele>
        <time>2016-10-09T08:25:24Z</time>
      </trkpt>
      <trkpt lat="47.75388" lon="0.51538">
        <ele>96.490417</ele>
        <time>2016-10-09T08:25:28Z</time>
      </trkpt>
      <trkpt lat="47.75386" lon="0.51545">
        <ele>97.460152</ele>
        <time>2016-10-09T08:25:32Z</time>
      </trkpt>
      <trkpt lat="47.75385" lon="0.51553">
        <ele>98.692169</ele>
        <time>2016-10-09T08:25:36Z</time>
      </trkpt>
      <trkpt lat="47.75384" lon="0.5156">
        <ele>99.687912</ele>
        <time>2016-10-09T08:25:40Z</time>
      </trkpt>
      <trkpt lat="47.75382" lon="0.51568">
        <ele>100.853264</ele>
        <time>2016-10-09T08:25:45Z</time>
      </trkpt>
      <trkpt lat="47.75379" lon="0.51578">
        <ele>102.275101</ele>
        <time>2016-10-09T08:25:50Z</time>
      </trkpt>
      <trkpt lat="47.75378" lon="0.51585">
        <ele>103.101974</ele>
        <time>2016-10-09T08:25:53Z</time>
      </trkpt>
      <trkpt lat="47.75375" lon="0.51592">
        <ele>103.543869</ele>
        <time>2016-10-09T08:25:58Z</time>
      </trkpt>
      <trkpt lat="47.75373" lon="0.51598">
        <ele>103.952019</ele>
        <time>2016-10-09T08:26:02Z</time>
      </trkpt>
      <trkpt lat="47.75372" lon="0.51605">
        <ele>104.432014</ele>
        <time>2016-10-09T08:26:07Z</time>
      </trkpt>
      <trkpt lat="47.75372" lon="0.51612">
        <ele>104.869537</ele>
        <time>2016-10-09T08:26:13Z</time>
      </trkpt>
      <trkpt lat="47.75372" lon="0.5162">
        <ele>105.363846</ele>
        <time>2016-10-09T08:26:19Z</time>
      </trkpt>
      <trkpt lat="47.7537" lon="0.51627">
        <ele>105.771614</ele>
        <time>2016-10-09T08:26:23Z</time>
      </trkpt>
      <trkpt lat="47.7537" lon="0.51634">
        <ele>106.236412</ele>
        <time>2016-10-09T08:26:28Z</time>
      </trkpt>
      <trkpt lat="47.75371" lon="0.51642">
        <ele>106.745087</ele>
        <time>2016-10-09T08:26:31Z</time>
      </trkpt>
      <trkpt lat="47.75373" lon="0.51649">
        <ele>107.267654</ele>
        <time>2016-10-09T08:26:34Z</time>
      </trkpt>
      <trkpt lat="47.75375" lon="0.51655">
        <ele>107.7332</ele>
        <time>2016-10-09T08:26:38Z</time>
      </trkpt>
      <trkpt lat="47.75378" lon="0.51661">
        <ele>108.197357</ele>
        <time>2016-10-09T08:26:42Z</time>
      </trkpt>
      <trkpt lat="47.75378" lon="0.51668">
        <ele>108.681068</ele>
        <time>2016-10-09T08:26:47Z</time>
      </trkpt>
      <trkpt lat="47.75379" lon="0.51676">
        <ele>109.071358</ele>
        <time>2016-10-09T08:26:52Z</time>
      </trkpt>
      <trkpt lat="47.75382" lon="0.51683">
        <ele>109.48085</ele>
        <time>2016-10-09T08:26:58Z</time>
      </trkpt>
      <trkpt lat="47.75381" lon="0.51691">
        <ele>109.836327</ele>
        <time>2016-10-09T08:27:04Z</time>
      </trkpt>
      <trkpt lat="47.75385" lon="0.51702">
        <ele>110.434906</ele>
        <time>2016-10-09T08:27:12Z</time>
      </trkpt>
      <trkpt lat="47.75387" lon="0.51708">
        <ele>110.775536</ele>
        <time>2016-10-09T08:27:18Z</time>
      </trkpt>
      <trkpt lat="47.75387" lon="0.51715">
        <ele>111.083916</ele>
        <time>2016-10-09T08:27:22Z</time>
      </trkpt>
      <trkpt lat="47.75388" lon="0.51723">
        <ele>111.441025</ele>
        <time>2016-10-09T08:27:27Z</time>
      </trkpt>
      <trkpt lat="47.75389" lon="0.51729">
        <ele>111.757736</ele>
        <time>2016-10-09T08:27:31Z</time>
      </trkpt>
      <trkpt lat="47.75388" lon="0.51738">
        <ele>112.11377</ele>
        <time>2016-10-09T08:27:35Z</time>
      </trkpt>
      <trkpt lat="47.75388" lon="0.51744">
        <ele>112.40937</ele>
        <time>2016-10-09T08:27:41Z</time>
      </trkpt>
      <trkpt lat="47.75388" lon="0.51751">
        <ele>112.676086</ele>
        <time>2016-10-09T08:27:49Z</time>
      </trkpt>
      <trkpt lat="47.75383" lon="0.51753">
        <ele>112.664917</ele>
        <time>2016-10-09T08:27:55Z</time>
      </trkpt>
      <trkpt lat="47.75378" lon="0.51753">
        <ele>112.59137</ele>
        <time>2016-10-09T08:28:00Z</time>
      </trkpt>
      <trkpt lat="47.75372" lon="0.51753">
        <ele>112.527954</ele>
        <time>2016-10-09T08:28:05Z</time>
      </trkpt>
      <trkpt lat="47.75367" lon="0.51752">
        <ele>112.456848</ele>
        <time>2016-10-09T08:28:09Z</time>
      </trkpt>
      <trkpt lat="47.75362" lon="0.51749">
        <ele>112.283279</ele>
        <time>2016-10-09T08:28:14Z</time>
      </trkpt>
      <trkpt lat="47.75357" lon="0.51749">
        <ele>112.202835</ele>
        <time>2016-10-09T08:28:19Z</time>
      </trkpt>
      <trkpt lat="47.75353" lon="0.51747">
        <ele>112.086388</ele>
        <time>2016-10-09T08:28:23Z</time>
      </trkpt>
      <trkpt lat="47.75348" lon="0.51744">
        <ele>111.846199</ele>
        <time>2016-10-09T08:28:27Z</time>
      </trkpt>
      <trkpt lat="47.75343" lon="0.51744">
        <ele>111.779343</ele>
        <time>2016-10-09T08:28:31Z</time>
      </trkpt>
      <trkpt lat="47.75339" lon="0.51746">
        <ele>111.815186</ele>
        <time>2016-10-09T08:28:36Z</time>
      </trkpt>
      <trkpt lat="47.75334" lon="0.51745">
        <ele>111.718079</ele>
        <time>2016-10-09T08:28:40Z</time>
      </trkpt>
      <trkpt lat="47.75329" lon="0.51746">
        <ele>111.891777</ele>
        <time>2016-10-09T08:28:44Z</time>
      </trkpt>
      <trkpt lat="47.75323" lon="0.51745">
        <ele>112.074638</ele>
        <time>2016-10-09T08:28:48Z</time>
      </trkpt>
      <trkpt lat="47.75318" lon="0.51744">
        <ele>112.209915</ele>
        <time>2016-10-09T08:28:52Z</time>
      </trkpt>
      <trkpt lat="47.75313" lon="0.51744">
        <ele>112.396072</ele>
        <time>2016-10-09T08:28:56Z</time>
      </trkpt>
      <trkpt lat="47.75308" lon="0.51744">
        <ele>112.555023</ele>
        <time>2016-10-09T08:29:00Z</time>
      </trkpt>
      <trkpt lat="47.75302" lon="0.51742">
        <ele>112.72728</ele>
        <time>2016-10-09T08:29:04Z</time>
      </trkpt>
      <trkpt lat="47.75297" lon="0.51742">
        <ele>112.885376</ele>
        <time>2016-10-09T08:29:08Z</time>
      </trkpt>
      <trkpt lat="47.75292" lon="0.51742">
        <ele>113.112595</ele>
        <time>2016-10-09T08:29:12Z</time>
      </trkpt>
      <trkpt lat="47.75286" lon="0.5174">
        <ele>113.240692</ele>
        <time>2016-10-09T08:29:17Z</time>
      </trkpt>
      <trkpt lat="47.75282" lon="0.51739">
        <ele>113.365952</ele>
        <time>2016-10-09T08:29:21Z</time>
      </trkpt>
      <trkpt lat="47.75277" lon="0.51738">
        <ele>113.476082</ele>
        <time>2016-10-09T08:29:24Z</time>
      </trkpt>
      <trkpt lat="47.75272" lon="0.51737">
        <ele>113.662888</ele>
        <time>2016-10-09T08:29:28Z</time>
      </trkpt>
      <trkpt lat="47.75267" lon="0.51738">
        <ele>113.886581</ele>
        <time>2016-10-09T08:29:32Z</time>
      </trkpt>
      <trkpt lat="47.75262" lon="0.51737">
        <ele>114.057304</ele>
        <time>2016-10-09T08:29:36Z</time>
      </trkpt>
      <trkpt lat="47.75258" lon="0.51737">
        <ele>114.231911</ele>
        <time>2016-10-09T08:29:40Z</time>
      </trkpt>
      <trkpt lat="47.75252" lon="0.51737">
        <ele>114.452217</ele>
        <time>2016-10-09T08:29:44Z</time>
      </trkpt>
      <trkpt lat="47.75247" lon="0.51738">
        <ele>114.712402</ele>
        <time>2016-10-09T08:29:48Z</time>
      </trkpt>
      <trkpt lat="47.75243" lon="0.51739">
        <ele>114.971008</ele>
        <time>2016-10-09T08:29:52Z</time>
      </trkpt>
      <trkpt lat="47.75237" lon="0.51739">
        <ele>115.231934</ele>
        <time>2016-10-09T08:29:57Z</time>
      </trkpt>
      <trkpt lat="47.75232" lon="0.5174">
        <ele>115.483521</ele>
        <time>2016-10-09T08:30:01Z</time>
      </trkpt>
      <trkpt lat="47.75227" lon="0.51739">
        <ele>115.737183</ele>
        <time>2016-10-09T08:30:06Z</time>
      </trkpt>
      <trkpt lat="47.75221" lon="0.5174">
        <ele>116.011414</ele>
        <time>2016-10-09T08:30:10Z</time>
      </trkpt>
      <trkpt lat="47.75216" lon="0.51741">
        <ele>116.313232</ele>
        <time>2016-10-09T08:30:14Z</time>
      </trkpt>
      <trkpt lat="47.75211" lon="0.51743">
        <ele>116.623718</ele>
        <time>2016-10-09T08:30:19Z</time>
      </trkpt>
      <trkpt lat="47.75206" lon="0.51744">
        <ele>116.885803</ele>
        <time>2016-10-09T08:30:23Z</time>
      </trkpt>
      <trkpt lat="47.75201" lon="0.51744">
        <ele>117.158813</ele>
        <time>2016-10-09T08:30:27Z</time>
      </trkpt>
      <trkpt lat="47.75196" lon="0.51744">
        <ele>117.361572</ele>
        <time>2016-10-09T08:30:31Z</time>
      </trkpt>
      <trkpt lat="47.7519" lon="0.51743">
        <ele>117.628174</ele>
        <time>2016-10-09T08:30:36Z</time>
      </trkpt>
      <trkpt lat="47.75185" lon="0.51742">
        <ele>117.812439</ele>
        <time>2016-10-09T08:30:40Z</time>
      </trkpt>
      <trkpt lat="47.75181" lon="0.51739">
        <ele>117.914001</ele>
        <time>2016-10-09T08:30:45Z</time>
      </trkpt>
      <trkpt lat="47.75176" lon="0.51738">
        <ele>118.091614</ele>
        <time>2016-10-09T08:30:49Z</time>
      </trkpt>
      <trkpt lat="47.75171" lon="0.51735">
        <ele>118.231506</ele>
        <time>2016-10-09T08:30:53Z</time>
      </trkpt>
      <trkpt lat="47.75166" lon="0.51732">
        <ele>118.371788</ele>
        <time>2016-10-09T08:30:58Z</time>
      </trkpt>
      <trkpt lat="47.75161" lon="0.51729">
        <ele>118.44873</ele>
        <time>2016-10-09T08:31:02Z</time>
      </trkpt>
      <trkpt lat="47.75157" lon="0.51727">
        <ele>118.531631</ele>
        <time>2016-10-09T08:31:06Z</time>
      </trkpt>
      <trkpt lat="47.75153" lon="0.51724">
        <ele>118.598221</ele>
        <time>2016-10-09T08:31:10Z</time>
      </trkpt>
      <trkpt lat="47.75148" lon="0.5172">
        <ele>118.687836</ele>
        <time>2016-10-09T08:31:15Z</time>
      </trkpt>
      <trkpt lat="47.75143" lon="0.51717">
        <ele>118.77829</ele>
        <time>2016-10-09T08:31:20Z</time>
      </trkpt>
      <trkpt lat="47.75138" lon="0.51714">
        <ele>118.874641</ele>
        <time>2016-10-09T08:31:24Z</time>
      </trkpt>
      <trkpt lat="47.75132" lon="0.51711">
        <ele>119.022583</ele>
        <time>2016-10-09T08:31:28Z</time>
      </trkpt>
      <trkpt lat="47.75128" lon="0.51709">
        <ele>119.137192</ele>
        <time>2016-10-09T08:31:31Z</time>
      </trkpt>
      <trkpt lat="47.75123" lon="0.51706">
        <ele>119.265305</ele>
        <time>2016-10-09T08:31:36Z</time>
      </trkpt>
      <trkpt lat="47.75118" lon="0.51702">
        <ele>119.363579</ele>
        <time>2016-10-09T08:31:40Z</time>
      </trkpt>
      <trkpt lat="47.75114" lon="0.517">
        <ele>119.470337</ele>
        <time>2016-10-09T08:31:43Z</time>
      </trkpt>
      <trkpt lat="47.75109" lon="0.51697">
        <ele>119.599548</ele>
        <time>2016-10-09T08:31:47Z</time>
      </trkpt>
      <trkpt lat="47.75105" lon="0.51694">
        <ele>119.722321</ele>
        <time>2016-10-09T08:31:51Z</time>
      </trkpt>
      <trkpt lat="47.751" lon="0.51692">
        <ele>119.897202</ele>
        <time>2016-10-09T08:31:55Z</time>
      </trkpt>
      <trkpt lat="47.75094" lon="0.51691">
        <ele>120.101326</ele>
        <time>2016-10-09T08:31:59Z</time>
      </trkpt>
      <trkpt lat="47.75088" lon="0.51689">
        <ele>120.305267</ele>
        <time>2016-10-09T08:32:03Z</time>
      </trkpt>
      <trkpt lat="47.75083" lon="0.51689">
        <ele>120.535065</ele>
        <time>2016-10-09T08:32:07Z</time>
      </trkpt>
      <trkpt lat="47.75079" lon="0.51689">
        <ele>120.559906</ele>
        <time>2016-10-09T08:32:11Z</time>
      </trkpt>
      <trkpt lat="47.75074" lon="0.51688">
        <ele>120.577591</ele>
        <time>2016-10-09T08:32:15Z</time>
      </trkpt>
      <trkpt lat="47.75068" lon="0.51689">
        <ele>120.611717</ele>
        <time>2016-10-09T08:32:20Z</time>
      </trkpt>
      <trkpt lat="47.75064" lon="0.5169">
        <ele>120.654259</ele>
        <time>2016-10-09T08:32:23Z</time>
      </trkpt>
      <trkpt lat="47.75059" lon="0.51691">
        <ele>120.70472</ele>
        <time>2016-10-09T08:32:27Z</time>
      </trkpt>
      <trkpt lat="47.75054" lon="0.51691">
        <ele>120.722946</ele>
        <time>2016-10-09T08:32:31Z</time>
      </trkpt>
      <trkpt lat="47.75049" lon="0.51689">
        <ele>120.732887</ele>
        <time>2016-10-09T08:32:36Z</time>
      </trkpt>
      <trkpt lat="47.75043" lon="0.51689">
        <ele>120.756584</ele>
        <time>2016-10-09T08:32:40Z</time>
      </trkpt>
      <trkpt lat="47.75037" lon="0.51689">
        <ele>120.793884</ele>
        <time>2016-10-09T08:32:44Z</time>
      </trkpt>
      <trkpt lat="47.75031" lon="0.51689">
        <ele>120.826775</ele>
        <time>2016-10-09T08:32:49Z</time>
      </trkpt>
      <trkpt lat="47.75027" lon="0.51691">
        <ele>120.867783</ele>
        <time>2016-10-09T08:32:53Z</time>
      </trkpt>
      <trkpt lat="47.75022" lon="0.51694">
        <ele>120.906403</ele>
        <time>2016-10-09T08:32:58Z</time>
      </trkpt>
      <trkpt lat="47.75016" lon="0.51698">
        <ele>120.952293</ele>
        <time>2016-10-09T08:33:02Z</time>
      </trkpt>
      <trkpt lat="47.75012" lon="0.51702">
        <ele>120.977676</ele>
        <time>2016-10-09T08:33:06Z</time>
      </trkpt>
      <trkpt lat="47.75009" lon="0.51709">
        <ele>121.002014</ele>
        <time>2016-10-09T08:33:12Z</time>
      </trkpt>
      <trkpt lat="47.75006" lon="0.51716">
        <ele>121.013107</ele>
        <time>2016-10-09T08:33:16Z</time>
      </trkpt>
      <trkpt lat="47.75004" lon="0.51724">
        <ele>121.016014</ele>
        <time>2016-10-09T08:33:21Z</time>
      </trkpt>
      <trkpt lat="47.75001" lon="0.51731">
        <ele>121.003067</ele>
        <time>2016-10-09T08:33:25Z</time>
      </trkpt>
      <trkpt lat="47.74996" lon="0.51733">
        <ele>120.954224</ele>
        <time>2016-10-09T08:33:28Z</time>
      </trkpt>
      <trkpt lat="47.74991" lon="0.51734">
        <ele>120.895996</ele>
        <time>2016-10-09T08:33:31Z</time>
      </trkpt>
      <trkpt lat="47.74987" lon="0.51736">
        <ele>120.840027</ele>
        <time>2016-10-09T08:33:35Z</time>
      </trkpt>
      <trkpt lat="47.74981" lon="0.51735">
        <ele>120.776794</ele>
        <time>2016-10-09T08:33:40Z</time>
      </trkpt>
      <trkpt lat="47.74977" lon="0.51733">
        <ele>120.723267</ele>
        <time>2016-10-09T08:33:44Z</time>
      </trkpt>
      <trkpt lat="47.74971" lon="0.51732">
        <ele>120.657227</ele>
        <time>2016-10-09T08:33:48Z</time>
      </trkpt>
      <trkpt lat="47.74966" lon="0.51732">
        <ele>120.587219</ele>
        <time>2016-10-09T08:33:52Z</time>
      </trkpt>
      <trkpt lat="47.7496" lon="0.51733">
        <ele>120.522461</ele>
        <time>2016-10-09T08:33:57Z</time>
      </trkpt>
      <trkpt lat="47.74956" lon="0.51733">
        <ele>120.467529</ele>
        <time>2016-10-09T08:34:01Z</time>
      </trkpt>
      <trkpt lat="47.7495" lon="0.51732">
        <ele>120.403198</ele>
        <time>2016-10-09T08:34:06Z</time>
      </trkpt>
      <trkpt lat="47.74945" lon="0.51728">
        <ele>120.345276</ele>
        <time>2016-10-09T08:34:11Z</time>
      </trkpt>
      <trkpt lat="47.74941" lon="0.51723">
        <ele>120.289368</ele>
        <time>2016-10-09T08:34:15Z</time>
      </trkpt>
      <trkpt lat="47.74937" lon="0.51719">
        <ele>120.240784</ele>
        <time>2016-10-09T08:34:19Z</time>
      </trkpt>
      <trkpt lat="47.74932" lon="0.51719">
        <ele>120.182129</ele>
        <time>2016-10-09T08:34:23Z</time>
      </trkpt>
      <trkpt lat="47.74926" lon="0.5172">
        <ele>120.115479</ele>
        <time>2016-10-09T08:34:27Z</time>
      </trkpt>
      <trkpt lat="47.74921" lon="0.51724">
        <ele>120.048706</ele>
        <time>2016-10-09T08:34:33Z</time>
      </trkpt>
      <trkpt lat="47.74916" lon="0.51729">
        <ele>119.995705</ele>
        <time>2016-10-09T08:34:38Z</time>
      </trkpt>
      <trkpt lat="47.74912" lon="0.51733">
        <ele>119.975685</ele>
        <time>2016-10-09T08:34:42Z</time>
      </trkpt>
      <trkpt lat="47.74907" lon="0.51737">
        <ele>119.962013</ele>
        <time>2016-10-09T08:34:46Z</time>
      </trkpt>
      <trkpt lat="47.74903" lon="0.5174">
        <ele>119.95871</ele>
        <time>2016-10-09T08:34:50Z</time>
      </trkpt>
      <trkpt lat="47.74898" lon="0.51742">
        <ele>119.957588</ele>
        <time>2016-10-09T08:34:56Z</time>
      </trkpt>
      <trkpt lat="47.74894" lon="0.51745">
        <ele>119.967163</ele>
        <time>2016-10-09T08:35:00Z</time>
      </trkpt>
      <trkpt lat="47.7489" lon="0.51748">
        <ele>119.984825</ele>
        <time>2016-10-09T08:35:04Z</time>
      </trkpt>
      <trkpt lat="47.74885" lon="0.51752">
        <ele>119.991241</ele>
        <time>2016-10-09T08:35:08Z</time>
      </trkpt>
      <trkpt lat="47.74881" lon="0.51756">
        <ele>119.968582</ele>
        <time>2016-10-09T08:35:12Z</time>
      </trkpt>
      <trkpt lat="47.74876" lon="0.51761">
        <ele>119.937469</ele>
        <time>2016-10-09T08:35:16Z</time>
      </trkpt>
      <trkpt lat="47.74871" lon="0.51764">
        <ele>119.906082</ele>
        <time>2016-10-09T08:35:20Z</time>
      </trkpt>
      <trkpt lat="47.74866" lon="0.51766">
        <ele>119.879631</ele>
        <time>2016-10-09T08:35:24Z</time>
      </trkpt>
      <trkpt lat="47.74861" lon="0.51767">
        <ele>119.861267</ele>
        <time>2016-10-09T08:35:28Z</time>
      </trkpt>
      <trkpt lat="47.74856" lon="0.51765">
        <ele>119.867584</ele>
        <time>2016-10-09T08:35:32Z</time>
      </trkpt>
      <trkpt lat="47.74852" lon="0.51759">
        <ele>119.913963</ele>
        <time>2016-10-09T08:35:36Z</time>
      </trkpt>
      <trkpt lat="47.7485" lon="0.51752">
        <ele>119.979309</ele>
        <time>2016-10-09T08:35:40Z</time>
      </trkpt>
      <trkpt lat="47.74849" lon="0.51744">
        <ele>119.880974</ele>
        <time>2016-10-09T08:35:45Z</time>
      </trkpt>
      <trkpt lat="47.74848" lon="0.51736">
        <ele>119.72538</ele>
        <time>2016-10-09T08:35:49Z</time>
      </trkpt>
      <trkpt lat="47.74843" lon="0.51732">
        <ele>119.621384</ele>
        <time>2016-10-09T08:35:55Z</time>
      </trkpt>
      <trkpt lat="47.74838" lon="0.51733">
        <ele>119.605896</ele>
        <time>2016-10-09T08:35:59Z</time>
      </trkpt>
      <trkpt lat="47.74834" lon="0.51736">
        <ele>119.655975</ele>
        <time>2016-10-09T08:36:03Z</time>
      </trkpt>
      <trkpt lat="47.74829" lon="0.51739">
        <ele>119.621529</ele>
        <time>2016-10-09T08:36:07Z</time>
      </trkpt>
      <trkpt lat="47.74825" lon="0.51743">
        <ele>119.574966</ele>
        <time>2016-10-09T08:36:11Z</time>
      </trkpt>
      <trkpt lat="47.74821" lon="0.51747">
        <ele>119.490128</ele>
        <time>2016-10-09T08:36:15Z</time>
      </trkpt>
      <trkpt lat="47.74817" lon="0.51751">
        <ele>119.405304</ele>
        <time>2016-10-09T08:36:18Z</time>
      </trkpt>
      <trkpt lat="47.74813" lon="0.51755">
        <ele>119.205856</ele>
        <time>2016-10-09T08:36:22Z</time>
      </trkpt>
      <trkpt lat="47.74809" lon="0.51759">
        <ele>118.990486</ele>
        <time>2016-10-09T08:36:26Z</time>
      </trkpt>
      <trkpt lat="47.74805" lon="0.51764">
        <ele>118.7677</ele>
        <time>2016-10-09T08:36:30Z</time>
      </trkpt>
      <trkpt lat="47.74801" lon="0.51768">
        <ele>118.538422</ele>
        <time>2016-10-09T08:36:35Z</time>
      </trkpt>
      <trkpt lat="47.74796" lon="0.51771">
        <ele>118.28064</ele>
        <time>2016-10-09T08:36:40Z</time>
      </trkpt>
      <trkpt lat="47.74791" lon="0.51775">
        <ele>118.028336</ele>
        <time>2016-10-09T08:36:44Z</time>
      </trkpt>
      <trkpt lat="47.74786" lon="0.51779">
        <ele>117.76236</ele>
        <time>2016-10-09T08:36:48Z</time>
      </trkpt>
      <trkpt lat="47.74783" lon="0.51783">
        <ele>117.527016</ele>
        <time>2016-10-09T08:36:53Z</time>
      </trkpt>
      <trkpt lat="47.74778" lon="0.51788">
        <ele>117.246399</ele>
        <time>2016-10-09T08:36:58Z</time>
      </trkpt>
      <trkpt lat="47.74774" lon="0.51792">
        <ele>116.987259</ele>
        <time>2016-10-09T08:37:02Z</time>
      </trkpt>
      <trkpt lat="47.74769" lon="0.51795">
        <ele>116.739685</ele>
        <time>2016-10-09T08:37:09Z</time>
      </trkpt>
      <trkpt lat="47.74765" lon="0.51799">
        <ele>116.462105</ele>
        <time>2016-10-09T08:37:12Z</time>
      </trkpt>
      <trkpt lat="47.7476" lon="0.51801">
        <ele>116.227158</ele>
        <time>2016-10-09T08:37:16Z</time>
      </trkpt>
      <trkpt lat="47.74756" lon="0.51804">
        <ele>115.951157</ele>
        <time>2016-10-09T08:37:21Z</time>
      </trkpt>
      <trkpt lat="47.74752" lon="0.51809">
        <ele>115.670586</ele>
        <time>2016-10-09T08:37:25Z</time>
      </trkpt>
      <trkpt lat="47.74748" lon="0.51814">
        <ele>115.33152</ele>
        <time>2016-10-09T08:37:30Z</time>
      </trkpt>
      <trkpt lat="47.74743" lon="0.5182">
        <ele>114.937737</ele>
        <time>2016-10-09T08:37:34Z</time>
      </trkpt>
      <trkpt lat="47.74739" lon="0.51823">
        <ele>114.581795</ele>
        <time>2016-10-09T08:37:39Z</time>
      </trkpt>
      <trkpt lat="47.74736" lon="0.51817">
        <ele>114.58548</ele>
        <time>2016-10-09T08:37:48Z</time>
      </trkpt>
      <trkpt lat="47.74732" lon="0.51811">
        <ele>114.509422</ele>
        <time>2016-10-09T08:37:56Z</time>
      </trkpt>
      <trkpt lat="47.74729" lon="0.51805">
        <ele>114.484436</ele>
        <time>2016-10-09T08:38:01Z</time>
      </trkpt>
      <trkpt lat="47.74725" lon="0.51799">
        <ele>114.44902</ele>
        <time>2016-10-09T08:38:08Z</time>
      </trkpt>
      <trkpt lat="47.74722" lon="0.51794">
        <ele>114.420563</ele>
        <time>2016-10-09T08:38:12Z</time>
      </trkpt>
      <trkpt lat="47.74718" lon="0.51787">
        <ele>114.405777</ele>
        <time>2016-10-09T08:38:16Z</time>
      </trkpt>
      <trkpt lat="47.74715" lon="0.51781">
        <ele>114.404785</ele>
        <time>2016-10-09T08:38:19Z</time>
      </trkpt>
      <trkpt lat="47.74711" lon="0.51776">
        <ele>114.371117</ele>
        <time>2016-10-09T08:38:24Z</time>
      </trkpt>
      <trkpt lat="47.7471" lon="0.5177">
        <ele>114.478119</ele>
        <time>2016-10-09T08:38:28Z</time>
      </trkpt>
      <trkpt lat="47.74706" lon="0.51763">
        <ele>114.511353</ele>
        <time>2016-10-09T08:38:32Z</time>
      </trkpt>
      <trkpt lat="47.74704" lon="0.51757">
        <ele>114.550888</ele>
        <time>2016-10-09T08:38:35Z</time>
      </trkpt>
      <trkpt lat="47.74699" lon="0.51754">
        <ele>114.42421</ele>
        <time>2016-10-09T08:38:40Z</time>
      </trkpt>
      <trkpt lat="47.74694" lon="0.51754">
        <ele>114.180008</ele>
        <time>2016-10-09T08:38:43Z</time>
      </trkpt>
      <trkpt lat="47.74687" lon="0.51753">
        <ele>113.882904</ele>
        <time>2016-10-09T08:38:47Z</time>
      </trkpt>
      <trkpt lat="47.74683" lon="0.51751">
        <ele>113.740372</ele>
        <time>2016-10-09T08:38:50Z</time>
      </trkpt>
      <trkpt lat="47.74678" lon="0.5175">
        <ele>113.549622</ele>
        <time>2016-10-09T08:38:55Z</time>
      </trkpt>
      <trkpt lat="47.74673" lon="0.51749">
        <ele>113.334595</ele>
        <time>2016-10-09T08:38:59Z</time>
      </trkpt>
      <trkpt lat="47.74668" lon="0.51748">
        <ele>113.084351</ele>
        <time>2016-10-09T08:39:03Z</time>
      </trkpt>
      <trkpt lat="47.74662" lon="0.51749">
        <ele>112.790833</ele>
        <time>2016-10-09T08:39:07Z</time>
      </trkpt>
      <trkpt lat="47.74657" lon="0.51749">
        <ele>112.566711</ele>
        <time>2016-10-09T08:39:11Z</time>
      </trkpt>
      <trkpt lat="47.74653" lon="0.51748">
        <ele>112.337952</ele>
        <time>2016-10-09T08:39:15Z</time>
      </trkpt>
      <trkpt lat="47.74647" lon="0.51749">
        <ele>112.069458</ele>
        <time>2016-10-09T08:39:19Z</time>
      </trkpt>
      <trkpt lat="47.74642" lon="0.51748">
        <ele>111.828613</ele>
        <time>2016-10-09T08:39:23Z</time>
      </trkpt>
      <trkpt lat="47.74636" lon="0.51747">
        <ele>111.578552</ele>
        <time>2016-10-09T08:39:28Z</time>
      </trkpt>
      <trkpt lat="47.74631" lon="0.51746">
        <ele>111.356384</ele>
        <time>2016-10-09T08:39:32Z</time>
      </trkpt>
      <trkpt lat="47.74627" lon="0.51748">
        <ele>111.102966</ele>
        <time>2016-10-09T08:39:36Z</time>
      </trkpt>
      <trkpt lat="47.74621" lon="0.51749">
        <ele>110.794922</ele>
        <time>2016-10-09T08:39:40Z</time>
      </trkpt>
      <trkpt lat="47.74616" lon="0.51752">
        <ele>110.468781</ele>
        <time>2016-10-09T08:39:45Z</time>
      </trkpt>
      <trkpt lat="47.74611" lon="0.51751">
        <ele>110.246048</ele>
        <time>2016-10-09T08:39:49Z</time>
      </trkpt>
      <trkpt lat="47.74606" lon="0.51752">
        <ele>109.973</ele>
        <time>2016-10-09T08:39:53Z</time>
      </trkpt>
      <trkpt lat="47.746" lon="0.51751">
        <ele>109.750839</ele>
        <time>2016-10-09T08:39:57Z</time>
      </trkpt>
      <trkpt lat="47.74596" lon="0.51749">
        <ele>109.598328</ele>
        <time>2016-10-09T08:40:02Z</time>
      </trkpt>
      <trkpt lat="47.74591" lon="0.5175">
        <ele>109.371399</ele>
        <time>2016-10-09T08:40:06Z</time>
      </trkpt>
      <trkpt lat="47.74586" lon="0.5175">
        <ele>109.142517</ele>
        <time>2016-10-09T08:40:09Z</time>
      </trkpt>
      <trkpt lat="47.74581" lon="0.5175">
        <ele>108.811462</ele>
        <time>2016-10-09T08:40:13Z</time>
      </trkpt>
      <trkpt lat="47.74576" lon="0.51751">
        <ele>108.28569</ele>
        <time>2016-10-09T08:40:18Z</time>
      </trkpt>
      <trkpt lat="47.7457" lon="0.51758">
        <ele>107.314972</ele>
        <time>2016-10-09T08:40:27Z</time>
      </trkpt>
      <trkpt lat="47.74564" lon="0.51761">
        <ele>106.456268</ele>
        <time>2016-10-09T08:40:32Z</time>
      </trkpt>
      <trkpt lat="47.74559" lon="0.51761">
        <ele>106.08567</ele>
        <time>2016-10-09T08:40:37Z</time>
      </trkpt>
      <trkpt lat="47.74554" lon="0.51759">
        <ele>105.771057</ele>
        <time>2016-10-09T08:40:44Z</time>
      </trkpt>
      <trkpt lat="47.74548" lon="0.51754">
        <ele>105.656494</ele>
        <time>2016-10-09T08:40:54Z</time>
      </trkpt>
      <trkpt lat="47.74543" lon="0.51757">
        <ele>104.886703</ele>
        <time>2016-10-09T08:40:58Z</time>
      </trkpt>
      <trkpt lat="47.74538" lon="0.51758">
        <ele>104.354927</ele>
        <time>2016-10-09T08:41:03Z</time>
      </trkpt>
      <trkpt lat="47.74531" lon="0.51755">
        <ele>104.084122</ele>
        <time>2016-10-09T08:41:08Z</time>
      </trkpt>
      <trkpt lat="47.74524" lon="0.51755">
        <ele>103.39151</ele>
        <time>2016-10-09T08:41:13Z</time>
      </trkpt>
      <trkpt lat="47.74518" lon="0.51753">
        <ele>103.127899</ele>
        <time>2016-10-09T08:41:17Z</time>
      </trkpt>
      <trkpt lat="47.74512" lon="0.51751">
        <ele>102.955109</ele>
        <time>2016-10-09T08:41:21Z</time>
      </trkpt>
      <trkpt lat="47.74506" lon="0.51748">
        <ele>102.49041</ele>
        <time>2016-10-09T08:41:27Z</time>
      </trkpt>
      <trkpt lat="47.74501" lon="0.51744">
        <ele>102.074631</ele>
        <time>2016-10-09T08:41:31Z</time>
      </trkpt>
      <trkpt lat="47.74496" lon="0.51743">
        <ele>101.020752</ele>
        <time>2016-10-09T08:41:36Z</time>
      </trkpt>
      <trkpt lat="47.74488" lon="0.51742">
        <ele>98.908447</ele>
        <time>2016-10-09T08:41:41Z</time>
      </trkpt>
      <trkpt lat="47.74483" lon="0.51752">
        <ele>97.367126</ele>
        <time>2016-10-09T08:41:53Z</time>
      </trkpt>
      <trkpt lat="47.74474" lon="0.51752">
        <ele>95.19886</ele>
        <time>2016-10-09T08:41:58Z</time>
      </trkpt>
      <trkpt lat="47.74469" lon="0.51755">
        <ele>93.66246</ele>
        <time>2016-10-09T08:42:02Z</time>
      </trkpt>
      <trkpt lat="47.74464" lon="0.5176">
        <ele>91.858444</ele>
        <time>2016-10-09T08:42:12Z</time>
      </trkpt>
      <trkpt lat="47.74458" lon="0.51761">
        <ele>90.226379</ele>
        <time>2016-10-09T08:42:17Z</time>
      </trkpt>
      <trkpt lat="47.74453" lon="0.51761">
        <ele>89.049072</ele>
        <time>2016-10-09T08:42:23Z</time>
      </trkpt>
      <trkpt lat="47.7445" lon="0.51767">
        <ele>87.764427</ele>
        <time>2016-10-09T08:42:33Z</time>
      </trkpt>
      <trkpt lat="47.74445" lon="0.51773">
        <ele>86.034943</ele>
        <time>2016-10-09T08:42:42Z</time>
      </trkpt>
      <trkpt lat="47.7444" lon="0.51778">
        <ele>84.578453</ele>
        <time>2016-10-09T08:42:46Z</time>
      </trkpt>
      <trkpt lat="47.74435" lon="0.51781">
        <ele>83.218018</ele>
        <time>2016-10-09T08:42:50Z</time>
      </trkpt>
      <trkpt lat="47.7443" lon="0.51781">
        <ele>82.15094</ele>
        <time>2016-10-09T08:42:56Z</time>
      </trkpt>
      <trkpt lat="47.74425" lon="0.51781">
        <ele>80.909416</ele>
        <time>2016-10-09T08:43:03Z</time>
      </trkpt>
      <trkpt lat="47.7442" lon="0.51779">
        <ele>79.878845</ele>
        <time>2016-10-09T08:43:09Z</time>
      </trkpt>
      <trkpt lat="47.74414" lon="0.51777">
        <ele>78.842598</ele>
        <time>2016-10-09T08:43:16Z</time>
      </trkpt>
      <trkpt lat="47.74409" lon="0.51769">
        <ele>78.381882</ele>
        <time>2016-10-09T08:43:25Z</time>
      </trkpt>
      <trkpt lat="47.74405" lon="0.51765">
        <ele>77.63662</ele>
        <time>2016-10-09T08:43:34Z</time>
      </trkpt>
      <trkpt lat="47.74404" lon="0.51758">
        <ele>77.891144</ele>
        <time>2016-10-09T08:43:45Z</time>
      </trkpt>
      <trkpt lat="47.744" lon="0.51752">
        <ele>77.196762</ele>
        <time>2016-10-09T08:43:50Z</time>
      </trkpt>
      <trkpt lat="47.74396" lon="0.51747">
        <ele>76.627846</ele>
        <time>2016-10-09T08:43:54Z</time>
      </trkpt>
      <trkpt lat="47.74391" lon="0.5174">
        <ele>75.646027</ele>
        <time>2016-10-09T08:43:58Z</time>
      </trkpt>
      <trkpt lat="47.74386" lon="0.51736">
        <ele>74.678337</ele>
        <time>2016-10-09T08:44:04Z</time>
      </trkpt>
      <trkpt lat="47.74382" lon="0.51731">
        <ele>73.780098</ele>
        <time>2016-10-09T08:44:11Z</time>
      </trkpt>
      <trkpt lat="47.74376" lon="0.51727">
        <ele>72.775421</ele>
        <time>2016-10-09T08:44:15Z</time>
      </trkpt>
      <trkpt lat="47.74371" lon="0.51722">
        <ele>71.896881</ele>
        <time>2016-10-09T08:44:20Z</time>
      </trkpt>
      <trkpt lat="47.74366" lon="0.51719">
        <ele>70.994843</ele>
        <time>2016-10-09T08:44:24Z</time>
      </trkpt>
      <trkpt lat="47.74362" lon="0.51716">
        <ele>70.231812</ele>
        <time>2016-10-09T08:44:28Z</time>
      </trkpt>
      <trkpt lat="47.74357" lon="0.51714">
        <ele>69.368675</ele>
        <time>2016-10-09T08:44:32Z</time>
      </trkpt>
      <trkpt lat="47.74352" lon="0.51709">
        <ele>68.477142</ele>
        <time>2016-10-09T08:44:37Z</time>
      </trkpt>
      <trkpt lat="47.74347" lon="0.51706">
        <ele>67.683548</ele>
        <time>2016-10-09T08:44:40Z</time>
      </trkpt>
      <trkpt lat="47.74341" lon="0.51702">
        <ele>66.702995</ele>
        <time>2016-10-09T08:44:44Z</time>
      </trkpt>
      <trkpt lat="47.74336" lon="0.51699">
        <ele>66.014732</ele>
        <time>2016-10-09T08:44:48Z</time>
      </trkpt>
      <trkpt lat="47.74332" lon="0.51701">
        <ele>65.272766</ele>
        <time>2016-10-09T08:44:53Z</time>
      </trkpt>
      <trkpt lat="47.74327" lon="0.51704">
        <ele>64.830505</ele>
        <time>2016-10-09T08:44:57Z</time>
      </trkpt>
      <trkpt lat="47.74324" lon="0.51709">
        <ele>64.372742</ele>
        <time>2016-10-09T08:45:01Z</time>
      </trkpt>
      <trkpt lat="47.7432" lon="0.51716">
        <ele>63.867676</ele>
        <time>2016-10-09T08:45:05Z</time>
      </trkpt>
      <trkpt lat="47.74317" lon="0.51722">
        <ele>63.336548</ele>
        <time>2016-10-09T08:45:09Z</time>
      </trkpt>
      <trkpt lat="47.74313" lon="0.51729">
        <ele>62.766846</ele>
        <time>2016-10-09T08:45:14Z</time>
      </trkpt>
      <trkpt lat="47.74309" lon="0.51735">
        <ele>62.23999</ele>
        <time>2016-10-09T08:45:18Z</time>
      </trkpt>
      <trkpt lat="47.74306" lon="0.51741">
        <ele>61.809814</ele>
        <time>2016-10-09T08:45:23Z</time>
      </trkpt>
      <trkpt lat="47.74304" lon="0.51747">
        <ele>61.362061</ele>
        <time>2016-10-09T08:45:27Z</time>
      </trkpt>
      <trkpt lat="47.74302" lon="0.51755">
        <ele>61.11256</ele>
        <time>2016-10-09T08:45:30Z</time>
      </trkpt>
      <trkpt lat="47.743" lon="0.51762">
        <ele>61.058807</ele>
        <time>2016-10-09T08:45:34Z</time>
      </trkpt>
      <trkpt lat="47.74298" lon="0.51768">
        <ele>60.995796</ele>
        <time>2016-10-09T08:45:37Z</time>
      </trkpt>
      <trkpt lat="47.74296" lon="0.51776">
        <ele>60.913441</ele>
        <time>2016-10-09T08:45:41Z</time>
      </trkpt>
      <trkpt lat="47.74295" lon="0.51782">
        <ele>60.857372</ele>
        <time>2016-10-09T08:45:45Z</time>
      </trkpt>
      <trkpt lat="47.74292" lon="0.51789">
        <ele>60.756035</ele>
        <time>2016-10-09T08:45:50Z</time>
      </trkpt>
      <trkpt lat="47.7429" lon="0.51796">
        <ele>60.701847</ele>
        <time>2016-10-09T08:45:54Z</time>
      </trkpt>
      <trkpt lat="47.74287" lon="0.51802">
        <ele>60.537392</ele>
        <time>2016-10-09T08:45:57Z</time>
      </trkpt>
      <trkpt lat="47.74283" lon="0.51806">
        <ele>60.377758</ele>
        <time>2016-10-09T08:46:00Z</time>
      </trkpt>
      <trkpt lat="47.74279" lon="0.51811">
        <ele>60.225567</ele>
        <time>2016-10-09T08:46:03Z</time>
      </trkpt>
      <trkpt lat="47.74274" lon="0.51811">
        <ele>59.952728</ele>
        <time>2016-10-09T08:46:07Z</time>
      </trkpt>
      <trkpt lat="47.7427" lon="0.51808">
        <ele>59.702438</ele>
        <time>2016-10-09T08:46:11Z</time>
      </trkpt>
      <trkpt lat="47.74265" lon="0.51807">
        <ele>59.435818</ele>
        <time>2016-10-09T08:46:15Z</time>
      </trkpt>
      <trkpt lat="47.7426" lon="0.51812">
        <ele>59.233177</ele>
        <time>2016-10-09T08:46:19Z</time>
      </trkpt>
      <trkpt lat="47.74255" lon="0.51815">
        <ele>59.031548</ele>
        <time>2016-10-09T08:46:24Z</time>
      </trkpt>
      <trkpt lat="47.74251" lon="0.51819">
        <ele>58.874565</ele>
        <time>2016-10-09T08:46:28Z</time>
      </trkpt>
      <trkpt lat="47.74247" lon="0.51824">
        <ele>58.819763</ele>
        <time>2016-10-09T08:46:32Z</time>
      </trkpt>
      <trkpt lat="47.74243" lon="0.51828">
        <ele>58.76403</ele>
        <time>2016-10-09T08:46:36Z</time>
      </trkpt>
      <trkpt lat="47.74238" lon="0.51833">
        <ele>58.715683</ele>
        <time>2016-10-09T08:46:40Z</time>
      </trkpt>
      <trkpt lat="47.74233" lon="0.51837">
        <ele>58.653782</ele>
        <time>2016-10-09T08:46:44Z</time>
      </trkpt>
      <trkpt lat="47.74227" lon="0.5184">
        <ele>58.569248</ele>
        <time>2016-10-09T08:47:13Z</time>
      </trkpt>
      <trkpt lat="47.74223" lon="0.51845">
        <ele>58.536903</ele>
        <time>2016-10-09T08:47:17Z</time>
      </trkpt>
      <trkpt lat="47.74218" lon="0.51849">
        <ele>58.458603</ele>
        <time>2016-10-09T08:47:21Z</time>
      </trkpt>
      <trkpt lat="47.74214" lon="0.51854">
        <ele>58.398067</ele>
        <time>2016-10-09T08:47:25Z</time>
      </trkpt>
      <trkpt lat="47.7421" lon="0.51858">
        <ele>58.33139</ele>
        <time>2016-10-09T08:47:29Z</time>
      </trkpt>
      <trkpt lat="47.74205" lon="0.51863">
        <ele>58.258728</ele>
        <time>2016-10-09T08:47:33Z</time>
      </trkpt>
      <trkpt lat="47.74201" lon="0.51868">
        <ele>58.156754</ele>
        <time>2016-10-09T08:47:37Z</time>
      </trkpt>
      <trkpt lat="47.74197" lon="0.51871">
        <ele>58.050674</ele>
        <time>2016-10-09T08:47:40Z</time>
      </trkpt>
      <trkpt lat="47.74193" lon="0.51876">
        <ele>57.934761</ele>
        <time>2016-10-09T08:47:44Z</time>
      </trkpt>
      <trkpt lat="47.74189" lon="0.51879">
        <ele>57.807526</ele>
        <time>2016-10-09T08:47:48Z</time>
      </trkpt>
      <trkpt lat="47.74185" lon="0.51884">
        <ele>57.689236</ele>
        <time>2016-10-09T08:47:52Z</time>
      </trkpt>
      <trkpt lat="47.74179" lon="0.5189">
        <ele>57.504478</ele>
        <time>2016-10-09T08:47:56Z</time>
      </trkpt>
      <trkpt lat="47.74175" lon="0.51893">
        <ele>57.341633</ele>
        <time>2016-10-09T08:47:59Z</time>
      </trkpt>
      <trkpt lat="47.74171" lon="0.51898">
        <ele>57.171421</ele>
        <time>2016-10-09T08:48:03Z</time>
      </trkpt>
      <trkpt lat="47.74168" lon="0.51903">
        <ele>57.060837</ele>
        <time>2016-10-09T08:48:06Z</time>
      </trkpt>
      <trkpt lat="47.74163" lon="0.51908">
        <ele>56.872559</ele>
        <time>2016-10-09T08:48:10Z</time>
      </trkpt>
      <trkpt lat="47.74159" lon="0.51911">
        <ele>56.714905</ele>
        <time>2016-10-09T08:48:14Z</time>
      </trkpt>
      <trkpt lat="47.74154" lon="0.51914">
        <ele>56.526855</ele>
        <time>2016-10-09T08:48:18Z</time>
      </trkpt>
      <trkpt lat="47.7415" lon="0.51918">
        <ele>56.354401</ele>
        <time>2016-10-09T08:48:22Z</time>
      </trkpt>
      <trkpt lat="47.74147" lon="0.51928">
        <ele>56.075119</ele>
        <time>2016-10-09T08:48:26Z</time>
      </trkpt>
      <trkpt lat="47.74147" lon="0.51936">
        <ele>55.884068</ele>
        <time>2016-10-09T08:48:31Z</time>
      </trkpt>
      <trkpt lat="47.74148" lon="0.51943">
        <ele>55.747211</ele>
        <time>2016-10-09T08:48:35Z</time>
      </trkpt>
      <trkpt lat="47.74147" lon="0.51951">
        <ele>55.56477</ele>
        <time>2016-10-09T08:48:40Z</time>
      </trkpt>
      <trkpt lat="47.74147" lon="0.5196">
        <ele>55.384735</ele>
        <time>2016-10-09T08:48:44Z</time>
      </trkpt>
      <trkpt lat="47.74148" lon="0.51969">
        <ele>55.212715</ele>
        <time>2016-10-09T08:48:48Z</time>
      </trkpt>
      <trkpt lat="47.74149" lon="0.51976">
        <ele>55.076286</ele>
        <time>2016-10-09T08:48:52Z</time>
      </trkpt>
      <trkpt lat="47.74148" lon="0.51985">
        <ele>54.883076</ele>
        <time>2016-10-09T08:48:57Z</time>
      </trkpt>
      <trkpt lat="47.74147" lon="0.51993">
        <ele>54.675522</ele>
        <time>2016-10-09T08:49:01Z</time>
      </trkpt>
      <trkpt lat="47.74148" lon="0.52001">
        <ele>54.529282</ele>
        <time>2016-10-09T08:49:05Z</time>
      </trkpt>
      <trkpt lat="47.74148" lon="0.52009">
        <ele>54.384525</ele>
        <time>2016-10-09T08:49:09Z</time>
      </trkpt>
      <trkpt lat="47.74148" lon="0.52016">
        <ele>54.251499</ele>
        <time>2016-10-09T08:49:13Z</time>
      </trkpt>
      <trkpt lat="47.74148" lon="0.52024">
        <ele>54.10701</ele>
        <time>2016-10-09T08:49:17Z</time>
      </trkpt>
      <trkpt lat="47.74149" lon="0.52033">
        <ele>53.957054</ele>
        <time>2016-10-09T08:49:22Z</time>
      </trkpt>
      <trkpt lat="47.74148" lon="0.5204">
        <ele>53.802681</ele>
        <time>2016-10-09T08:49:26Z</time>
      </trkpt>
      <trkpt lat="47.74148" lon="0.5205">
        <ele>53.617661</ele>
        <time>2016-10-09T08:49:30Z</time>
      </trkpt>
      <trkpt lat="47.74149" lon="0.52057">
        <ele>53.497063</ele>
        <time>2016-10-09T08:49:34Z</time>
      </trkpt>
      <trkpt lat="47.74148" lon="0.52064">
        <ele>53.366375</ele>
        <time>2016-10-09T08:49:38Z</time>
      </trkpt>
      <trkpt lat="47.74148" lon="0.52073">
        <ele>53.200043</ele>
        <time>2016-10-09T08:49:42Z</time>
      </trkpt>
      <trkpt lat="47.74149" lon="0.52082">
        <ele>53.025887</ele>
        <time>2016-10-09T08:49:46Z</time>
      </trkpt>
      <trkpt lat="47.7415" lon="0.52091">
        <ele>52.893883</ele>
        <time>2016-10-09T08:49:50Z</time>
      </trkpt>
      <trkpt lat="47.74151" lon="0.521">
        <ele>52.767059</ele>
        <time>2016-10-09T08:49:54Z</time>
      </trkpt>
      <trkpt lat="47.74151" lon="0.52107">
        <ele>52.664806</ele>
        <time>2016-10-09T08:49:58Z</time>
      </trkpt>
      <trkpt lat="47.74152" lon="0.52115">
        <ele>52.555378</ele>
        <time>2016-10-09T08:50:02Z</time>
      </trkpt>
      <trkpt lat="47.74153" lon="0.52123">
        <ele>52.45084</ele>
        <time>2016-10-09T08:50:06Z</time>
      </trkpt>
      <trkpt lat="47.74154" lon="0.52131">
        <ele>52.335243</ele>
        <time>2016-10-09T08:50:10Z</time>
      </trkpt>
      <trkpt lat="47.74155" lon="0.52138">
        <ele>52.245243</ele>
        <time>2016-10-09T08:50:15Z</time>
      </trkpt>
      <trkpt lat="47.74155" lon="0.52146">
        <ele>52.148346</ele>
        <time>2016-10-09T08:50:18Z</time>
      </trkpt>
      <trkpt lat="47.74155" lon="0.52154">
        <ele>52.032104</ele>
        <time>2016-10-09T08:50:22Z</time>
      </trkpt>
      <trkpt lat="47.74154" lon="0.52162">
        <ele>51.91164</ele>
        <time>2016-10-09T08:50:26Z</time>
      </trkpt>
      <trkpt lat="47.74154" lon="0.5217">
        <ele>51.85022</ele>
        <time>2016-10-09T08:50:30Z</time>
      </trkpt>
      <trkpt lat="47.74155" lon="0.52178">
        <ele>51.859619</ele>
        <time>2016-10-09T08:50:34Z</time>
      </trkpt>
      <trkpt lat="47.74156" lon="0.52187">
        <ele>51.872437</ele>
        <time>2016-10-09T08:50:38Z</time>
      </trkpt>
      <trkpt lat="47.74156" lon="0.52194">
        <ele>51.870056</ele>
        <time>2016-10-09T08:50:42Z</time>
      </trkpt>
      <trkpt lat="47.74156" lon="0.52202">
        <ele>51.865662</ele>
        <time>2016-10-09T08:50:45Z</time>
      </trkpt>
      <trkpt lat="47.74156" lon="0.52209">
        <ele>51.868164</ele>
        <time>2016-10-09T08:50:50Z</time>
      </trkpt>
      <trkpt lat="47.74156" lon="0.52218">
        <ele>51.866821</ele>
        <time>2016-10-09T08:50:54Z</time>
      </trkpt>
      <trkpt lat="47.74156" lon="0.52225">
        <ele>51.874512</ele>
        <time>2016-10-09T08:50:58Z</time>
      </trkpt>
      <trkpt lat="47.74157" lon="0.52234">
        <ele>51.888123</ele>
        <time>2016-10-09T08:51:02Z</time>
      </trkpt>
      <trkpt lat="47.74157" lon="0.52243">
        <ele>51.880737</ele>
        <time>2016-10-09T08:51:06Z</time>
      </trkpt>
      <trkpt lat="47.74156" lon="0.52251">
        <ele>51.874878</ele>
        <time>2016-10-09T08:51:10Z</time>
      </trkpt>
      <trkpt lat="47.74156" lon="0.5226">
        <ele>51.874756</ele>
        <time>2016-10-09T08:51:14Z</time>
      </trkpt>
      <trkpt lat="47.74156" lon="0.52267">
        <ele>51.874023</ele>
        <time>2016-10-09T08:51:18Z</time>
      </trkpt>
      <trkpt lat="47.74155" lon="0.52274">
        <ele>51.864197</ele>
        <time>2016-10-09T08:51:22Z</time>
      </trkpt>
      <trkpt lat="47.74155" lon="0.52282">
        <ele>51.859619</ele>
        <time>2016-10-09T08:51:26Z</time>
      </trkpt>
      <trkpt lat="47.74155" lon="0.52289">
        <ele>51.859436</ele>
        <time>2016-10-09T08:51:31Z</time>
      </trkpt>
      <trkpt lat="47.74156" lon="0.52297">
        <ele>51.867371</ele>
        <time>2016-10-09T08:51:42Z</time>
      </trkpt>
      <trkpt lat="47.74156" lon="0.52304">
        <ele>51.869568</ele>
        <time>2016-10-09T08:51:45Z</time>
      </trkpt>
      <trkpt lat="47.74156" lon="0.52312">
        <ele>51.869568</ele>
        <time>2016-10-09T08:51:49Z</time>
      </trkpt>
      <trkpt lat="47.74154" lon="0.52318">
        <ele>51.85199</ele>
        <time>2016-10-09T08:51:53Z</time>
      </trkpt>
      <trkpt lat="47.74156" lon="0.52325">
        <ele>51.872742</ele>
        <time>2016-10-09T08:51:57Z</time>
      </trkpt>
      <trkpt lat="47.74156" lon="0.52333">
        <ele>51.876465</ele>
        <time>2016-10-09T08:52:01Z</time>
      </trkpt>
      <trkpt lat="47.74156" lon="0.5234">
        <ele>51.872131</ele>
        <time>2016-10-09T08:52:05Z</time>
      </trkpt>
      <trkpt lat="47.74155" lon="0.52348">
        <ele>51.864807</ele>
        <time>2016-10-09T08:52:09Z</time>
      </trkpt>
      <trkpt lat="47.74155" lon="0.52356">
        <ele>51.855408</ele>
        <time>2016-10-09T08:52:14Z</time>
      </trkpt>
      <trkpt lat="47.74154" lon="0.52363">
        <ele>51.846619</ele>
        <time>2016-10-09T08:52:18Z</time>
      </trkpt>
      <trkpt lat="47.74153" lon="0.5237">
        <ele>51.839966</ele>
        <time>2016-10-09T08:52:22Z</time>
      </trkpt>
      <trkpt lat="47.74152" lon="0.52379">
        <ele>51.823792</ele>
        <time>2016-10-09T08:52:26Z</time>
      </trkpt>
      <trkpt lat="47.7415" lon="0.52386">
        <ele>51.803345</ele>
        <time>2016-10-09T08:52:30Z</time>
      </trkpt>
      <trkpt lat="47.7415" lon="0.52394">
        <ele>51.795166</ele>
        <time>2016-10-09T08:52:35Z</time>
      </trkpt>
      <trkpt lat="47.74149" lon="0.52401">
        <ele>51.784729</ele>
        <time>2016-10-09T08:52:38Z</time>
      </trkpt>
      <trkpt lat="47.74147" lon="0.52409">
        <ele>51.766357</ele>
        <time>2016-10-09T08:52:42Z</time>
      </trkpt>
      <trkpt lat="47.74146" lon="0.52417">
        <ele>51.749634</ele>
        <time>2016-10-09T08:52:46Z</time>
      </trkpt>
      <trkpt lat="47.74143" lon="0.52425">
        <ele>51.808105</ele>
        <time>2016-10-09T08:52:50Z</time>
      </trkpt>
      <trkpt lat="47.7414" lon="0.52431">
        <ele>51.851013</ele>
        <time>2016-10-09T08:52:54Z</time>
      </trkpt>
      <trkpt lat="47.74139" lon="0.52438">
        <ele>51.920654</ele>
        <time>2016-10-09T08:52:57Z</time>
      </trkpt>
      <trkpt lat="47.74137" lon="0.52447">
        <ele>52.00885</ele>
        <time>2016-10-09T08:53:01Z</time>
      </trkpt>
      <trkpt lat="47.74135" lon="0.52455">
        <ele>52.085266</ele>
        <time>2016-10-09T08:53:05Z</time>
      </trkpt>
      <trkpt lat="47.74134" lon="0.52462">
        <ele>52.146362</ele>
        <time>2016-10-09T08:53:09Z</time>
      </trkpt>
      <trkpt lat="47.74132" lon="0.52469">
        <ele>52.215332</ele>
        <time>2016-10-09T08:53:13Z</time>
      </trkpt>
      <trkpt lat="47.7413" lon="0.52477">
        <ele>52.29126</ele>
        <time>2016-10-09T08:53:17Z</time>
      </trkpt>
      <trkpt lat="47.74128" lon="0.52485">
        <ele>52.365112</ele>
        <time>2016-10-09T08:53:21Z</time>
      </trkpt>
      <trkpt lat="47.74127" lon="0.52492">
        <ele>52.428162</ele>
        <time>2016-10-09T08:53:25Z</time>
      </trkpt>
      <trkpt lat="47.74126" lon="0.525">
        <ele>52.50769</ele>
        <time>2016-10-09T08:53:29Z</time>
      </trkpt>
      <trkpt lat="47.74124" lon="0.52508">
        <ele>52.682426</ele>
        <time>2016-10-09T08:53:33Z</time>
      </trkpt>
      <trkpt lat="47.74122" lon="0.52516">
        <ele>52.82877</ele>
        <time>2016-10-09T08:53:36Z</time>
      </trkpt>
      <trkpt lat="47.7412" lon="0.52523">
        <ele>52.966408</ele>
        <time>2016-10-09T08:53:40Z</time>
      </trkpt>
      <trkpt lat="47.74118" lon="0.5253">
        <ele>53.080986</ele>
        <time>2016-10-09T08:53:44Z</time>
      </trkpt>
      <trkpt lat="47.74116" lon="0.52537">
        <ele>53.182411</ele>
        <time>2016-10-09T08:53:48Z</time>
      </trkpt>
      <trkpt lat="47.74113" lon="0.52547">
        <ele>53.31337</ele>
        <time>2016-10-09T08:53:52Z</time>
      </trkpt>
      <trkpt lat="47.74111" lon="0.52553">
        <ele>53.395691</ele>
        <time>2016-10-09T08:53:56Z</time>
      </trkpt>
      <trkpt lat="47.7411" lon="0.52561">
        <ele>53.508335</ele>
        <time>2016-10-09T08:54:00Z</time>
      </trkpt>
      <trkpt lat="47.74107" lon="0.52567">
        <ele>53.563911</ele>
        <time>2016-10-09T08:54:04Z</time>
      </trkpt>
      <trkpt lat="47.74105" lon="0.52575">
        <ele>53.632774</ele>
        <time>2016-10-09T08:54:08Z</time>
      </trkpt>
      <trkpt lat="47.74104" lon="0.52583">
        <ele>53.715794</ele>
        <time>2016-10-09T08:54:12Z</time>
      </trkpt>
      <trkpt lat="47.74102" lon="0.5259">
        <ele>53.622681</ele>
        <time>2016-10-09T08:54:16Z</time>
      </trkpt>
      <trkpt lat="47.741" lon="0.526">
        <ele>53.485207</ele>
        <time>2016-10-09T08:54:20Z</time>
      </trkpt>
      <trkpt lat="47.741" lon="0.52608">
        <ele>53.413033</ele>
        <time>2016-10-09T08:54:24Z</time>
      </trkpt>
      <trkpt lat="47.74098" lon="0.52615">
        <ele>53.289742</ele>
        <time>2016-10-09T08:54:28Z</time>
      </trkpt>
      <trkpt lat="47.74097" lon="0.52622">
        <ele>53.197983</ele>
        <time>2016-10-09T08:54:32Z</time>
      </trkpt>
      <trkpt lat="47.74097" lon="0.52629">
        <ele>53.112022</ele>
        <time>2016-10-09T08:54:36Z</time>
      </trkpt>
      <trkpt lat="47.74096" lon="0.52636">
        <ele>53.034012</ele>
        <time>2016-10-09T08:54:40Z</time>
      </trkpt>
      <trkpt lat="47.74097" lon="0.52643">
        <ele>52.998413</ele>
        <time>2016-10-09T08:54:44Z</time>
      </trkpt>
      <trkpt lat="47.74098" lon="0.52652">
        <ele>52.977371</ele>
        <time>2016-10-09T08:54:48Z</time>
      </trkpt>
      <trkpt lat="47.74098" lon="0.5266">
        <ele>52.933289</ele>
        <time>2016-10-09T08:54:51Z</time>
      </trkpt>
      <trkpt lat="47.74098" lon="0.52668">
        <ele>52.847656</ele>
        <time>2016-10-09T08:54:55Z</time>
      </trkpt>
      <trkpt lat="47.74098" lon="0.52675">
        <ele>52.787292</ele>
        <time>2016-10-09T08:54:59Z</time>
      </trkpt>
      <trkpt lat="47.74099" lon="0.52684">
        <ele>52.732178</ele>
        <time>2016-10-09T08:55:03Z</time>
      </trkpt>
      <trkpt lat="47.74099" lon="0.52692">
        <ele>52.663513</ele>
        <time>2016-10-09T08:55:07Z</time>
      </trkpt>
      <trkpt lat="47.74102" lon="0.52699">
        <ele>52.701233</ele>
        <time>2016-10-09T08:55:11Z</time>
      </trkpt>
      <trkpt lat="47.74103" lon="0.52707">
        <ele>52.675781</ele>
        <time>2016-10-09T08:55:16Z</time>
      </trkpt>
      <trkpt lat="47.74103" lon="0.52715">
        <ele>52.590576</ele>
        <time>2016-10-09T08:55:20Z</time>
      </trkpt>
      <trkpt lat="47.74102" lon="0.52724">
        <ele>52.450256</ele>
        <time>2016-10-09T08:55:25Z</time>
      </trkpt>
      <trkpt lat="47.74103" lon="0.52732">
        <ele>52.392761</ele>
        <time>2016-10-09T08:55:29Z</time>
      </trkpt>
      <trkpt lat="47.74103" lon="0.52739">
        <ele>52.340515</ele>
        <time>2016-10-09T08:55:32Z</time>
      </trkpt>
      <trkpt lat="47.74105" lon="0.52746">
        <ele>52.324097</ele>
        <time>2016-10-09T08:55:36Z</time>
      </trkpt>
      <trkpt lat="47.74105" lon="0.52753">
        <ele>52.299362</ele>
        <time>2016-10-09T08:55:39Z</time>
      </trkpt>
      <trkpt lat="47.74106" lon="0.5276">
        <ele>52.318771</ele>
        <time>2016-10-09T08:55:43Z</time>
      </trkpt>
      <trkpt lat="47.74107" lon="0.52767">
        <ele>52.384529</ele>
        <time>2016-10-09T08:55:47Z</time>
      </trkpt>
      <trkpt lat="47.74108" lon="0.52775">
        <ele>52.41077</ele>
        <time>2016-10-09T08:55:51Z</time>
      </trkpt>
      <trkpt lat="47.74109" lon="0.52782">
        <ele>52.428337</ele>
        <time>2016-10-09T08:55:56Z</time>
      </trkpt>
      <trkpt lat="47.7411" lon="0.52789">
        <ele>52.461216</ele>
        <time>2016-10-09T08:56:00Z</time>
      </trkpt>
      <trkpt lat="47.74111" lon="0.52797">
        <ele>52.481049</ele>
        <time>2016-10-09T08:56:05Z</time>
      </trkpt>
      <trkpt lat="47.74112" lon="0.52805">
        <ele>52.50676</ele>
        <time>2016-10-09T08:56:11Z</time>
      </trkpt>
      <trkpt lat="47.74113" lon="0.52815">
        <ele>52.488258</ele>
        <time>2016-10-09T08:56:15Z</time>
      </trkpt>
      <trkpt lat="47.74114" lon="0.52822">
        <ele>52.50177</ele>
        <time>2016-10-09T08:56:19Z</time>
      </trkpt>
      <trkpt lat="47.74114" lon="0.52829">
        <ele>52.512421</ele>
        <time>2016-10-09T08:56:23Z</time>
      </trkpt>
      <trkpt lat="47.74115" lon="0.52836">
        <ele>52.520432</ele>
        <time>2016-10-09T08:56:27Z</time>
      </trkpt>
      <trkpt lat="47.74116" lon="0.52844">
        <ele>52.556465</ele>
        <time>2016-10-09T08:56:31Z</time>
      </trkpt>
      <trkpt lat="47.74117" lon="0.52851">
        <ele>52.555176</ele>
        <time>2016-10-09T08:56:35Z</time>
      </trkpt>
      <trkpt lat="47.74117" lon="0.52859">
        <ele>52.567486</ele>
        <time>2016-10-09T08:56:38Z</time>
      </trkpt>
      <trkpt lat="47.74117" lon="0.52866">
        <ele>52.544376</ele>
        <time>2016-10-09T08:56:42Z</time>
      </trkpt>
      <trkpt lat="47.74118" lon="0.52873">
        <ele>52.535271</ele>
        <time>2016-10-09T08:56:46Z</time>
      </trkpt>
      <trkpt lat="47.74117" lon="0.52881">
        <ele>52.505451</ele>
        <time>2016-10-09T08:56:50Z</time>
      </trkpt>
      <trkpt lat="47.74117" lon="0.52888">
        <ele>52.484535</ele>
        <time>2016-10-09T08:56:54Z</time>
      </trkpt>
      <trkpt lat="47.74118" lon="0.52897">
        <ele>52.483971</ele>
        <time>2016-10-09T08:56:58Z</time>
      </trkpt>
      <trkpt lat="47.74119" lon="0.52905">
        <ele>52.473083</ele>
        <time>2016-10-09T08:57:02Z</time>
      </trkpt>
      <trkpt lat="47.74121" lon="0.52914">
        <ele>52.460335</ele>
        <time>2016-10-09T08:57:07Z</time>
      </trkpt>
      <trkpt lat="47.7412" lon="0.52921">
        <ele>52.385498</ele>
        <time>2016-10-09T08:57:11Z</time>
      </trkpt>
      <trkpt lat="47.74119" lon="0.52929">
        <ele>52.272766</ele>
        <time>2016-10-09T08:57:15Z</time>
      </trkpt>
      <trkpt lat="47.74119" lon="0.52938">
        <ele>52.179138</ele>
        <time>2016-10-09T08:57:19Z</time>
      </trkpt>
      <trkpt lat="47.74119" lon="0.52944">
        <ele>52.099609</ele>
        <time>2016-10-09T08:57:22Z</time>
      </trkpt>
      <trkpt lat="47.74119" lon="0.52952">
        <ele>52.009827</ele>
        <time>2016-10-09T08:57:26Z</time>
      </trkpt>
      <trkpt lat="47.7412" lon="0.5296">
        <ele>51.926758</ele>
        <time>2016-10-09T08:57:30Z</time>
      </trkpt>
      <trkpt lat="47.74121" lon="0.52967">
        <ele>51.840393</ele>
        <time>2016-10-09T08:57:35Z</time>
      </trkpt>
      <trkpt lat="47.7412" lon="0.52975">
        <ele>51.738159</ele>
        <time>2016-10-09T08:57:39Z</time>
      </trkpt>
      <trkpt lat="47.74119" lon="0.52982">
        <ele>51.639221</ele>
        <time>2016-10-09T08:57:43Z</time>
      </trkpt>
      <trkpt lat="47.7412" lon="0.5299">
        <ele>51.552917</ele>
        <time>2016-10-09T08:57:47Z</time>
      </trkpt>
      <trkpt lat="47.7412" lon="0.52998">
        <ele>51.457764</ele>
        <time>2016-10-09T08:57:51Z</time>
      </trkpt>
      <trkpt lat="47.7412" lon="0.53005">
        <ele>51.441895</ele>
        <time>2016-10-09T08:57:54Z</time>
      </trkpt>
      <trkpt lat="47.74121" lon="0.53013">
        <ele>51.449524</ele>
        <time>2016-10-09T08:57:58Z</time>
      </trkpt>
      <trkpt lat="47.74121" lon="0.5302">
        <ele>51.453857</ele>
        <time>2016-10-09T08:58:01Z</time>
      </trkpt>
      <trkpt lat="47.74122" lon="0.53027">
        <ele>51.46637</ele>
        <time>2016-10-09T08:58:05Z</time>
      </trkpt>
      <trkpt lat="47.74123" lon="0.53034">
        <ele>51.478271</ele>
        <time>2016-10-09T08:58:09Z</time>
      </trkpt>
      <trkpt lat="47.74123" lon="0.53042">
        <ele>51.478027</ele>
        <time>2016-10-09T08:58:13Z</time>
      </trkpt>
      <trkpt lat="47.74124" lon="0.53051">
        <ele>51.491638</ele>
        <time>2016-10-09T08:58:17Z</time>
      </trkpt>
      <trkpt lat="47.74125" lon="0.53059">
        <ele>51.495239</ele>
        <time>2016-10-09T08:58:21Z</time>
      </trkpt>
      <trkpt lat="47.74124" lon="0.53066">
        <ele>51.49292</ele>
        <time>2016-10-09T08:58:25Z</time>
      </trkpt>
      <trkpt lat="47.74125" lon="0.53074">
        <ele>51.501465</ele>
        <time>2016-10-09T08:58:29Z</time>
      </trkpt>
      <trkpt lat="47.74126" lon="0.5308">
        <ele>51.513733</ele>
        <time>2016-10-09T08:58:33Z</time>
      </trkpt>
      <trkpt lat="47.74127" lon="0.53089">
        <ele>51.556469</ele>
        <time>2016-10-09T08:58:38Z</time>
      </trkpt>
      <trkpt lat="47.74128" lon="0.53097">
        <ele>51.62521</ele>
        <time>2016-10-09T08:58:42Z</time>
      </trkpt>
      <trkpt lat="47.74129" lon="0.53106">
        <ele>51.69315</ele>
        <time>2016-10-09T08:58:46Z</time>
      </trkpt>
      <trkpt lat="47.74129" lon="0.53113">
        <ele>51.745514</ele>
        <time>2016-10-09T08:58:50Z</time>
      </trkpt>
      <trkpt lat="47.74129" lon="0.5312">
        <ele>51.785954</ele>
        <time>2016-10-09T08:58:54Z</time>
      </trkpt>
      <trkpt lat="47.74128" lon="0.53127">
        <ele>51.819126</ele>
        <time>2016-10-09T08:58:57Z</time>
      </trkpt>
      <trkpt lat="47.74127" lon="0.53134">
        <ele>51.832474</ele>
        <time>2016-10-09T08:59:00Z</time>
      </trkpt>
      <trkpt lat="47.74124" lon="0.53141">
        <ele>51.825939</ele>
        <time>2016-10-09T08:59:04Z</time>
      </trkpt>
      <trkpt lat="47.7412" lon="0.53146">
        <ele>51.780365</ele>
        <time>2016-10-09T08:59:07Z</time>
      </trkpt>
      <trkpt lat="47.74117" lon="0.53151">
        <ele>51.728546</ele>
        <time>2016-10-09T08:59:11Z</time>
      </trkpt>
      <trkpt lat="47.74111" lon="0.53157">
        <ele>51.617287</ele>
        <time>2016-10-09T08:59:15Z</time>
      </trkpt>
      <trkpt lat="47.74106" lon="0.53161">
        <ele>51.53458</ele>
        <time>2016-10-09T08:59:19Z</time>
      </trkpt>
      <trkpt lat="47.74102" lon="0.53164">
        <ele>51.440971</ele>
        <time>2016-10-09T08:59:23Z</time>
      </trkpt>
      <trkpt lat="47.74098" lon="0.53168">
        <ele>51.348366</ele>
        <time>2016-10-09T08:59:27Z</time>
      </trkpt>
      <trkpt lat="47.74094" lon="0.53171">
        <ele>51.247219</ele>
        <time>2016-10-09T08:59:32Z</time>
      </trkpt>
      <trkpt lat="47.74089" lon="0.53175">
        <ele>51.139091</ele>
        <time>2016-10-09T08:59:36Z</time>
      </trkpt>
      <trkpt lat="47.74086" lon="0.53178">
        <ele>51.048222</ele>
        <time>2016-10-09T08:59:40Z</time>
      </trkpt>
      <trkpt lat="47.74081" lon="0.53182">
        <ele>51.005238</ele>
        <time>2016-10-09T08:59:44Z</time>
      </trkpt>
      <trkpt lat="47.74077" lon="0.53186">
        <ele>51.016975</ele>
        <time>2016-10-09T08:59:48Z</time>
      </trkpt>
      <trkpt lat="47.74073" lon="0.53191">
        <ele>51.03495</ele>
        <time>2016-10-09T08:59:52Z</time>
      </trkpt>
      <trkpt lat="47.74069" lon="0.53195">
        <ele>51.058212</ele>
        <time>2016-10-09T08:59:56Z</time>
      </trkpt>
      <trkpt lat="47.74064" lon="0.532">
        <ele>51.092773</ele>
        <time>2016-10-09T09:00:00Z</time>
      </trkpt>
      <trkpt lat="47.7406" lon="0.53203">
        <ele>51.123062</ele>
        <time>2016-10-09T09:00:03Z</time>
      </trkpt>
      <trkpt lat="47.74057" lon="0.53209">
        <ele>51.162407</ele>
        <time>2016-10-09T09:00:08Z</time>
      </trkpt>
      <trkpt lat="47.74053" lon="0.53213">
        <ele>51.202309</ele>
        <time>2016-10-09T09:00:11Z</time>
      </trkpt>
      <trkpt lat="47.74049" lon="0.53219">
        <ele>51.26252</ele>
        <time>2016-10-09T09:00:15Z</time>
      </trkpt>
      <trkpt lat="47.74045" lon="0.53224">
        <ele>51.316124</ele>
        <time>2016-10-09T09:00:18Z</time>
      </trkpt>
      <trkpt lat="47.74042" lon="0.53229">
        <ele>51.370651</ele>
        <time>2016-10-09T09:00:22Z</time>
      </trkpt>
      <trkpt lat="47.74038" lon="0.53235">
        <ele>51.440529</ele>
        <time>2016-10-09T09:00:27Z</time>
      </trkpt>
      <trkpt lat="47.74034" lon="0.53241">
        <ele>51.521759</ele>
        <time>2016-10-09T09:00:31Z</time>
      </trkpt>
      <trkpt lat="47.74031" lon="0.53246">
        <ele>51.602676</ele>
        <time>2016-10-09T09:00:34Z</time>
      </trkpt>
      <trkpt lat="47.74027" lon="0.53252">
        <ele>51.694679</ele>
        <time>2016-10-09T09:00:38Z</time>
      </trkpt>
      <trkpt lat="47.74023" lon="0.53258">
        <ele>51.777611</ele>
        <time>2016-10-09T09:00:43Z</time>
      </trkpt>
      <trkpt lat="47.7402" lon="0.53265">
        <ele>51.845299</ele>
        <time>2016-10-09T09:00:48Z</time>
      </trkpt>
      <trkpt lat="47.74015" lon="0.53271">
        <ele>51.907486</ele>
        <time>2016-10-09T09:00:52Z</time>
      </trkpt>
      <trkpt lat="47.74012" lon="0.53275">
        <ele>51.943863</ele>
        <time>2016-10-09T09:00:56Z</time>
      </trkpt>
      <trkpt lat="47.74009" lon="0.5328">
        <ele>51.972015</ele>
        <time>2016-10-09T09:00:59Z</time>
      </trkpt>
      <trkpt lat="47.74005" lon="0.53286">
        <ele>51.991901</ele>
        <time>2016-10-09T09:01:03Z</time>
      </trkpt>
      <trkpt lat="47.74" lon="0.5329">
        <ele>51.99984</ele>
        <time>2016-10-09T09:01:07Z</time>
      </trkpt>
      <trkpt lat="47.73997" lon="0.53295">
        <ele>52.003147</ele>
        <time>2016-10-09T09:01:11Z</time>
      </trkpt>
      <trkpt lat="47.73992" lon="0.533">
        <ele>52.017475</ele>
        <time>2016-10-09T09:01:16Z</time>
      </trkpt>
      <trkpt lat="47.73988" lon="0.53306">
        <ele>52.047035</ele>
        <time>2016-10-09T09:01:20Z</time>
      </trkpt>
      <trkpt lat="47.73985" lon="0.5331">
        <ele>52.081013</ele>
        <time>2016-10-09T09:01:24Z</time>
      </trkpt>
      <trkpt lat="47.73981" lon="0.53316">
        <ele>52.13509</ele>
        <time>2016-10-09T09:01:28Z</time>
      </trkpt>
      <trkpt lat="47.73977" lon="0.53322">
        <ele>52.200989</ele>
        <time>2016-10-09T09:01:32Z</time>
      </trkpt>
      <trkpt lat="47.73973" lon="0.53325">
        <ele>52.263588</ele>
        <time>2016-10-09T09:01:36Z</time>
      </trkpt>
      <trkpt lat="47.73968" lon="0.53329">
        <ele>52.341862</ele>
        <time>2016-10-09T09:01:40Z</time>
      </trkpt>
      <trkpt lat="47.73964" lon="0.53333">
        <ele>52.429413</ele>
        <time>2016-10-09T09:01:44Z</time>
      </trkpt>
      <trkpt lat="47.73959" lon="0.53337">
        <ele>52.513062</ele>
        <time>2016-10-09T09:01:49Z</time>
      </trkpt>
      <trkpt lat="47.73956" lon="0.53342">
        <ele>52.582191</ele>
        <time>2016-10-09T09:01:53Z</time>
      </trkpt>
      <trkpt lat="47.73952" lon="0.53346">
        <ele>52.641548</ele>
        <time>2016-10-09T09:01:57Z</time>
      </trkpt>
      <trkpt lat="47.73948" lon="0.53351">
        <ele>52.700821</ele>
        <time>2016-10-09T09:02:01Z</time>
      </trkpt>
      <trkpt lat="47.73943" lon="0.53355">
        <ele>52.766823</ele>
        <time>2016-10-09T09:02:05Z</time>
      </trkpt>
      <trkpt lat="47.7394" lon="0.53359">
        <ele>52.812035</ele>
        <time>2016-10-09T09:02:09Z</time>
      </trkpt>
      <trkpt lat="47.73936" lon="0.53366">
        <ele>52.855843</ele>
        <time>2016-10-09T09:02:13Z</time>
      </trkpt>
      <trkpt lat="47.73933" lon="0.53371">
        <ele>52.894604</ele>
        <time>2016-10-09T09:02:17Z</time>
      </trkpt>
      <trkpt lat="47.73929" lon="0.53376">
        <ele>52.929482</ele>
        <time>2016-10-09T09:02:20Z</time>
      </trkpt>
      <trkpt lat="47.73924" lon="0.53382">
        <ele>52.962318</ele>
        <time>2016-10-09T09:02:24Z</time>
      </trkpt>
      <trkpt lat="47.73921" lon="0.53387">
        <ele>52.982937</ele>
        <time>2016-10-09T09:02:27Z</time>
      </trkpt>
      <trkpt lat="47.73916" lon="0.53393">
        <ele>52.987144</ele>
        <time>2016-10-09T09:02:31Z</time>
      </trkpt>
      <trkpt lat="47.73911" lon="0.53397">
        <ele>52.895111</ele>
        <time>2016-10-09T09:02:36Z</time>
      </trkpt>
      <trkpt lat="47.73907" lon="0.53401">
        <ele>52.809738</ele>
        <time>2016-10-09T09:02:39Z</time>
      </trkpt>
      <trkpt lat="47.73903" lon="0.53407">
        <ele>52.712303</ele>
        <time>2016-10-09T09:02:43Z</time>
      </trkpt>
      <trkpt lat="47.73899" lon="0.5341">
        <ele>52.602554</ele>
        <time>2016-10-09T09:02:48Z</time>
      </trkpt>
      <trkpt lat="47.73894" lon="0.53415">
        <ele>52.465214</ele>
        <time>2016-10-09T09:02:52Z</time>
      </trkpt>
      <trkpt lat="47.7389" lon="0.53421">
        <ele>52.435661</ele>
        <time>2016-10-09T09:02:56Z</time>
      </trkpt>
      <trkpt lat="47.73885" lon="0.53426">
        <ele>52.44334</ele>
        <time>2016-10-09T09:03:01Z</time>
      </trkpt>
      <trkpt lat="47.73881" lon="0.53432">
        <ele>52.47316</ele>
        <time>2016-10-09T09:03:05Z</time>
      </trkpt>
      <trkpt lat="47.73878" lon="0.53436">
        <ele>52.515556</ele>
        <time>2016-10-09T09:03:09Z</time>
      </trkpt>
      <trkpt lat="47.73872" lon="0.53442">
        <ele>52.535973</ele>
        <time>2016-10-09T09:03:13Z</time>
      </trkpt>
      <trkpt lat="47.73867" lon="0.53447">
        <ele>52.600922</ele>
        <time>2016-10-09T09:03:17Z</time>
      </trkpt>
      <trkpt lat="47.73864" lon="0.53452">
        <ele>52.678452</ele>
        <time>2016-10-09T09:03:20Z</time>
      </trkpt>
      <trkpt lat="47.73859" lon="0.53457">
        <ele>52.763802</ele>
        <time>2016-10-09T09:03:24Z</time>
      </trkpt>
      <trkpt lat="47.73855" lon="0.53461">
        <ele>52.830791</ele>
        <time>2016-10-09T09:03:28Z</time>
      </trkpt>
      <trkpt lat="47.73851" lon="0.53467">
        <ele>52.967411</ele>
        <time>2016-10-09T09:03:33Z</time>
      </trkpt>
      <trkpt lat="47.73848" lon="0.53471">
        <ele>53.081158</ele>
        <time>2016-10-09T09:03:37Z</time>
      </trkpt>
      <trkpt lat="47.73842" lon="0.53476">
        <ele>53.207928</ele>
        <time>2016-10-09T09:03:41Z</time>
      </trkpt>
      <trkpt lat="47.73838" lon="0.53481">
        <ele>53.329536</ele>
        <time>2016-10-09T09:03:44Z</time>
      </trkpt>
      <trkpt lat="47.73834" lon="0.53486">
        <ele>53.49638</ele>
        <time>2016-10-09T09:03:48Z</time>
      </trkpt>
      <trkpt lat="47.7383" lon="0.53491">
        <ele>53.617817</ele>
        <time>2016-10-09T09:03:52Z</time>
      </trkpt>
      <trkpt lat="47.73826" lon="0.53498">
        <ele>53.747601</ele>
        <time>2016-10-09T09:03:56Z</time>
      </trkpt>
      <trkpt lat="47.73823" lon="0.53502">
        <ele>53.723526</ele>
        <time>2016-10-09T09:04:01Z</time>
      </trkpt>
      <trkpt lat="47.73819" lon="0.53506">
        <ele>53.603172</ele>
        <time>2016-10-09T09:04:06Z</time>
      </trkpt>
      <trkpt lat="47.73814" lon="0.5351">
        <ele>53.481476</ele>
        <time>2016-10-09T09:04:10Z</time>
      </trkpt>
      <trkpt lat="47.7381" lon="0.53515">
        <ele>53.361183</ele>
        <time>2016-10-09T09:04:14Z</time>
      </trkpt>
      <trkpt lat="47.73806" lon="0.53519">
        <ele>53.266739</ele>
        <time>2016-10-09T09:04:18Z</time>
      </trkpt>
      <trkpt lat="47.73802" lon="0.53524">
        <ele>53.178101</ele>
        <time>2016-10-09T09:04:22Z</time>
      </trkpt>
      <trkpt lat="47.73798" lon="0.53528">
        <ele>53.1036</ele>
        <time>2016-10-09T09:04:25Z</time>
      </trkpt>
      <trkpt lat="47.73794" lon="0.53532">
        <ele>53.034031</ele>
        <time>2016-10-09T09:04:29Z</time>
      </trkpt>
      <trkpt lat="47.7379" lon="0.53537">
        <ele>52.977581</ele>
        <time>2016-10-09T09:04:35Z</time>
      </trkpt>
      <trkpt lat="47.73784" lon="0.53545">
        <ele>52.914566</ele>
        <time>2016-10-09T09:04:39Z</time>
      </trkpt>
      <trkpt lat="47.7378" lon="0.53549">
        <ele>52.886826</ele>
        <time>2016-10-09T09:04:42Z</time>
      </trkpt>
      <trkpt lat="47.73775" lon="0.53554">
        <ele>52.85759</ele>
        <time>2016-10-09T09:04:46Z</time>
      </trkpt>
      <trkpt lat="47.7377" lon="0.53558">
        <ele>52.840805</ele>
        <time>2016-10-09T09:04:50Z</time>
      </trkpt>
      <trkpt lat="47.73766" lon="0.53562">
        <ele>52.83712</ele>
        <time>2016-10-09T09:04:54Z</time>
      </trkpt>
      <trkpt lat="47.73762" lon="0.53566">
        <ele>52.852562</ele>
        <time>2016-10-09T09:04:58Z</time>
      </trkpt>
      <trkpt lat="47.73759" lon="0.53572">
        <ele>52.894066</ele>
        <time>2016-10-09T09:05:02Z</time>
      </trkpt>
      <trkpt lat="47.73752" lon="0.53581">
        <ele>52.970573</ele>
        <time>2016-10-09T09:05:06Z</time>
      </trkpt>
      <trkpt lat="47.73748" lon="0.53586">
        <ele>52.93972</ele>
        <time>2016-10-09T09:05:09Z</time>
      </trkpt>
      <trkpt lat="47.73744" lon="0.5359">
        <ele>52.857468</ele>
        <time>2016-10-09T09:05:13Z</time>
      </trkpt>
      <trkpt lat="47.73741" lon="0.53595">
        <ele>52.781471</ele>
        <time>2016-10-09T09:05:16Z</time>
      </trkpt>
      <trkpt lat="47.73737" lon="0.536">
        <ele>52.708641</ele>
        <time>2016-10-09T09:05:20Z</time>
      </trkpt>
      <trkpt lat="47.73732" lon="0.53605">
        <ele>52.635612</ele>
        <time>2016-10-09T09:05:25Z</time>
      </trkpt>
      <trkpt lat="47.73728" lon="0.5361">
        <ele>52.584435</ele>
        <time>2016-10-09T09:05:29Z</time>
      </trkpt>
      <trkpt lat="47.73723" lon="0.53615">
        <ele>52.544525</ele>
        <time>2016-10-09T09:05:34Z</time>
      </trkpt>
      <trkpt lat="47.73719" lon="0.53618">
        <ele>52.521263</ele>
        <time>2016-10-09T09:05:38Z</time>
      </trkpt>
      <trkpt lat="47.73714" lon="0.53622">
        <ele>52.504314</ele>
        <time>2016-10-09T09:05:41Z</time>
      </trkpt>
      <trkpt lat="47.7371" lon="0.53627">
        <ele>52.498806</ele>
        <time>2016-10-09T09:05:45Z</time>
      </trkpt>
      <trkpt lat="47.73706" lon="0.53633">
        <ele>52.505634</ele>
        <time>2016-10-09T09:05:49Z</time>
      </trkpt>
      <trkpt lat="47.73702" lon="0.53638">
        <ele>52.524391</ele>
        <time>2016-10-09T09:05:53Z</time>
      </trkpt>
      <trkpt lat="47.73696" lon="0.53645">
        <ele>52.570244</ele>
        <time>2016-10-09T09:05:57Z</time>
      </trkpt>
      <trkpt lat="47.73693" lon="0.53651">
        <ele>52.617294</ele>
        <time>2016-10-09T09:06:00Z</time>
      </trkpt>
      <trkpt lat="47.73689" lon="0.53655">
        <ele>52.667259</ele>
        <time>2016-10-09T09:06:04Z</time>
      </trkpt>
      <trkpt lat="47.73685" lon="0.53658">
        <ele>52.722183</ele>
        <time>2016-10-09T09:06:08Z</time>
      </trkpt>
      <trkpt lat="47.7368" lon="0.53662">
        <ele>52.799362</ele>
        <time>2016-10-09T09:06:13Z</time>
      </trkpt>
      <trkpt lat="47.73675" lon="0.53664">
        <ele>52.874245</ele>
        <time>2016-10-09T09:06:17Z</time>
      </trkpt>
      <trkpt lat="47.7367" lon="0.53668">
        <ele>52.934269</ele>
        <time>2016-10-09T09:06:21Z</time>
      </trkpt>
      <trkpt lat="47.73666" lon="0.53668">
        <ele>52.945259</ele>
        <time>2016-10-09T09:06:25Z</time>
      </trkpt>
      <trkpt lat="47.7366" lon="0.53668">
        <ele>52.80825</ele>
        <time>2016-10-09T09:06:29Z</time>
      </trkpt>
      <trkpt lat="47.73656" lon="0.53668">
        <ele>52.697353</ele>
        <time>2016-10-09T09:06:33Z</time>
      </trkpt>
      <trkpt lat="47.73651" lon="0.53669">
        <ele>52.57505</ele>
        <time>2016-10-09T09:06:37Z</time>
      </trkpt>
      <trkpt lat="47.73644" lon="0.53668">
        <ele>52.439751</ele>
        <time>2016-10-09T09:06:41Z</time>
      </trkpt>
      <trkpt lat="47.73638" lon="0.53666">
        <ele>52.303833</ele>
        <time>2016-10-09T09:06:45Z</time>
      </trkpt>
      <trkpt lat="47.73632" lon="0.53663">
        <ele>52.119446</ele>
        <time>2016-10-09T09:06:49Z</time>
      </trkpt>
      <trkpt lat="47.73626" lon="0.53662">
        <ele>51.970825</ele>
        <time>2016-10-09T09:06:53Z</time>
      </trkpt>
      <trkpt lat="47.73622" lon="0.5366">
        <ele>51.838623</ele>
        <time>2016-10-09T09:06:58Z</time>
      </trkpt>
      <trkpt lat="47.73617" lon="0.53655">
        <ele>51.658264</ele>
        <time>2016-10-09T09:07:02Z</time>
      </trkpt>
      <trkpt lat="47.73614" lon="0.53648">
        <ele>51.503052</ele>
        <time>2016-10-09T09:07:06Z</time>
      </trkpt>
      <trkpt lat="47.73611" lon="0.53641">
        <ele>51.351562</ele>
        <time>2016-10-09T09:07:10Z</time>
      </trkpt>
      <trkpt lat="47.73607" lon="0.53637">
        <ele>51.216125</ele>
        <time>2016-10-09T09:07:16Z</time>
      </trkpt>
      <trkpt lat="47.736" lon="0.53626">
        <ele>50.92572</ele>
        <time>2016-10-09T09:07:19Z</time>
      </trkpt>
      <trkpt lat="47.73597" lon="0.53621">
        <ele>50.780945</ele>
        <time>2016-10-09T09:07:24Z</time>
      </trkpt>
      <trkpt lat="47.73594" lon="0.53616">
        <ele>50.644409</ele>
        <time>2016-10-09T09:07:28Z</time>
      </trkpt>
      <trkpt lat="47.73591" lon="0.53608">
        <ele>50.487061</ele>
        <time>2016-10-09T09:07:33Z</time>
      </trkpt>
      <trkpt lat="47.73588" lon="0.53603">
        <ele>50.341919</ele>
        <time>2016-10-09T09:07:37Z</time>
      </trkpt>
      <trkpt lat="47.73584" lon="0.53596">
        <ele>50.180176</ele>
        <time>2016-10-09T09:07:41Z</time>
      </trkpt>
      <trkpt lat="47.7358" lon="0.5359">
        <ele>50.108643</ele>
        <time>2016-10-09T09:07:45Z</time>
      </trkpt>
      <trkpt lat="47.73577" lon="0.53584">
        <ele>50.083752</ele>
        <time>2016-10-09T09:07:48Z</time>
      </trkpt>
      <trkpt lat="47.73574" lon="0.53578">
        <ele>50.180664</ele>
        <time>2016-10-09T09:07:52Z</time>
      </trkpt>
      <trkpt lat="47.7357" lon="0.53573">
        <ele>50.285767</ele>
        <time>2016-10-09T09:07:55Z</time>
      </trkpt>
      <trkpt lat="47.73567" lon="0.53566">
        <ele>50.409607</ele>
        <time>2016-10-09T09:07:59Z</time>
      </trkpt>
      <trkpt lat="47.73564" lon="0.5356">
        <ele>50.514832</ele>
        <time>2016-10-09T09:08:03Z</time>
      </trkpt>
      <trkpt lat="47.7356" lon="0.53554">
        <ele>50.62616</ele>
        <time>2016-10-09T09:08:08Z</time>
      </trkpt>
      <trkpt lat="47.73558" lon="0.53548">
        <ele>50.729004</ele>
        <time>2016-10-09T09:08:11Z</time>
      </trkpt>
      <trkpt lat="47.73555" lon="0.53542">
        <ele>50.83905</ele>
        <time>2016-10-09T09:08:15Z</time>
      </trkpt>
      <trkpt lat="47.73551" lon="0.53537">
        <ele>50.934692</ele>
        <time>2016-10-09T09:08:18Z</time>
      </trkpt>
      <trkpt lat="47.73547" lon="0.53533">
        <ele>51.035828</ele>
        <time>2016-10-09T09:08:22Z</time>
      </trkpt>
      <trkpt lat="47.73544" lon="0.53527">
        <ele>51.153259</ele>
        <time>2016-10-09T09:08:26Z</time>
      </trkpt>
      <trkpt lat="47.73541" lon="0.53521">
        <ele>51.252747</ele>
        <time>2016-10-09T09:08:29Z</time>
      </trkpt>
      <trkpt lat="47.73538" lon="0.53515">
        <ele>51.363525</ele>
        <time>2016-10-09T09:08:33Z</time>
      </trkpt>
      <trkpt lat="47.73535" lon="0.5351">
        <ele>51.460083</ele>
        <time>2016-10-09T09:08:37Z</time>
      </trkpt>
      <trkpt lat="47.73532" lon="0.53504">
        <ele>51.565735</ele>
        <time>2016-10-09T09:08:42Z</time>
      </trkpt>
      <trkpt lat="47.73529" lon="0.53498">
        <ele>51.677917</ele>
        <time>2016-10-09T09:08:47Z</time>
      </trkpt>
      <trkpt lat="47.73524" lon="0.53489">
        <ele>51.840698</ele>
        <time>2016-10-09T09:08:51Z</time>
      </trkpt>
      <trkpt lat="47.73521" lon="0.53484">
        <ele>51.939941</ele>
        <time>2016-10-09T09:08:55Z</time>
      </trkpt>
    </trkseg>
  </trk>
</gpx>